     2              OBSERVATION DATA    G (GPS)             RINEX VERSION / TYPE
ASRINEXO V2.9.9 LH AIUB 01-FEB- 1 16:34                     PGM / RUN BY / DATE
BERN ASHTECH Z-12                                           COMMENT
BIT 2 OF LLI (+4) FLAGS DATA COLLECTED UNDER "AS" CONDITION COMMENT
USNB                                                        MARKER NAME
                                                            OBSERVER / AGENCY
? ASHTECH Z-XII3 1D15                                       REC # / TYPE / VERS
? CHOKE RING                                                ANT # / TYPE
  1112163.2300 -4842867.0100  3985496.7500                  APPROX POSITION XYZ
        0.0000        0.0000        0.0000                  ANTENNA: DELTA H/E/N
     1     1                                                WAVELENGTH FACT L1/2
     5    C1    L1    L2    P1    P2                        # / TYPES OF OBSERV
  2000     5    24     0     0   30.000000                  TIME OF FIRST OBS
                                                            END OF HEADER
 00  5 24  0  0 30.0000000  0  8 09 26 21 03 17 29 15 23
  20748927.758   -18164812.372 9 -14141798.23848  20748930.000    20748940.5684
  23152379.839    -9032642.136 8  -7016315.20246  23152386.575    23152399.1144
  23037321.324   -10635804.639 8  -8263754.72146  23037325.456    23037338.2334
  24536776.020    -1807611.761 7  -1396562.91745  24536780.116    24536795.5014
  20910784.790   -20808058.679 9 -16176951.80747  20910786.966    20910798.4634
  22662272.230   -10826965.189 8  -8426783.99846  22662274.520    22662286.9244
  24136666.155    -1360297.518 7  -1045127.96945  24136669.404    24136681.6604
  20864505.103   -21362545.729 9 -16629794.93948  20864507.897    20864518.3764
 00  5 24  0  1  0.0000000  0  8 09 26 21 03 17 29 15 23
  20746929.120   -18175308.302 9 -14149976.83848  20746932.706    20746943.3474
  23170246.247    -8938750.033 8  -6943152.40446  23170254.155    23170266.6314
  23022324.182   -10714621.820 8  -8325170.56146  23022326.884    23022339.9914
  24542293.837    -1778631.650 7  -1373980.98345  24542295.815    24542311.4814
  20924731.926   -20734756.938 9 -16119833.66147  20924735.839    20924747.3924
  22648712.397   -10898223.332 8  -8482309.76346  22648714.523    22648727.0354
  24116438.727    -1466606.476 7  -1127966.17545  24116439.967    24116452.0974
  20859955.838   -21386452.753 9 -16648423.82248  20859958.508    20859968.9694
 00  5 24  0  1 30.0000000  0  8 09 26 21 03 17 29 15 23
  20745055.584   -18185160.604 9 -14157653.91148  20745058.050    20745068.4074
  23188123.011    -8844817.078 8  -6869957.82846  23188128.491    23188140.8854
  23007328.893   -10793410.614 8  -8386564.34346  23007332.851    23007345.8574
  24547889.890    -1749218.040 7  -1351061.27945  24547891.196    24547907.8514
  20938776.339   -20660942.766 9 -16062316.19347  20938781.664    20938793.4074
  22635196.433   -10969252.535 8  -8537657.16046  22635198.002    22635210.4464
  24096245.655    -1572724.312 8  -1210655.38745  24096246.250    24096256.9794
  20855445.672   -21410149.827 9 -16666889.08448  20855449.029    20855459.6234
 00  5 24  0  2  0.0000000  0  8 09 26 21 03 17 29 15 23
  20743302.873   -18194368.904 9 -14164829.15947  20743305.502    20743315.6164
  23206011.040    -8750844.722 8  -6796732.59645  23206010.018    23206022.5014
  22992340.936   -10872170.302 8  -8447935.49346  22992345.871    22992358.0524
  24553557.261    -1719372.725 7  -1327805.20445  24553571.440    24553587.6844
  20952921.614   -20586618.262 9 -16004401.06747  20952925.534    20952936.6344
  22621720.393   -11040052.671 8  -8592826.01246  22621725.449    22621737.5334
  24076090.785    -1678648.455 8  -1293193.63745  24076089.222    24076101.1944
  20850978.897   -21433635.944 9 -16685189.97048  20850980.233    20850990.4364
 00  5 24  0  2 30.0000000  0  8 09 26 21 03 17 29 15 23
  20741673.540   -18202933.108 9 -14171502.51348  20741675.705    20741686.1734
  23223894.553    -8656834.515 8  -6723477.82046  23223900.728    23223911.9144
  22977359.787   -10950899.360 8  -8509282.74746  22977363.977    22977376.7404
  24559337.223    -1689097.873 7  -1304214.38044  24559333.433    24559349.1894
  20967162.403   -20511785.475 9 -15946089.87147  20967166.024    20967177.3754
  22608293.674   -11110623.532 8  -8647816.23846  22608296.204    22608308.8774
  24055961.928    -1784376.231 7  -1375578.88445  24055969.273    24055981.7584
  20846548.161   -21456909.859 9 -16703325.50248  20846551.203    20846561.6124
 00  5 24  0  3  0.0000000  0  8 09 26 21 03 17 29 15 23
  20740165.678   -18210853.032 9 -14177673.83148  20740168.585    20740179.3124
  23241791.906    -8562788.020 8  -6650194.81246  23241796.218    23241809.6214
  22962385.695   -11029596.719 8  -8570605.21446  22962388.250    22962400.7734
  24565159.710    -1658395.093 7  -1280290.15744  24565179.390    24565191.7764
  20981498.725   -20436446.519 9 -15887384.26747  20981502.407    20981513.7174
  22594905.502   -11180964.625 8  -8702627.40246  22594910.645    22594923.1274
  24035887.698    -1889904.529 8  -1457808.58845  24035888.018    24035899.5144
  20842159.396   -21479970.763 9 -16721295.02548  20842162.937    20842173.4204
 00  5 24  0  3 30.0000000  0  8 09 26 21 03 17 29 15 23
  20738779.226   -18218128.296 9 -14183342.81448  20738783.497    20738794.7064
  23259698.204    -8468706.645 8  -6576884.66346  23259699.865    23259711.4874
  22947416.457   -11108261.332 8  -8631902.12046  22947419.467    22947431.3094
  24571085.518    -1627266.032 7  -1256033.82144  24571095.591    24571114.3924
  20995930.513   -20360603.403 9 -15828285.81647  20995935.024    20995946.4284
  22581564.164   -11251075.875 8  -8757259.47146  22581569.229    22581581.5284
  24015843.238    -1995230.748 7  -1539880.76745  24015844.503    24015855.6424
  20837813.030   -21502817.601 9 -16739097.70748  20837815.269    20837825.7334
 00  5 24  0  4  0.0000000  0  8 09 26 21 03 17 29 15 23
  20737518.366   -18224758.530 9 -14188509.17548  20737522.280    20737533.0304
  23277606.508    -8374591.926 8  -6503548.50446  23277610.021    23277621.3844
  22932454.350   -11186892.597 8  -8693172.94246  22932456.249    22932467.9124
  24577102.511    -1595713.139 7  -1231447.23844  24577103.818    24577118.4004
  21010459.769   -20284258.238 9 -15768796.14847  21010462.831    21010474.5934
  22568271.690   -11320956.863 8  -8811712.09146  22568271.301    22568283.8674
  23995838.645    -2100352.384 7  -1621793.71145  23995841.076    23995851.9584
  20833505.394   -21525449.064 9 -16756732.56448  20833508.421    20833519.0604
 00  5 24  0  4 30.0000000  0  8 09 26 21 03 17 29 15 23
  20736379.846   -18230743.585 9 -14193172.81148  20736383.518    20736393.9824
  23295526.122    -8280445.326 8  -6430187.51846  23295525.041    23295536.8464
  22917494.338   -11265489.685 8  -8754417.29446  22917499.098    22917511.9494
  24583188.400    -1563738.242 7  -1206531.77744  24583188.627    24583204.6334
  21025082.223   -20207412.964 9 -15708916.81347  21025086.142    21025097.9704
  22555011.661   -11390607.417 8  -8865985.14046  22555016.894    22555028.7164
  23975867.663    -2205265.866 7  -1703544.16345  23975875.496    23975887.9534
  20829240.883   -21547864.102 9 -16774198.79448  20829243.224    20829253.5634
 00  5 24  0  5  0.0000000  0  8 09 26 21 03 17 29 15 23
  20735363.069   -18236083.513 9 -14197333.74348  20735367.366    20735377.9474
  23313442.576    -8186268.191 8  -6356802.79046  23313447.250    23313459.4784
  22902546.206   -11344051.751 8  -8815634.46046  22902548.920    22902561.9264
  24589338.491    -1531343.059 7  -1181288.86344  24589350.694    24589369.4854
  21039798.228   -20130069.693 9 -15648649.43147  21039803.891    21039815.3224
  22541801.450   -11460027.239 8  -8920078.43146  22541806.458    22541818.2134
  23955946.795    -2309968.747 7  -1785130.56945  23955950.954    23955963.8554
  20825015.915   -21570061.624 9 -16791495.52148  20825019.080    20825029.1924
 00  5 24  0  5 30.0000000  0  8 09 26 21 03 17 29 15 23
  20734469.520   -18240778.122 9 -14200991.82648  20734473.900    20734484.8204
  23331372.992    -8092061.936 8  -6283395.36146  23331374.132    23331385.9174
  22887603.001   -11422577.461 8  -8876823.23846  22887606.347    22887619.0594
  24595597.261    -1498529.731 7  -1155720.19244  24595597.704    24595612.4944
  21054612.984   -20052230.571 9 -15587995.66347  21054616.400    21054627.7684
  22528637.710   -11529216.227 8  -8973991.84446  22528640.103    22528652.6674
  23936061.857    -2414458.742 7  -1866551.23545  23936067.205    23936079.3574
  20820832.966   -21592040.509 9 -16808621.85448  20820836.442    20820846.6364
 00  5 24  0  6  0.0000000  0  8 09 26 21 03 17 29 15 23
  20733699.637   -18244827.251 9 -14204146.95448  20733703.257    20733713.8464
  23349301.655    -7997828.116 8  -6209966.41546  23349305.909    23349317.0464
  22872669.456   -11501064.888 8  -8937982.19846  22872670.787    22872683.1234
  24601915.593    -1465300.251 7  -1129827.22144  24601922.451    24601935.0034
  21069520.649   -19973897.837 9 -15526957.26647  21069522.753    21069534.2784
  22515512.830   -11598173.823 8  -9027724.93146  22515517.668    22515530.4344
  23916223.430    -2518732.976 7  -1947803.94745  23916223.987    23916236.4624
  20816692.415   -21613799.780 9 -16825577.06748  20816695.739    20816705.8854
 00  5 24  0  6 30.0000000  0  8 09 26 21 03 17 29 15 23
  20733051.356   -18248230.655 9 -14206798.91348  20733055.352    20733066.1994
  23367238.464    -7903568.071 8  -6136517.06546  23367242.322    23367255.6884
  22857739.711   -11579513.919 8  -8999111.22446  22857741.353    22857754.4764
  24608319.473    -1431656.873 7  -1103611.71544  24608322.168    24608337.9244
  21084519.560   -19895073.526 9 -15465535.82347  21084522.737    21084534.3204
  22502434.985   -11666900.175 8  -9081277.84546  22502439.018    22502453.0334
  23896421.096    -2622788.038 7  -2028885.76045  23896422.015    23896435.8824
  20812595.068   -21635338.256 9 -16842360.23648  20812597.029    20812607.0964
 00  5 24  0  7  0.0000000  0  8 09 26 21 03 17 29 15 23
  20732528.107   -18250988.405 9 -14208947.77148  20732530.898    20732541.5334
  23385178.157    -7809283.293 8  -6063048.50546  23385184.652    23385196.8404
  22842818.014   -11657922.944 8  -9060209.06446  22842821.057    22842833.7024
  24614802.317    -1397601.564 7  -1077075.22544  24614802.693    24614818.1744
  21099614.446   -19815760.153 9 -15403733.29547  21099615.823    21099627.1684
  22489401.926   -11735394.917 8  -9134650.26846  22489404.827    22489418.7344
  23876661.030    -2726621.326 7  -2109794.83745  23876664.696    23876678.2074
  20808537.049   -21656654.847 9 -16858970.50248  20808540.637    20808550.5364
 00  5 24  0  7 30.0000000  0  8 09 26 21 03 17 29 15 23
  20732124.006   -18253100.323 9 -14210593.39148  20732129.233    20732139.1464
  23403125.743    -7714975.133 8  -5989561.65045  23403130.648    23403142.2474
  22827905.507   -11736291.321 8  -9121275.23546  22827907.921    22827920.7154
  24621357.576    -1363136.353 7  -1050219.36244  24621362.081    24621375.7834
  21114798.121   -19735959.874 9 -15341551.35547  21114801.320    21114812.9834
  22476408.215   -11803657.829 8  -9187842.02946  22476414.609    22476428.1134
  23856940.554    -2830230.124 7  -2190528.98345  23856946.125    23856961.7084
  20804523.331   -21677748.486 9 -16875407.05448  20804526.489    20804536.4964
 00  5 24  0  8  0.0000000  0  8 09 26 21 03 17 29 15 23
  20731846.212   -18254566.492 9 -14211735.83548  20731849.890    20731860.0304
  23421072.577    -7620644.910 8  -5916057.66246  23421081.643    23421093.9244
  22812999.426   -11814617.514 8  -9182308.51546  22813002.889    22813015.8874
  24627988.556    -1328263.211 7  -1023045.64444  24627997.371    24628015.9634
  21130075.443   -19655674.874 8 -15278991.71547  21130078.942    21130090.6924
  22463465.034   -11871688.624 8  -9240852.94346  22463469.338    22463482.8504
  23837267.899    -2933611.711 7  -2271086.10545  23837274.795    23837290.0124
  20800551.733   -21698618.032 9 -16891669.02148  20800555.252    20800565.2774
 00  5 24  0  8 30.0000000  0  8 09 26 21 03 17 29 15 23
  20731690.109   -18255387.060 9 -14212375.20548  20731694.056    20731704.1864
  23439033.784    -7526294.190 8  -5842537.68346  23439036.063    23439047.6874
  22798103.116   -11892900.760 8  -9243308.35246  22798105.731    22798118.5374
  24634712.620    -1292984.406 7   -995555.76444  24634712.989    24634726.6744
  21145443.547   -19574907.302 8 -15216056.05647  21145448.447    21145460.3434
  22450564.215   -11939487.265 8  -9293682.96146  22450567.840    22450580.0494
  23817646.529    -3036762.919 8  -2351463.79545  23817646.920    23817658.6404
  20796624.280   -21719262.426 9 -16907755.54448  20796626.858    20796636.8884
 00  5 24  0  9  0.0000000  0  8 09 26 21 03 17 29 15 23
  20731657.179   -18255561.865 9 -14212511.39348  20731660.374    20731670.7014
  23456991.528    -7431924.251 8  -5769002.74446  23456994.253    23457005.3944
  22783213.753   -11971139.717 8  -9304273.71246  22783217.406    22783229.7794
  24641502.984    -1257302.069 7   -967751.52944  24641503.964    24641517.6144
  21160907.369   -19493659.365 9 -15152746.07447  21160909.859    21160921.3364
  22437703.146   -12007053.352 8  -9346331.78846  22437709.847    22437722.6924
  23798063.001    -3139681.001 7  -2431659.87545  23798061.276    23798075.0774
  20792738.389   -21739680.488 9 -16923665.70148  20792741.357    20792751.3524
 00  5 24  0  9 30.0000000  0  8 09 26 21 03 17 29 15 23
  20731745.050   -18255091.284 9 -14212144.67948  20731749.790    20731760.1724
  23474955.249    -7337536.362 8  -5695453.83146  23474955.479    23474966.9884
  22768334.572   -12049333.901 8  -9365204.23846  22768337.518    22768350.0334
  24648367.461    -1221218.251 7   -939634.35354                  24648384.7064
  21176458.459   -19411933.341 9 -15089063.55547  21176462.023    21176472.7884
  22424893.799   -12074386.800 8  -9398799.31846  22424896.800    22424908.4514
  23778525.142    -3242363.183 7  -2511672.10745  23778521.658    23778535.7054
  20788896.234   -21759871.229 9 -16939398.71748  20788899.325    20788909.1484
 00  5 24  0 10  0.0000000  0  8 09 26 21 03 17 29 15 23
  20731957.053   -18253975.310 9 -14211275.07748  20731962.369    20731972.7644
  23492914.485    -7243131.908 8  -5621891.98846  23492919.637    23492931.0414
  22753461.434   -12127481.356 8  -9426098.31146  22753466.949    22753479.2574
  24655310.231    -1184734.910 7   -911205.94154  24655312.455    24655324.4844
  21192099.410   -19329731.622 8 -15025010.37147  21192103.870    21192115.8454
  22412122.366   -12141487.322 8  -9451085.36446  22412128.544    22412139.5464
  23759023.852    -3344806.385 7  -2591497.91045  23759027.273    23759040.9004
  20785097.913   -21779833.483 9 -16954953.70148  20785100.712    20785110.4884
 00  5 24  0 10 30.0000000  0  8 09 26 21 03 17 29 15 23
  20732294.076   -18252214.161 9 -14209902.73748  20732297.738    20732308.0144
  23510880.398    -7148712.270 8  -5548318.30446  23510887.866    23510899.6324
  22738602.038   -12205581.514 8  -9486955.49146  22738604.444    22738617.1534
  24662324.580    -1147854.181 7   -882467.83844  24662332.255    24662347.7264
  21207832.343   -19247056.528 8 -14960588.33047  21207836.614    21207848.1724
  22399398.648   -12208354.976 8  -9503189.93246  22399403.183    22399415.0974
  23739574.603    -3447007.331 8  -2671134.91545  23739579.409    23739593.7784
  20781340.839   -21799565.995 9 -16970329.65848  20781345.706    20781355.7644
 00  5 24  0 11  0.0000000  0  8 09 26 21 03 17 29 15 23
  20732752.627   -18249808.021 9 -14208027.80948  20732755.200    20732765.7884
  23528861.442    -7054278.720 8  -5474733.81145  23528857.593    23528869.6964
  22723747.887   -12283632.920 8  -9547774.67046  22723751.510    22723765.0234
  24669419.820    -1110578.150 7   -853421.70944  24669420.715    24669438.6354
  21223659.520   -19163910.475 9 -14895799.29847  21223658.990    21223670.8384
  22386719.303   -12274989.385 8  -9555112.76146  22386723.563    22386736.0534
  23720176.242    -3548963.567 7  -2750581.22945  23720175.769    23720191.4474
  20777632.490   -21819067.470 9 -16985525.58948  20777634.514    20777644.6564
 00  5 24  0 11 30.0000000  0  8 09 26 21 03 17 29 15 23
  20733333.932   -18246756.995 9 -14205650.37548  20733335.704    20733346.3424
  23546829.214    -6959832.672 8  -5401139.53746  23546830.669    23546842.1934
  22708905.518   -12361634.529 8  -9608555.01346  22708907.963    22708920.8824
  24676589.664    -1072909.138 7   -824069.35644  24676589.131    24676607.8584
  21239566.301   -19080295.802 8 -14830645.12247  21239570.585    21239583.2044
  22374082.705   -12341390.296 8  -9606853.60246  22374087.818    22374100.2604
  23700819.700    -3650671.871 8  -2829834.06545  23700823.277    23700837.4034
  20773965.067   -21838336.983 9 -17000540.76648  20773967.663    20773977.7324
 00  5 24  0 12  0.0000000  0  7 09 26 21 17 29 15 23
  20734038.836   -18243061.361 9 -14202770.64848  20734039.284    20734049.5894
  23564799.800    -6865375.331 8  -5327536.42446  23564805.552    23564816.6554
  22694071.954   -12439585.433 8  -9669295.83446  22694074.484    22694087.1244
  21255567.504   -18996214.668 9 -14765127.45847  21255570.778    21255582.8624
  22361494.430   -12407557.731 8  -9658412.56846  22361496.450    22361508.7194
  23681512.834    -3752129.794 8  -2908891.87645  23681516.750    23681530.1104
  20770341.911   -21857373.352 9 -17015374.27748  20770344.573    20770355.3474
 00  5 24  0 12 30.0000000  0  7 09 26 21 17 29 15 23
  20734862.327   -18238721.233 9 -14199388.73148  20734865.183    20734875.5764
  23582773.910    -6770908.049 8  -5253925.54845  23582781.146    23582793.3074
  22679244.767   -12517484.328 8  -9729996.13746  22679250.178    22679263.3884
  21271654.268   -18911669.489 8 -14699248.21647  21271659.295    21271671.3514
  22348941.953   -12473491.386 8  -9709789.35646  22348949.502    22348961.1674
  23662257.033    -3853335.750 8  -2987753.73445  23662257.298    23662271.0874
  20766764.354   -21876175.516 9 -17030025.31748  20766767.104    20766777.2764
 00  5 24  0 13  0.0000000  0  7 09 26 21 17 29 15 23
  20735810.923   -18233737.062 9 -14195504.96248  20735813.695    20735823.8214
  23600753.611    -6676431.991 8  -5180307.83745  23600759.282    23600771.4054
  22664433.918   -12595329.857 8  -9790654.90546  22664437.598    22664450.0404
  21287831.122   -18826662.774 8 -14633009.33447  21287835.552    21287847.6734
  22336447.557   -12539191.218 8  -9760983.96646  22336447.541    22336458.2234
  23643042.138    -3954285.271 7  -3066415.83745  23643046.574    23643059.8694
  20763231.856   -21894742.266 9 -17044492.91348  20763234.100    20763244.2084
 00  5 24  0 13 30.0000000  0  7 09 26 21 17 29 15 23
  20736878.618   -18228109.157 9 -14191119.57848  20736884.359    20736894.8174
  23618744.749    -6581948.751 8  -5106684.55346  23618738.814    23618751.6724
  22649629.439   -12673120.984 8  -9851271.33346  22649634.534    22649645.9984
  21304093.980   -18741196.830 8 -14566412.60847  21304099.195    21304111.3914
  22323984.605   -12604657.283 8  -9811996.43546  22323989.745    22324001.0294
  23623881.389    -4054975.357 7  -3144875.35145  23623885.911    23623899.6714
  20759740.553   -21913072.512 9 -17058776.21648  20759745.919    20759756.0564
 00  5 24  0 14  0.0000000  0  7 09 26 21 17 29 15 23
  20738076.364   -18221837.690 9 -14186232.72548  20738077.897    20738088.5574
  23636716.134    -6487459.492 8  -5033056.54646  23636720.495    23636732.1714
  22634839.615   -12750856.433 8  -9911844.43246  22634842.530    22634853.8584
  21320445.993   -18655274.100 8 -14499459.95947  21320449.845    21320462.1744
  22311570.943   -12669889.019 8  -9862826.30946  22311575.869    22311588.7554
  23604770.769    -4155403.293 8  -3223130.58945  23604774.861    23604789.6744
  20756299.878   -21931165.038 9 -17072874.29948  20756302.648    20756313.0624
 00  5 24  0 14 30.0000000  0  7 09 26 21 17 29 15 23
  20739388.639   -18214923.170 9 -14180844.79448  20739393.530    20739403.9964
  23654700.544    -6392965.246 8  -4959424.65246  23654701.232    23654714.6684
  22620056.600   -12828535.143 8  -9972373.35446  22620060.666    22620071.9034
  21336879.277   -18568896.936 8 -14432153.20447  21336886.627    21336898.7834
  22299205.886   -12734886.541 8  -9913473.62446  22299207.862    22299220.0744
  23585711.542    -4255566.947 7  -3301180.06445  23585714.630    23585728.9404
  20752903.127   -21949018.565 9 -17086786.14648  20752905.449    20752916.0014
 00  5 24  0 15  0.0000000  0  7 09 26 21 17 29 15 23
  20740828.548   -18207366.090 9 -14174956.15948  20740831.890    20740841.9964
  23672681.431    -6298467.458 8  -4885789.96346  23672683.416    23672696.7864
  22605285.177   -12906155.712 8 -10032856.93546  22605289.895    22605301.7074
  21353405.891   -18482067.930 8 -14364494.35347  21353410.350    21353422.1854
  22286877.756   -12799649.691 8  -9963938.34646  22286883.263    22286896.2564
  23566703.957    -4355462.903 8  -3379020.98745  23566705.361    23566717.3684
  20749551.950   -21966632.041 9 -17100510.93748  20749553.557    20749563.9154
 00  5 24  0 15 30.0000000  0  7 09 26 21 17 29 15 23
  20742389.924   -18199167.210 9 -14168567.43148  20742392.075    20742402.3404
  23690666.072    -6203967.366 8  -4812153.53945  23690666.043    23690678.4034
  22590528.550   -12983717.058 8 -10093294.31947  22590530.995    22590542.8354
  21370014.993   -18394789.405 9 -14296485.23947  21370018.827    21370031.0904
  22274600.241   -12864178.285 8 -10014220.26946  22274603.697    22274616.6954
  23547743.127    -4455088.252 8  -3456650.89945  23547747.601    23547760.9554
  20746244.983   -21984004.148 9 -17114047.65248  20746248.062    20746258.3654
 00  5 24  0 16  0.0000000  0  7 09 26 21 17 29 15 23
  20744071.322   -18190326.666 9 -14161678.72548  20744074.382    20744084.6614
  23708644.907    -6109466.292 8  -4738516.37945  23708649.267    23708661.6924
  22575776.999   -13061217.956 8 -10153684.62447  22575782.342    22575794.2224
  21386708.294   -18307063.854 8 -14228127.77447  21386712.525    21386724.4074
  22262367.496   -12928472.225 8 -10064319.40146  22262369.152    22262381.7174
  23528840.586    -4554441.362 7  -3534069.13945  23528841.283    23528854.6944
  20742984.762   -22001134.036 9 -17127395.63348  20742988.284    20742998.4094
 00  5 24  0 16 30.0000000  0  7 09 26 21 17 29 15 23
  20745874.930   -18180844.677 9 -14154290.19048  20745878.824    20745889.2934
  23726622.831    -6014965.354 8  -4664879.36245  23726631.838    23726644.0794
  22561045.286   -13138656.918 8 -10214026.70547  22561046.450    22561058.0794
  21403487.563   -18218893.736 8 -14159423.91347  21403491.025    21403502.9114
  22250175.510   -12992531.561 8 -10114235.70346  22250178.537    22250191.6994
  23509983.284    -4653518.223 7  -3611272.34545  23509986.604    23509999.9264
  20739772.525   -22018020.558 9 -17140553.97448  20739774.700    20739784.6824
 00  5 24  0 17  0.0000000  0  7 09 26 21 17 29 15 23
  20747802.681   -18170722.104 9 -14146402.48748  20747805.106    20747815.4864
  23744616.311    -5920465.744 8  -4591243.38445  23744614.334    23744627.1374
  22546318.908   -13216033.040 8 -10274319.77347  22546321.950    22546334.6404
  21420351.181   -18130281.743 8 -14090375.72747  21420353.283    21420365.2004
  22238030.746   -13056355.990 8 -10163969.00046  22238033.699    22238045.7384
  23491180.954    -4752315.480 7  -3688257.43445  23491186.030    23491201.5774
  20736602.765   -22034662.589 9 -17153521.80048  20736607.710    20736618.0074
 00  5 24  0 17 30.0000000  0  7 09 26 21 17 29 15 23
  20749849.607   -18159959.448 9 -14138016.02148  20749853.137    20749863.7244
  23762593.205    -5825968.821 8  -4517609.52645  23762596.488    23762609.8264
  22531605.325   -13293344.823 8 -10334562.66847  22531610.330    22531622.2324
  21437296.803   -18041230.232 8 -14020985.06147  21437298.878    21437312.4264
  22225928.186   -13119945.474 8 -10213519.20546  22225933.569    22225945.3594
  23472437.856    -4850830.503 7  -3765022.48245  23472440.372    23472454.5714
  20733485.643   -22051058.655 9 -17166297.96248  20733487.771    20733498.1584
 00  5 24  0 18  0.0000000  0  7 09 26 21 17 29 15 23
  20752018.334   -18148557.124 9 -14129131.11848  20752022.701    20752033.2924
  23780570.030    -5731475.430 8  -4443978.37645  23780578.404    23780591.2574
  22516907.740   -13370590.670 8 -10394754.11547  22516910.330    22516922.9594
  21454324.907   -17951741.729 8 -13951253.90547  21454328.362    21454340.6694
  22213875.836   -13183299.867 8 -10262886.21746  22213877.703    22213889.1904
  23453749.793    -4949060.407 8  -3841565.33345  23453748.308    23453762.1644
  20730411.535   -22067207.694 9 -17178881.63348  20730414.657    20730425.0234
 00  5 24  0 18 30.0000000  0  7 09 26 21 17 29 15 23
  20754310.654   -18136515.941 9 -14119748.41148  20754314.280    20754324.3594
  23798548.967    -5636986.917 7  -4370350.99745  23798558.502    23798571.9704
  22502223.980   -13447769.897 8 -10454893.69247  22502223.379    22502236.4774
  21471436.951   -17861818.872 8 -13881184.26447  21471440.158    21471452.8744
  22201862.424   -13246419.167 8 -10312070.07646  22201866.648    22201877.8854
  23435109.414    -5047002.555 8  -3917883.85245  23435110.552    23435124.0374
  20727385.275   -22083108.476 9 -17191271.85048  20727389.227    20727399.5144
 00  5 24  0 19  0.0000000  0  7 09 26 21 17 29 15 23
  20756726.939   -18123836.512 9 -14109868.38648  20756727.214    20756737.4144
  23816533.289    -5542504.700 8  -4296728.53445  23816539.367    23816550.9134
  22487545.958   -13524880.853 8 -10514980.06047  22487550.344    22487562.1204
  21488629.339   -17771464.267 8 -13810778.20147  21488634.475    21488646.4334
  22189894.726   -13309303.304 8 -10361070.67946  22189899.561    22189912.3404
  23416526.348    -5144653.913 8  -3993975.77145  23416527.161    23416540.5134
  20724407.621   -22098759.896 9 -17203467.77448  20724410.512    20724420.8704
 00  5 24  0 19 30.0000000  0  7 09 26 21 17 29 15 23
  20759256.529   -18110519.606 9 -14099491.62248  20759261.568    20759271.6484
  23834510.936    -5448029.717 8  -4223111.70645  23834516.551    23834529.4974
  22472886.585   -13601922.165 8 -10575012.19847  22472889.621    22472901.9324
  21505904.568   -17680680.212 8 -13740037.50947  21505909.876    21505922.7594
  22177974.596   -13371952.185 8 -10409887.91346  22177977.656    22177990.9944
  23397992.056    -5242011.315 7  -4069838.42245  23397999.279    23398014.7804
  20721476.359   -22114160.648 9 -17215468.37048  20721479.919    20721490.4004
 00  5 24  0 20  0.0000000  0  7 09 26 21 17 29 15 23
  20761914.148   -18096565.677 9 -14088618.47248  20761916.685    20761926.9544
  23852492.984    -5353563.196 8  -4149501.54446  23852494.211    23852506.6354
  22458239.255   -13678892.942 8 -10634989.39447  22458242.278    22458254.7164
  21523262.746   -17589469.431 8 -13668964.30647  21523266.760    21523279.9534
  22166095.873   -13434365.423 8 -10458521.56146  22166100.982    22166113.6704
  23379525.945    -5339072.059 7  -4145469.83645  23379530.032    23379545.0664
  20718594.334   -22129309.661 9 -17227272.80848  20718597.070    20718607.4954
 00  5 24  0 20 30.0000000  0  7 09 26 21 17 29 15 23
  20764690.163   -18081975.519 9 -14077249.56048  20764693.030    20764703.2704
  23870467.537    -5259106.226 8  -4075898.79445  23870468.798    23870481.0364
  22443606.065   -13755791.574 8 -10694910.38747  22443608.930    22443621.4054
  21540704.070   -17497834.518 8 -13597560.61447  21540704.064    21540717.3654
  22154265.441   -13496543.345 8 -10506971.85846  22154269.349    22154281.6054
  23361112.562    -5435833.726 8  -4220868.29345  23361117.775    23361130.9764
  20715759.408   -22144205.846 9 -17238880.23648  20715762.462    20715772.8504
 00  5 24  0 21  0.0000000  0  7 09 26 21 17 29 15 23
  20767586.185   -18066749.815 9 -14065385.41248  20767590.530    20767600.8434
  23888432.511    -5164660.101 8  -4002304.57345  23888440.693    23888453.1664
  22428988.956   -13832616.789 8 -10754774.08247  22428989.598    22429001.9834
  21558217.257   -17405778.122 8 -13525828.48547  21558222.685    21558234.9814
  22142476.276   -13558485.773 8 -10555238.64546  22142481.981    22142493.5094
  23342760.157    -5532293.438 8  -4296031.72345  23342762.138    23342772.7734
  20712972.994   -22158848.080 9 -17250289.78148  20712976.448    20712986.6354
 00  5 24  0 21 30.0000000  0  7 09 26 21 17 29 15 23
  20770605.195   -18050889.341 9 -14053026.64848  20770608.395    20770619.2694
  23906403.807    -5070225.686 8  -3928719.36245  23906411.045    23906423.6444
  22414381.997   -13909366.707 8 -10814579.08747  22414384.949    22414397.6724
  21575818.025   -17313302.929 8 -13453770.01847  21575820.190    21575832.9064
  22130733.733   -13620192.645 8 -10603321.89146  22130738.619    22130751.0734
  23324462.988    -5628448.050 8  -4370957.43145  23324463.339    23324477.3274
  20710235.230   -22173235.146 9 -17261500.48148  20710238.559    20710248.8154
 00  5 24  0 22  0.0000000  0  7 09 26 21 17 29 15 23
  20773745.236   -18034395.144 9 -14040174.07148  20773747.366    20773758.2704
  23924372.434    -4975804.092 8  -3855144.15145  23924379.616    23924391.7474
  22399788.977   -13986040.801 8 -10874325.00547  22399793.765    22399806.0644
  21593494.640   -17220411.399 8 -13381387.15147  21593496.819    21593509.3994
  22119038.128   -13681663.927 8 -10651221.56046  22119040.957    22119053.6734
  23306224.323    -5724294.378 8  -4445642.81345  23306225.384    23306238.3874
  20707546.810   -22187365.782 9 -17272511.37648  20707549.349    20707559.8994
 00  5 24  0 22 30.0000000  0  7 09 26 21 17 29 15 23
  20777002.551   -18017267.931 9 -14026828.23648  20777006.493    20777017.0734
  23942344.027    -4881396.428 8  -3781579.77845  23942343.923    23942357.2354
  22385214.917   -14062637.457 8 -10934010.56447  22385217.668    22385229.9934
  21611247.796   -17127106.224 8 -13308681.94947  21611252.026    21611264.8294
  22107384.105   -13742899.526 8 -10698937.57546  22107387.776    22107401.3604
  23288040.135    -5819829.498 8  -4520085.72146  23288046.091    23288058.4044
  20704906.711   -22201238.864 9 -17283321.58548  20704909.354    20704919.5144
 00  5 24  0 23  0.0000000  0  7 09 26 21 17 29 15 23
  20780381.790   -17999508.467 9 -14012989.74348  20780385.903    20780396.4534
  23960308.024    -4787003.893 8  -3708027.18145  23960306.290    23960319.4044
  22370652.674   -14139155.050 8 -10993634.51947  22370656.375    22370668.7704
  21629083.074   -17033389.864 8 -13235656.36447  21629085.650    21629098.9324
  22095777.908   -13803899.542 8 -10746469.99346  22095780.662    22095792.2594
  23269920.917    -5915051.112 8  -4594284.39046  23269925.172    23269937.5814
  20702314.511   -22214853.040 9 -17293930.04748  20702318.763    20702329.3124
 00  5 24  0 23 30.0000000  0  7 09 26 21 17 29 15 23
  20783882.320   -17981117.544 9 -13998659.21248  20783885.745    20783896.2344
  23978267.682    -4692627.618 8  -3634487.27545  23978265.083    23978278.5544
  22356108.563   -14215592.549 8 -11053196.10447  22356111.448    22356123.5374
  21646995.626   -16939265.236 8 -13162312.64647  21646997.670    21647009.7954
  22084216.048   -13864663.678 8 -10793818.63646  22084217.735    22084229.6074
  23251863.728    -6009956.123 8  -4668236.52046  23251867.211    23251878.1304
  20699775.679   -22228207.166 9 -17304335.88548  20699777.646    20699788.1914
 00  5 24  0 24  0.0000000  0  7 09 26 21 17 29 15 23
  20787500.990   -17962095.975 9 -13983837.26148  20787505.511    20787516.1384
  23996217.628    -4598268.709 8  -3560960.88245  23996221.723    23996234.0334
  22341577.254   -14291948.858 8 -11112694.42747  22341580.770    22341592.8744
  21664982.045   -16844734.968 8 -13088652.82847  21664986.265    21664998.9824
  22072695.937   -13925192.159 8 -10840983.63946  22072699.843    22072711.3874
  23233865.132    -6104541.040 8  -4741939.08446  23233867.213    23233879.2764
  20697283.585   -22241300.120 9 -17314538.21648  20697286.238    20697296.8884
 00  5 24  0 24 30.0000000  0  7 09 26 21 17 29 15 23
  20791241.663   -17942444.802 9 -13968524.70848  20791245.368    20791255.6844
  24014170.992    -4503928.115 8  -3487448.74945  24014174.181    24014185.3834
  22327065.753   -14368222.071 8 -11172127.99747  22327066.904    22327077.5394
  21683049.749   -16749801.742 8 -13014679.03347  21683051.810    21683064.5004
  22061221.614   -13985484.886 8 -10887964.93246  22061226.173    22061236.6454
  23215926.189    -6198803.816 8  -4815390.67646  23215929.770    23215942.7064
  20694842.622   -22254130.716 9 -17324536.11148  20694844.623    20694855.0734
 00  5 24  0 25  0.0000000  0  7 09 26 21 17 29 15 23
  20795101.558   -17922164.867 9 -13952722.20747  20795104.296    20795114.6514
  24032118.315    -4409606.791 8  -3413951.59045  24032123.328    24032135.0774
  22312564.872   -14444410.808 8 -11231495.77947  22312568.646    22312579.6004
  21701191.113   -16654468.195 8 -12940393.29747  21701193.055    21701205.1494
  22049794.586   -14045541.682 8 -10934762.38146  22049798.053    22049808.6784
  23198051.027    -6292740.436 8  -4888587.95546  23198054.848    23198065.8274
  20692450.146   -22266697.764 9 -17334328.65548  20692453.254    20692463.7114
 00  5 24  0 25 30.0000000  0  7 09 26 21 17 29 15 23
  20799078.135   -17901257.384 9 -13936430.71347  20799082.524    20799093.1864
  24050061.762    -4315306.065 7  -3340470.50445  24050067.028    24050079.7094
  22298082.322   -14520513.636 8 -11290796.60247  22298086.432    22298098.0704
  21719406.440   -16558737.097 8 -12865797.76547  21719410.208    21719422.7444
  22038407.220   -14105362.791 8 -10981376.16546  22038413.609    22038425.3544
  23180238.724    -6386349.268 8  -4961529.86746  23180241.419    23180253.2794
  20690108.843   -22279000.185 9 -17343914.99548  20690112.087    20690122.4784
 00  5 24  0 26  0.0000000  0  7 09 26 21 17 29 15 23
  20803177.067   -17879723.353 9 -13919650.98747  20803180.727    20803191.2524
  24068001.766    -4221026.879 7  -3267006.27445  24068006.754    24068021.0104
  22283618.328   -14596529.057 8 -11350029.31447  22283620.854    22283632.8844
  21737698.798   -16462611.205 8 -12790894.63447  21737702.478    21737715.2834
  22027072.310   -14164947.834 8 -11027806.01146  22027075.489    22027086.5964
  23162491.215    -6479626.497 8  -5034213.36846  23162490.660    23162503.1294
  20687818.302   -22291036.761 9 -17353294.15848  20687822.019    20687831.8834
 00  5 24  0 26 30.0000000  0  7 09 26 21 17 29 15 23
  20807395.603   -17857563.678 9 -13902383.74647  20807397.614    20807408.2084
  24085940.274    -4126770.250 7  -3193559.57545  24085943.843    24085956.6064
  22269168.180   -14672455.913 8 -11409192.99547  22269172.306    22269183.9924
  21756064.946   -16366093.060 8 -12715685.85046  21756068.969    21756081.8814
  22015775.036   -14224297.148 8 -11074052.16346  22015780.949    22015793.2674
  23144801.015    -6572569.737 8  -5106636.62146  23144804.037    23144816.9154
  20685578.592   -22302806.321 9 -17362465.26048  20685582.360    20685592.6694
 00  5 24  0 27  0.0000000  0  7 09 26 21 17 29 15 23
  20811730.388   -17834779.663 9 -13884630.00147  20811733.330    20811743.6114
  24103872.410    -4032537.087 7  -3120131.19745  24103876.209    24103888.4694
  22254738.655   -14748292.923 8 -11468286.70547  22254740.538    22254752.2874
  21774507.912   -16269185.461 8 -12640173.58446  21774509.690    21774523.0904
  22004528.279   -14283410.599 8 -11120114.53847  22004532.651    22004544.6244
  23127176.947    -6665175.885 8  -5178797.25946  23127180.919    23127194.6064
  20683391.223   -22314307.598 9 -17371427.31348  20683393.794    20683403.9744
 00  5 24  0 27 30.0000000  0  7 09 26 21 17 29 15 23
  20816182.382   -17811372.034 9 -13866390.32347  20816187.439    20816198.1624
  24121795.801    -3938328.567 7  -3046721.97345  24121804.848    24121816.5554
  22240323.192   -14824038.239 8 -11527308.94747  22240326.970    22240339.2024
  21793021.967   -16171891.067 8 -12564359.94346  21793024.590    21793037.8184
  21993325.355   -14342288.214 8 -11165993.15646  21993328.154    21993340.0084
  23109623.758    -6757442.304 8  -5250693.18046  23109623.936    23109637.4634
  20681252.148   -22325539.348 9 -17380179.36748  20681256.319    20681266.9054
 00  5 24  0 28  0.0000000  0  7 09 26 21 17 29 15 23
  20820756.862   -17787341.988 9 -13847665.63947  20820760.379    20820770.9944
  24139729.251    -3844145.569 8  -2973332.65245  24139727.567    24139737.9874
  22225927.951   -14899690.516 8 -11586258.72047  22225930.929    22225943.3794
  21811606.114   -16074212.587 8 -12488246.99646  21811612.442    21811625.5634
  21982163.219   -14400930.004 8 -11211688.00447  21982170.093    21982181.1854
  23092128.849    -6849365.923 8  -5322322.07146  23092132.906    23092144.9334
  20679167.621   -22336500.486 9 -17388720.53448  20679170.600    20679180.7574
 00  5 24  0 28 30.0000000  0  7 09 26 21 17 29 15 23
  20825447.738   -17762690.759 9 -13828456.91147  20825451.189    20825461.9504
  24157642.556    -3749989.124 8  -2899964.00945  24157644.321    24157656.8354
  22211549.636   -14975248.342 8 -11645134.89947  22211552.787    22211564.5864
  21830267.381   -15976152.798 8 -12411836.92346  21830273.111    21830285.5584
  21971053.426   -14459335.992 8 -11257199.11447  21971055.875    21971066.7534
  23074698.889    -6940943.684 8  -5393681.34646  23074704.200    23074718.8044
  20677133.913   -22347189.853 9 -17397049.92048  20677136.391    20677146.7854
 00  5 24  0 29  0.0000000  0  7 09 26 21 17 29 15 23
  20830256.458   -17737419.508 9 -13808765.05247  20830259.963    20830270.7704
  24175553.757    -3655860.371 7  -2826616.94545  24175556.020    24175569.7564
  22197191.097   -15050710.166 8 -11703936.31147  22197192.837    22197204.7764
  21849000.826   -15877714.463 8 -12335131.88246  21849005.277    21849018.0784
  21959982.619   -14517506.238 8 -11302526.52947  21959986.531    21959996.8204
  23057343.446    -7032172.787 8  -5464768.94946  23057344.188    23057357.1234
  20675151.260   -22357606.201 9 -17405166.57148  20675154.319    20675164.5134
 00  5 24  0 29 30.0000000  0  7 09 26 21 17 29 15 23
  20835183.533   -17711529.593 9 -13788591.11647  20835187.066    20835197.3154
  24193459.041    -3561760.156 7  -2753292.15145  24193463.624    24193476.9204
  22182847.369   -15126074.851 8 -11762662.02347  22182851.555    22182863.1724
  21867804.898   -15778900.464 8 -12258134.11546  21867808.881    21867821.3074
  21948957.500   -14575440.438 8 -11347670.01347  21948961.497    21948972.4094
  23040048.332    -7123050.171 8  -5535582.30546  23040051.215    23040063.2004
  20673221.626   -22367748.218 9 -17413069.46648  20673224.295    20673234.3644
 00  5 24  0 30  0.0000000  0  7 09 26 21 17 29 15 23
  20840230.190   -17685022.177 9 -13767936.00547  20840231.384    20840241.6164
  24211359.759    -3467689.536 7  -2679990.44945  24211364.508    24211378.1454
  22168527.016   -15201340.481 8 -11821310.52147  22168529.179    22168541.2114
  21886677.308   -15679713.729 8 -12180845.91346  21886683.390    21886696.7964
  21937974.778   -14633139.131 8 -11392629.99247  21937981.405    21937992.6444
  23022823.840    -7213573.646 8  -5606120.01446  23022824.568    23022837.6504
  20671343.540   -22377614.880 9 -17420757.79748  20671346.605    20671356.9694
 00  5 24  0 30 30.0000000  0  7 09 26 21 17 29 15 23
  20845386.885   -17657898.270 9 -13746800.49647  20845392.685    20845403.2214
  24229257.192    -3373649.288 7  -2606712.43145  24229259.089    24229272.5524
  22154222.352   -15276505.579 8 -11879880.68747  22154225.194    22154237.7954
  21905629.282   -15580157.080 8 -12103269.46746  21905628.939    21905642.0204
  21927041.217   -14690602.143 8 -11437406.30547  21927045.615    21927057.7304
  23005662.824    -7303740.129 8  -5676379.54346  23005666.337    23005679.3984
  20669520.832   -22387204.923 9 -17428230.55848  20669521.899    20669532.0904
 00  5 24  0 31  0.0000000  0  7 09 26 21 17 29 15 23
  20850670.955   -17630159.446 9 -13725185.84047  20850671.375    20850682.1454
  24247140.877    -3279640.585 7  -2533459.06345  24247147.729    24247161.4324
  22139936.956   -15351568.592 8 -11938371.30347  22139941.408    22139953.3214
  21924638.487   -15480233.398 8 -12025407.03446  21924643.844    21924656.9084
  21916151.169   -14747829.375 8 -11481998.88747  21916155.794    21916168.1424
  22988574.224    -7393546.496 8  -5746358.59446  22988577.343    22988589.9954
  20667746.810   -22396517.165 9 -17435486.87248  20667749.828    20667759.7894
 00  5 24  0 31 30.0000000  0  7 09 26 21 17 29 15 23
  20856062.111   -17601806.851 9 -13703092.92447  20856066.770    20856077.2544
  24265029.507    -3185664.209 7  -2460230.88245  24265031.731    24265044.9704
  22125671.689   -15426528.085 8 -11996781.24947  22125676.667    22125688.8214
  21943723.023   -15379945.444 8 -11947260.71546  21943728.133    21943740.9334
  21905307.592   -14804821.183 8 -11526408.03247  21905310.616    21905322.7334
  22971556.788    -7482989.893 8  -5816054.66246  22971556.889    22971568.0714
  20666028.184   -22405550.288 9 -17442525.67748  20666030.861    20666041.1854
 00  5 24  0 32  0.0000000  0  7 09 26 21 17 29 15 23
  20861575.755   -17572841.929 9 -13680522.86747  20861578.765    20861588.9904
  24282911.915    -3091721.161 7  -2387028.71945  24282908.609    24282921.6634
  22111429.114   -15501382.400 9 -12055109.25547  22111432.707    22111444.0884
  21962879.874   -15279296.069 8 -11868832.77046  21962881.580    21962893.8284
  21894509.062   -14861577.252 8 -11570633.48647  21894510.949    21894522.1314
  22954599.150    -7572067.395 8  -5885465.63346  22954606.324    22954616.2304
  20664360.606   -22414303.363 9 -17449346.25548  20664365.000    20664375.5284
 00  5 24  0 32 30.0000000  0  7 09 26 21 17 29 15 23
  20867205.614   -17543265.678 9 -13657476.46648  20867206.938    20867217.5754
  24300777.161    -2997812.325 7  -2313853.25445  24300779.526    24300791.0514
  22097205.628   -15576130.545 9 -12113354.55847  22097208.881    22097220.2504
  21982102.713   -15178287.927 8 -11790125.27946  21982101.989    21982115.1144
  21883751.415   -14918097.778 8 -11614675.40047  21883755.325    21883766.4504
  22937723.891    -7660776.199 8  -5954589.29446  22937725.109    22937736.5844
  20662750.879   -22422775.159 9 -17455947.65848  20662752.967    20662763.2724
 00  5 24  0 33  0.0000000  0  7 09 26 21 17 29 15 23
  20872948.487   -17513079.594 9 -13633954.86748  20872951.176    20872962.0014
  24318638.333    -2903938.564 7  -2240705.06845  24318642.877    24318655.7554
  22083003.167   -15650770.429 9 -12171515.50547  22083005.161    22083016.6104
  22001389.894   -15076923.817 8 -11711140.41046  22001391.040    22001404.1944
  21873039.768   -14974382.776 8 -11658533.79347  21873045.232    21873055.9474
  22920915.329    -7749114.020 8  -6023423.97546  22920915.828    22920926.5274
  20661190.430   -22430964.378 9 -17462328.87148  20661194.660    20661205.1504
 00  5 24  0 33 30.0000000  0  7 09 26 21 17 29 15 23
  20878808.442   -17482285.120 9 -13609959.20348  20878811.182    20878821.8254
  24336503.111    -2810100.862 7  -2167585.05345  24336499.509    24336513.8934
  22068818.882   -15725300.685 9 -12229591.03847  22068822.530    22068833.8744
  22020742.415   -14975206.669 8 -11631880.45146  22020747.382    22020760.6834
  21862376.733   -15030432.272 8 -11702208.65447  21862378.750    21862389.3464
  22904176.859    -7837077.601 8  -6091967.16446  22904177.271    22904188.1944
  20659687.347   -22438869.716 9 -17468488.87448  20659690.255    20659700.8414
 00  5 24  0 34  0.0000000  0  7 09 26 21 17 29 15 23
  20884783.437   -17450883.637 9 -13585490.54347  20884786.948    20884796.9324
  24354333.266    -2716299.959 7  -2094493.67445  24354349.472    24354363.3144
  22054658.937   -15799719.615 9 -12287579.80247  22054661.576    22054672.1844
  22040166.708   -14873139.299 8 -11552347.57146  22040170.414    22040183.3264
  21851754.276   -15086246.393 8 -11745700.11247  21851757.808    21851768.4924
  22887503.827    -7924663.581 8  -6160216.04546  22887508.655    22887521.0114
  20658236.828   -22446490.119 9 -17474426.83948  20658240.136    20658250.5004
 00  5 24  0 34 30.0000000  0  8 09 26 21 17 05 29 15 23
  20890874.415   -17418876.657 9 -13560550.06747  20890877.562    20890887.8594
  24372188.730    -2622536.725 7  -2021431.61745  24372191.365    24372204.9914
  22040517.489   -15874025.668 8 -12345480.61047  22040521.300    22040532.0274
  22059654.807   -14770724.565 8 -11472544.02946  22059659.292    22059673.4924
  24513738.374      -50515.97817
  21841176.773   -15141825.371 8 -11789008.32747  21841181.425    21841192.7294
  22870909.681    -8011869.832 8  -6228169.08346  22870914.962    22870925.7994
  20656841.517   -22453824.185 9 -17480141.69248  20656844.536    20656854.6794
 00  5 24  0 35  0.0000000  0  8 09 26 21 17 05 29 15 23
  20897080.863   -17386265.525 9 -13535138.81447  20897082.937    20897093.7164
  24390017.771    -2528812.016 7  -1948399.51645  24390027.375    24390041.4114
  22026399.076   -15948217.467 8 -12403292.37447  22026402.600    22026414.3434
  22079209.810   -14667965.315 8 -11392472.04546  22079214.207    22079227.5194
  24498425.588     -131040.140 7
  21830648.191   -15197168.981 8 -11832133.15947  21830649.976    21830661.1574
  22854390.877    -8098693.133 8  -6295823.68546  22854392.416    22854403.8844
  20655501.190   -22460871.107 9 -17485632.79148  20655503.787    20655513.7904
 00  5 24  0 35 30.0000000  0  8 09 26 21 17 05 29 15 23
  20903400.112   -17353051.684 9 -13509257.90247  20903403.260    20903413.8884
  24407848.970    -2435126.821 7  -1875398.20145  24407855.691    24407869.4034
  22012304.219   -16022293.326 9 -12461013.80747  22012306.481    22012317.4364
  22098830.934   -14564864.434 8 -11312133.85346  22098833.879    22098847.8524
  24483101.708     -211509.997 7
  21820157.513   -15252277.511 8 -11875074.82247  21820162.846    21820174.2424
  22837939.613    -8185130.787 8  -6363177.72346  22837944.017    22837955.9974
  20654214.389   -22467629.556 9 -17490899.09148  20654217.589    20654228.0694
 00  5 24  0 36  0.0000000  0  8 09 26 21 17 05 29 15 23
  20909833.194   -17319236.589 9 -13482908.48847  20909837.678    20909848.4944
  24425669.700    -2341481.893 7  -1802428.23945  24425675.769    24425689.5534
  21998230.452   -16096251.284 9 -12518643.36247  21998232.971    21998244.3484
  22118517.086   -14461424.887 8 -11231531.76746  22118517.837    22118531.2574
  24467801.232     -291922.584 7
  21809717.410   -15307150.833 8 -11917833.19547  21809720.501    21809731.7944
  22821568.356    -8271180.003 8  -6430229.08646  22821569.524    22821581.0194
  20652984.058   -22474098.536 9 -17495939.83448  20652986.231    20652996.9634
 00  5 24  0 36 30.0000000  0  8 09 26 21 17 05 29 15 23
  20916383.902   -17284821.924 9 -13456091.88347  20916387.118    20916397.4564
  24443486.804    -2247878.232 7  -1729490.42745  24443489.290    24443500.6014
  21984176.209   -16170090.082 8 -12576180.06747  21984181.500    21984192.9794
  22138259.688   -14357649.492 8 -11150667.98646  22138265.765    22138279.2564
  24452518.554     -372274.746 8    -88255.01555  24452519.300    24452538.9524
  21799321.227   -15361789.177 8 -11960408.46947  21799323.226    21799333.9774
  22805266.596    -8356837.790 8  -6496975.39446  22805270.009    22805281.0164
  20651807.413   -22480276.784 9 -17500754.03448  20651810.604    20651821.1714
 00  5 24  0 37  0.0000000  0  8 09 26 21 17 05 29 15 23
  20923046.170   -17249809.181 9 -13428809.24547  20923049.869    20923059.9934
  24461290.026    -2154316.460 7  -1656585.23545  24461293.780    24461304.6154
  21970150.510   -16243807.861 8 -12633622.44247  21970153.675    21970165.2484
  22158075.178   -14253541.277 8 -11069544.85646  22158077.091    22158090.5654
  24437239.041     -452563.539 7   -150817.55145  24437242.262    24437260.2494
  21788966.964   -15416192.511 8 -12002800.60147  21788970.426    21788981.8984
  22789041.215    -8442101.434 8  -6563414.58246  22789044.731    22789057.0704
  20650686.973   -22486162.895 9 -17505340.59548  20650690.435    20650700.7844
 00  5 24  0 37 30.0000000  0  8 09 26 21 17 05 29 15 23
  20929823.293   -17214200.217 9 -13401062.04547  20929826.043    20929836.6834
  24479080.640    -2060797.479 7  -1583713.36445  24479087.880    24479102.9654
  21956142.874   -16317403.389 8 -12690969.56147  21956148.339    21956160.9204
  22177949.801   -14149103.262 8 -10988164.72746  22177951.275    22177964.0864
  24421975.926     -532786.267 7   -213328.58145  24421974.797    24421991.8464
  21778657.900   -15470361.196 8 -12045009.88847  21778662.382    21778673.8134
  22772890.603    -8526968.191 8  -6629544.45646  22772894.130    22772907.6484
  20649623.952   -22491755.819 9 -17509698.72148  20649626.021    20649636.2374
 00  5 24  0 38  0.0000000  0  8 09 26 21 17 05 29 15 23
  20936712.395   -17177996.192 9 -13372851.16647  20936715.295    20936725.9424
  24496871.212    -1967322.204 7  -1510875.43045  24496875.836    24496889.4044
  21942163.037   -16390874.446 8 -12748219.68347  21942167.432    21942179.7144
  22197884.695   -14044338.187 8 -10906529.75746  22197887.283    22197900.6134
  24406716.700     -612939.606 8   -275785.56545  24406722.813    24406738.9504
  21768394.684   -15524295.161 8 -12087036.28047  21768399.441    21768410.2614
  22756817.851    -8611435.239 8  -6695362.91346  22756821.452    22756834.7424
  20648614.894   -22497054.176 9 -17513827.31448  20648617.891    20648628.0874
 00  5 24  0 38 30.0000000  0  8 09 26 21 17 05 29 15 23
  20943713.931   -17141198.999 9 -13344178.06747  20943717.515    20943728.1404
  24514651.579    -1873891.298 7  -1438072.16445  24514655.091    24514669.2584
  21928206.626   -16464220.140 8 -12805372.12447  21928210.197    21928222.4324
  22217877.786   -13939248.939 8 -10824642.17846  22217884.565    22217898.6424
  24391481.635     -693020.603 8   -338186.14945  24391483.503    24391501.2014
  21758177.188   -15577994.457 8 -12128879.80547  21758180.412    21758191.3934
  22740820.994    -8695499.616 8  -6760867.56646  22740823.080    22740837.5354
  20647663.787   -22502056.861 9 -17517725.50748  20647665.991    20647676.1954
 00  5 24  0 39  0.0000000  0  8 09 26 21 17 05 29 15 23
  20950826.913   -17103810.225 9 -13315043.99847  20950832.556    20950843.3104
  24532423.689    -1780505.695 7  -1365304.19545  24532426.678    24532438.9554
  21914273.034   -16537438.535 8 -12862425.36947  21914277.121    21914289.5544
  22237936.109   -13833838.402 8 -10742504.25946  22237943.587    22237958.0244
  24376259.574     -773026.324 8   -400528.03745  24376258.766    24376276.6824
  21748003.690   -15631459.341 9 -12170540.67747  21748006.795    21748017.3174
  22724900.274    -8779158.664 8  -6826056.34946  22724903.978    22724918.1124
  20646766.870   -22506762.927 9 -17521392.57448  20646770.610    20646780.7074
 00  5 24  0 39 30.0000000  0  8 09 26 21 17 05 29 15 23
  20958056.387   -17065831.516 9 -13285450.23647  20958059.526    20958070.2044
  24550183.210    -1687166.225 7  -1292572.14645  24550188.039    24550200.5024
  21900364.868   -16610527.741 9 -12919377.94547  21900369.025    21900380.5574
  22258061.600   -13728109.807 8 -10660118.50346  22258062.912    22258078.1004
  24361049.245     -852953.861 8   -462808.98645  24361049.556    24361067.0404
  21737875.020   -15684689.696 8 -12212018.81047  21737877.636    21737887.7244
  22709057.678    -8862409.665 8  -6890927.22546  22709062.031    22709074.9684
  20645927.736   -22511171.317 9 -17524827.69048  20645931.714    20645941.8714
 00  5 24  0 40  0.0000000  0  8 09 26 21 17 05 29 15 23
  20965392.497   -17027264.528 9 -13255398.07647  20965398.519    20965409.2614
  24567928.810    -1593873.644 7  -1219876.68145  24567939.711    24567954.7794
  21886481.561   -16683486.063 9 -12976228.53347  21886485.474    21886496.9354
  22278237.080   -13622066.015 8 -10577487.12246  22278243.212    22278257.5684
  24345849.249     -932800.115 7   -525026.61545  24345854.505    24345870.6714
  21727788.717   -15737685.867 8 -12253314.45147  21727791.654    21727803.6344
  22693296.244    -8945249.932 8  -6955478.10246  22693298.567    22693310.5904
  20645148.218   -22515280.563 9 -17528029.70348  20645149.898    20645160.0174
 00  5 24  0 40 30.0000000  0  8 09 26 21 17 05 29 15 23
  20972846.110   -16988110.939 9 -13224888.81747  20972849.295    20972860.3164
  24585673.071    -1500628.742 7  -1147218.31345  24585686.008    24585697.3694
  21872626.123   -16756312.049 9 -13032976.01247  21872627.615    21872638.4714
  22298478.710   -13515709.863 8 -10494612.33346  22298482.162    22298495.7504
  24330666.127    -1012562.326 7   -587178.74445  24330675.710    24330694.1954
  21717748.195   -15790447.657 8 -12294427.46147  21717751.838    21717763.1074
  22677609.471    -9027676.407 8  -7019706.51646  22677612.863    22677626.1244
  20644421.377   -22519089.403 9 -17530997.64148  20644425.044    20644435.2314
 00  5 24  0 41  0.0000000  0  8 09 26 21 17 05 29 15 23
  20980408.430   -16948372.438 9 -13193923.79547  20980411.355    20980422.3384
  24603411.040    -1407432.222 7  -1074597.71845  24603419.069    24603432.8374
  21858792.395   -16829003.984 9 -13089619.04647  21858794.935    21858805.9804
  22318774.080   -13409044.279 8 -10411496.43946  22318779.901    22318794.3914
  24315512.985    -1092237.369 7   -649262.97845  24315514.039    24315531.9584
  21707752.829   -15842975.405 8 -12335358.09147  21707755.962    21707768.2834
  22662004.864    -9109686.443 8  -7083610.48446  22662007.575    22662018.8754
  20643755.607   -22522596.833 9 -17533730.71348  20643757.423    20643767.9084
 00  5 24  0 41 30.0000000  0  8 09 26 21 17 05 29 15 23
  20988082.718   -16908050.677 9 -13162504.28847  20988084.285    20988095.1244
  24621136.678    -1314284.973 7  -1002015.46345  24621145.807    24621158.9444
  21844986.164   -16901560.464 9 -13146156.51947  21844987.536    21844999.1514
  22339131.286   -13302072.216 8 -10328141.73546  22339135.812    22339150.5204
  24300364.000    -1171822.181 7   -711276.89045  24300370.185    24300386.8524
  21697802.212   -15895269.180 8 -12376106.41747  21697804.677    21697815.8624
  22646476.532    -9191277.469 8  -7147187.96346  22646481.399    22646493.3484
  20643144.551   -22525801.475 9 -17536227.85648  20643147.790    20643158.1244
 00  5 24  0 42  0.0000000  0  8 09 26 21 17 05 29 15 23
  20995864.211   -16867147.658 9 -13130631.86447  20995867.782    20995878.9544
  24638854.642    -1221187.629 7   -929472.14745  24638860.567    24638874.4184
  21831203.129   -16973979.187 9 -13202586.66047  21831206.500    21831217.9034
  22359545.384   -13194796.527 8 -10244550.43246  22359550.103    22359564.8954
  24285235.582    -1251313.833 7   -773218.16345  24285242.568    24285260.6114
  21687895.649   -15947329.307 8 -12416672.68247  21687897.914    21687909.4664
  22631035.327    -9272446.429 8  -7210436.55746  22631035.091    22631047.8654
  20642591.675   -22528702.310 9 -17538488.25948  20642595.684    20642605.9774
 00  5 24  0 42 30.0000000  0  8 09 26 21 17 05 29 15 23
  21003758.905   -16825665.163 9 -13098307.88347  21003761.773    21003772.6754
  24656569.611    -1128140.800 7   -856968.18045  24656566.672    24656581.4994
  21817450.811   -17046258.271 9 -13258907.98247  21817451.992    21817463.5414
  22380020.041   -13087220.233 8 -10160724.90346  22380021.675    22380035.9144
  24270135.701    -1330709.201 7   -835084.43645  24270132.773    24270151.5804
  21678028.395   -15999155.726 8 -12457056.83447  21678035.098    21678047.1674
  22615663.345    -9353190.558 8  -7273354.07546  22615668.965    22615681.6114
  20642097.939   -22531298.306 9 -17540511.12048  20642101.608    20642112.0464
 00  5 24  0 43  0.0000000  0  8 09 26 21 17 05 29 15 23
  21011762.076   -16783604.849 9 -13065533.67147  21011765.990    21011776.4284
  24674263.834    -1035145.386 7   -784504.27045  24674264.838    24674276.8714
  21803722.007   -17118396.140 9 -13315119.27647  21803724.732    21803736.3374
  22400550.684   -12979346.227 8 -10076667.37346  22400550.051    22400563.7174
  24255042.697    -1410005.404 8   -896873.46345  24255044.541    24255061.4924
  21668215.346   -16050748.500 8 -12497258.94647  21668217.270    21668228.7434
  22600384.150    -9433507.332 8  -7335938.62946  22600386.478    22600399.0694
  20641662.954   -22533588.239 9 -17542295.50348  20641665.836    20641676.3244
 00  5 24  0 43 30.0000000  0  8 09 26 21 17 05 29 15 23
  21019875.297   -16740968.568 9 -13032310.64647  21019879.276    21019890.5414
  24691946.887     -942202.064 7   -712080.92745  24691949.245    24691963.6844
  21790018.688   -17190391.506 9 -13371219.52247  21790023.840    21790035.9244
  22421129.248   -12871177.789 8  -9992380.40646  22421133.728    22421147.8454
  24239969.078    -1489199.405 8   -958582.82645  24239973.800    24239991.2174
  21658439.533   -16102107.964 8 -12537279.24247  21658444.134    21658455.0584
  22585178.319    -9513394.090 8  -7398188.06046  22585183.824    22585196.3424
  20641285.868   -22535570.955 9 -17543840.49048  20641288.532    20641299.1724
 00  5 24  0 44  0.0000000  0  8 09 26 21 17 05 29 15 23
  21028097.874   -16697758.281 9 -12998640.35247  21028101.615    21028113.0554
  24709623.966     -849311.625 7   -639698.78045  24709626.742    24709640.2174
  21776348.303   -17262242.399 9 -13427207.19747  21776351.380    21776363.1524
  22441769.358   -12762717.690 8  -9907866.20146  22441772.914    22441786.8584
  24224922.886    -1568288.229 7  -1020210.22645  24224924.061    24224941.9854
  21648712.851   -16153233.897 8 -12577117.57947  21648715.114    21648726.8944
  22570063.341    -9592848.133 8  -7460100.39846  22570064.490    22570076.2284
  20640967.346   -22537245.488 9 -17545145.34548  20640970.239    20640980.5254
 00  5 24  0 44 30.0000000  0  8 09 26 21 17 05 29 15 23
  21036429.149   -16653975.966 9 -12964524.32147  21036433.497    21036444.4124
  24727291.936     -756474.657 7   -567358.26645  24727292.927    24727306.3674
  21762703.516   -17333947.170 9 -13483081.00547  21762706.419    21762718.0744
  22462465.961   -12653968.845 8  -9823126.97546  22462467.102    22462481.6164
  24209889.015    -1647268.853 8  -1081753.28945  24209893.049    24209911.5554
  21639028.350   -16204126.894 8 -12616774.40447  21639030.833    21639041.9784
  22555027.340    -9671866.528 8  -7521673.26846  22555027.360    22555039.6674
  20640706.848   -22538610.435 9 -17546208.97048  20640710.373    20640720.9544
 00  5 24  0 45  0.0000000  0  8 09 26 21 17 05 29 15 23
  21044869.082   -16609623.153 9 -12929963.73947  21044873.898    21044884.4094
  24744938.041     -663691.992 7   -495060.04745  24744949.223    24744962.9984
  21749087.260   -17405503.661 9 -13538839.26047  21749090.021    21749100.9034
  22483209.668   -12544934.247 8  -9738165.10346  22483215.841    22483230.5364
  24194881.378    -1726138.270 8  -1143209.73545  24194886.344    24194902.5064
  21629387.234   -16254786.628 8 -12656249.48047  21629390.904    21629402.0934
  22540070.775    -9750446.614 8  -7582904.61146  22540075.254    22540086.0644
  20640508.534   -22539664.672 9 -17547030.48148  20640509.693    20640520.1054
 00  5 24  0 45 30.0000000  0  8 09 26 21 17 05 29 15 23
  21053418.643   -16564701.846 9 -12894960.16947  21053422.173    21053432.8264
  24762598.239     -570964.170 7   -422804.59145  24762594.681    24762607.9494
  21735500.463   -17476910.436 9 -13594480.85747  21735501.866    21735512.6484
  22504020.301   -12435617.110 8  -9652983.06146  22504018.560    22504031.7514
  24179894.958    -1804893.302 8  -1204577.05945  24179898.354    24179915.5334
  21619793.046   -16305213.761 8 -12695543.30547  21619794.875    21619806.0384
  22525202.381    -9828585.645 8  -7643792.26146  22525205.034    22525217.6694
  20640364.842   -22540407.139 9 -17547609.05848  20640368.151    20640378.8874
 00  5 24  0 46  0.0000000  0  8 09 26 21 17 05 29 15 23
  21062076.417   -16519214.152 9 -12859515.26947  21062077.900    21062089.0124
  24780224.779     -478292.018 7   -350592.47845  24780228.928    24780242.9544
  21721938.437   -17548165.965 9 -13650004.60647  21721942.118    21721953.4604
  22524865.315   -12326020.450 8  -9567583.20446  22524874.034    22524888.2534
  24164934.226    -1883530.826 8  -1265852.81245  24164934.710    24164951.2724
  21610238.065   -16355408.176 8 -12734655.79647  21610242.527    21610254.6644
  22510420.484    -9906281.173 8  -7704334.31146  22510420.660    22510432.9074
  20640283.319   -22540836.584 9 -17547943.72348  20640286.609    20640297.2494
 00  5 24  0 46 30.0000000  0  7 09 21 17 05 29 15 23
  21070836.576   -16473161.878 9 -12823630.44847  21070841.499    21070852.5234
  21708409.750   -17619268.073 9 -13705408.82147  21708411.708    21708423.2974
  22545781.828   -12216147.186 8  -9481967.83346  22545782.685    22545797.1014
  24149990.556    -1962048.094 8  -1327034.82945  24149993.168    24150009.7904
  21600732.894   -16405369.827 9 -12773586.90047  21600735.390    21600747.4384
  22495718.049    -9983530.391 8  -7764528.58446  22495720.760    22495732.4564
  20640261.063   -22540951.880 9 -17548033.60448  20640264.853    20640275.4334
 00  5 24  0 47  0.0000000  0  7 09 21 17 05 29 15 23
  21079707.701   -16426547.029 9 -12787307.24747  21079712.607    21079722.8144
  21694908.406   -17690214.896 9 -13760692.03147  21694910.686    21694922.9644
  22566743.734   -12106000.330 8  -9396139.26446  22566743.505    22566756.9544
  24135071.111    -2040442.099 8  -1388120.81145  24135074.696    24135091.4684
  21591269.646   -16455099.172 8 -12812336.99247  21591272.199    21591283.4794
  22481103.518   -10060330.556 8  -7824372.94846  22481106.659    22481117.7224
  20640300.271   -22540752.043 9 -17547877.93448  20640302.763    20640313.5404
 00  5 24  0 47 30.0000000  0  7 09 21 17 05 29 15 23
  21088688.253   -16379371.592 9 -12750547.23347  21088689.591    21088699.9734
  21681435.858   -17761004.657 9 -13815852.85247  21681439.986    21681451.9394
  22587749.173   -11995582.763 8  -9310099.74146  22587754.722    22587768.6624
  24120181.587    -2118709.708 8  -1449108.31545  24120180.715    24120197.0524
  21581849.570   -16504596.204 8 -12850906.06447  21581853.099    21581864.4644
  22466574.433   -10136679.019 8  -7883865.30646  22466577.095    22466589.9914
  20640396.964   -22540235.765 9 -17547475.68748  20640400.693    20640411.7394
 00  5 24  0 48  0.0000000  0  7 09 21 17 05 29 15 23
  21097771.809   -16331637.625 9 -12713352.01447  21097773.056    21097783.6394
  21667995.088   -17831635.959 9 -13870890.19847  21667998.571    21668011.1154
  22608812.447   -11884897.730 8  -9223851.79946  22608817.910    22608832.2634
  24105310.207    -2196847.730 8  -1509994.83245  24105311.383    24105328.3174
  21572473.470   -16553861.263 8 -12889294.37247  21572478.034    21572489.8664
  22452132.352   -10212573.293 8  -7943003.74546  22452135.422    22452148.4404
  20640556.518   -22539402.084 9 -17546826.11748  20640559.736    20640570.4134
 00  5 24  0 48 30.0000000  0  7 09 21 17 05 29 15 23
  21106958.819   -16283346.928 9 -12675722.97747  21106961.956    21106973.6644
  21654585.753   -17902106.902 9 -13925802.56147  21654588.540    21654600.3984
  22629927.187   -11773948.177 8  -9137397.75346  22629930.310    22629945.2074
  24090456.182    -2274853.196 8  -1570778.07245  24090466.971    24090483.6584
  21563144.120   -16602894.371 8 -12927501.93247  21563147.540    21563158.3754
  22437780.313   -10288010.631 8  -8001786.08846  22437780.515    22437791.0934
  20640776.408   -22538249.782 9 -17545928.27148  20640779.082    20640789.7954
 00  5 24  0 49  0.0000000  0  7 09 21 17 05 29 15 23
  21116251.567   -16234501.531 9 -12637661.71547  21116256.952    21116268.4994
  21641204.828   -17972415.413 9 -13980588.36247  21641209.134    21641221.0744
  22651091.108   -11662736.991 8  -9050739.85646  22651093.697    22651107.7384
  24075639.117    -2352723.149 8  -1631455.73445  24075648.329    24075665.2174
  21553857.877   -16651695.672 9 -12965528.88247  21553861.268    21553872.0694
  22423509.224   -10362988.496 8  -8060210.40146  22423512.549    22423523.7344
  20641055.908   -22536777.714 9 -17544781.25448  20641059.318    20641070.0064
 00  5 24  0 49 30.0000000  0  7 09 21 17 05 29 15 23
  21125657.431   -16185103.682 9 -12599169.96147  21125657.263    21125668.4204
  21627860.302   -18042559.297 9 -14035245.86847  21627861.851    21627873.1614
  22672299.827   -11551267.187 8  -8963880.41246  22672306.056    22672319.4704
  24060858.929    -2430454.550 8  -1692025.42945  24060857.213    24060873.1664
  21544616.095   -16700265.402 9 -13003375.37147  21544618.703    21544629.4714
  22409327.256   -10437504.190 8  -8118274.57646  22409331.622    22409342.9794
  20641398.451   -22534984.745 9 -17543384.19448  20641400.678    20641411.1334
 00  5 24  0 50  0.0000000  0  7 09 21 17 05 29 15 23
  21135159.405   -16135155.417 9 -12560249.30747  21135162.150    21135173.6284
  21614541.740   -18112537.155 9 -14089774.00747  21614545.374    21614556.4854
  22693560.252   -11439541.877 8  -8876821.85746  22693566.710    22693580.4164
  24046088.788    -2508044.385 8  -1752484.82745  24046091.847    24046107.7654
  21535413.470   -16748603.898 9 -13041041.69247  21535420.242    21535430.2104
  22395238.152   -10511554.910 8  -8175976.46646  22395240.595    22395251.9654
  20641799.957   -22532869.928 9 -17541736.33448  20641803.082    20641813.6384
 00  5 24  0 50 30.0000000  0  7 09 21 17 05 29 15 23
  21144768.110   -16084658.675 9 -12520901.27347  21144771.210    21144782.7094
  21601257.036   -18182347.146 9 -14144171.32947  21601260.846    21601271.8454
  22714868.162   -11327564.081 8  -8789566.57846  22714874.684    22714889.6824
  24031353.787    -2585489.607 8  -1812831.54545  24031354.958    24031370.9304
  21526261.584   -16796710.964 9 -13078527.68747  21526265.851    21526276.0134
  22381236.025   -10585138.174 8  -8233314.09946  22381238.354    22381249.4034
  20642264.929   -22530432.047 9 -17539836.74248  20642267.180    20642277.4984
 00  5 24  0 51  0.0000000  0  7 09 21 17 05 29 15 23
  21154479.145   -16033615.760 9 -12481127.63647  21154484.521    21154496.2814
  21588007.877   -18251987.174 9 -14198436.21347  21588008.782    21588019.5854
  22736223.661   -11215336.711 8  -8702116.81646  22736231.092    22736244.9004
  24016645.445    -2662787.306 7  -1873063.27245  24016643.620    24016662.0954
  21517149.953   -16844587.017 9 -13115833.65347  21517155.180    21517165.8504
  22367319.374   -10658251.469 8  -8290285.50946  22367324.955    22367336.6024
  20642789.539   -22527670.132 9 -17537684.65448  20642792.596    20642803.1504
 00  5 24  0 51 30.0000000  0  7 09 21 17 05 29 15 23
  21164299.782   -15982028.487 9 -12440929.81847  21164301.200    21164312.8194
  21574785.303   -18321455.720 9 -14252567.45647  21574789.701    21574800.5334
  22757634.303   -11102862.923 8  -8614475.06846  22757633.970    22757649.8534
  24001961.347    -2739934.235 7  -1933177.55945  24001963.691    24001980.6144
  21508085.149   -16892232.312 9 -13152959.80347  21508088.716    21508098.9544
  22353500.373   -10730892.205 8  -8346888.66646  22353501.798    22353512.9864
  20643377.276   -22524582.842 9 -17535279.02848  20643380.079    20643390.7704
 00  5 24  0 52  0.0000000  0  7 09 21 17 05 29 15 23
  21174216.695   -15929899.126 9 -12400309.58447  21174221.395    21174232.9454
  21561600.168   -18390751.023 9 -14306563.70547  21561602.947    21561614.0664
  22779079.155   -10990145.683 8  -8526643.61546  22779084.267    22779098.5684
  23987317.052    -2816927.408 7  -1993172.06745  23987312.678    23987327.5604
  21499061.239   -16939646.839 9 -13189906.13747  21499065.672    21499076.2224
  22339764.945   -10803057.740 8  -8403121.54346  22339769.462    22339781.4994
  20644027.402   -22521169.247 9 -17532619.14648  20644029.682    20644040.4704
 00  5 24  0 52 30.0000000  0  7 09 21 17 05 29 15 23
  21184241.227   -15877230.034 9 -12359268.77247  21184244.354    21184255.0434
  21548445.789   -18459871.153 9 -14360423.45447  21548449.512    21548461.1664
  22800578.418   -10877188.049 8  -8438624.82746  22800579.474    22800593.7994
  23972692.429    -2893763.882 7  -2053044.45145  23972691.873    23972707.5414
  21490083.672   -16986830.823 9 -13226672.82647  21490086.408    21490096.6784
  22326123.958   -10874745.564 8  -8458982.18746  22326127.929    22326140.0284
  20644740.414   -22517428.315 9 -17529704.18548  20644741.810    20644752.3324
 00  5 24  0 53  0.0000000  0  7 09 21 17 05 29 15 23
  21194365.233   -15824023.226 9 -12317808.95347  21194368.895    21194379.8154
  21535324.502   -18528814.056 9 -14414145.11047  21535329.757    21535341.2204
  22822119.805   -10763992.954 8  -8350421.02846  22822119.409    22822134.4504
  23958092.095    -2970440.413 7  -2112792.22145  23958098.610    23958117.7784
  21481147.430   -17033784.457 9 -13263260.03747  21481151.670    21481162.0794
  22312575.454   -10945952.878 8  -8514468.39446  22312577.446    22312589.6184
  20645514.268   -22513358.865 9 -17526533.23348  20645516.616    20645526.8394
 00  5 24  0 53 30.0000000  0  7 09 21 17 05 29 15 23
  21204591.756   -15770280.950 9 -12275931.87047  21204595.653    21204607.0464
  21522239.399   -18597577.775 9 -14467727.14547  21522243.784    21522256.0144
  22843706.875   -10650563.759 8  -8262034.81546  22843704.985    22843719.7204
  23943531.608    -3046954.042 7  -2172413.01345  23943540.744    23943555.2504
  21472257.169   -17080508.093 9 -13299668.02547  21472260.504    21472271.0914
  22299115.033   -11016677.588 8  -8569578.57046  22299118.949    22299131.5844
  20646352.141   -22508959.920 9 -17523105.52848  20646353.635    20646364.0884
 00  5 24  0 54  0.0000000  0  7 09 21 17 05 29 15 23
  21214920.913   -15716005.430 9 -12233639.28747  21214924.344    21214935.4534
  21509189.437   -18666160.272 9 -14521167.94547  21509193.200    21509205.1134
  22865321.803   -10536903.326 8  -8173468.41646  22865332.838    22865348.1284
  23929001.284    -3123301.712 7  -2231904.59945  23929010.108    23929029.1184
  21463410.532   -17127001.771 9 -13335896.83247  21463413.418    21463423.2024
  22285751.647   -11086917.313 8  -8624310.81846  22285753.019    22285765.2234
  20647251.125   -22504230.158 9 -17519420.04548  20647253.743    20647264.1154
 00  5 24  0 54 30.0000000  0  7 09 21 17 05 29 15 23
  21225351.723   -15661198.806 9 -12190932.84647  21225354.115    21225365.1544
  21496175.470   -18734559.894 9 -14574466.25347  21496177.472    21496188.7914
  22886997.360   -10423014.920 8  -8084724.36746  22887005.551    22887020.0904
  23914507.529    -3199480.524 7  -2291264.56045  23914514.034    23914530.4634
  21454604.854   -17173265.599 9 -13371946.53747  21454609.431    21454619.9174
  22272476.645   -11156669.189 8  -8678662.92646  22272479.960    22272492.0814
  20648212.949   -22499168.646 9 -17515476.04648  20648216.730    20648226.8754
 00  5 24  0 55  0.0000000  0  7 09 21 17 05 29 15 23
  21235879.840   -15605863.225 9 -12147814.23047  21235884.115    21235894.9334
  21483194.463   -18802774.604 9 -14627620.47047  21483196.849    21483208.0834
  22908717.435   -10308901.468 8  -7995804.97446  22908720.832    22908736.1044
  23900054.303    -3275487.175 7  -2350490.35745  23900050.057    23900067.0554
  21445847.113   -17219299.790 9 -13407817.30947  21445849.537    21445859.9294
  22259295.948   -11225930.850 8  -8732633.03046  22259300.300    22259312.3344
  20649239.109   -22493774.274 9 -17511272.66848  20649243.008    20649253.6164
 00  5 24  0 55 30.0000000  0  7 09 21 17 05 29 15 23
  21246508.809   -15550001.329 9 -12104285.48447  21246513.986    21246525.1204
  21470250.372   -18870802.688 9 -14680629.26047  21470251.228    21470263.1534
  22930472.717   -10194565.711 8  -7906712.33845  22930478.357    22930492.4064
  23885613.284    -3351318.594 7  -2409579.69145  23885621.139    23885636.8444
  21437128.011   -17265104.866 9 -13443509.53147  21437132.839    21437143.7414
  22246208.130   -11294699.915 8  -8786219.30146  22246213.575    22246226.1374
  20650331.019   -22488046.096 9 -17506809.18348  20650333.369    20650343.7544
 00  5 24  0 56  0.0000000  0  7 09 21 17 05 29 15 23
  21257240.483   -15493615.196 9 -12060348.24747  21257243.560    21257255.1904
  21457337.458   -18938642.161 9 -14733491.10247  21457341.707    21457353.5144
  22952274.595   -10080010.828 8  -7817448.95045  22952277.822    22952292.2454
  23871222.460    -3426971.876 7  -2468530.14945  23871223.782    23871238.5304
  21428455.918   -17310680.610 9 -13479023.03147  21428459.698    21428470.5584
  22233216.501   -11362973.783 8  -8839419.73846  22233221.228    22233233.5824
  20651484.710   -22481983.084 9 -17502084.79548  20651486.799    20651497.4644
 00  5 24  0 56 30.0000000  0  7 09 21 17 05 29 15 23
  21268066.738   -15436707.083 9 -12016004.27347  21268072.683    21268084.0694
  21444464.956   -19006291.100 9 -14786204.45847  21444468.333    21444480.0884
  22974116.592    -9965240.046 8  -7728017.32645  22974117.984    22974132.7504
  23856850.597    -3502443.907 7  -2527339.47345  23856862.901    23856878.6954
  21419828.618   -17356027.439 9 -13514358.17347  21419830.919    21419841.0274
  22220321.312   -11430749.937 8  -8892232.34246  22220323.582    22220336.7764
  20652701.977   -22475584.142 9 -17497098.62848  20652704.508    20652715.2794
 00  5 24  0 57  0.0000000  0  7 09 21 17 05 29 15 23
  21278995.385   -15379279.263 9 -11971255.32947  21279000.840    21279011.9404
  21431629.288   -19073747.278 9 -14838767.63247  21431632.380    21431643.8224
  22995994.007    -9850256.254 8  -7638419.75345  22995997.827    22996013.4574
  23842535.331    -3577731.732 7  -2586005.21745  23842533.804    23842550.5834
  21411241.874   -17401145.677 9 -13549515.19747  21411245.286    21411255.2964
  22207517.730   -11498026.163 8  -8944655.34646  22207521.808    22207534.8084
  20653982.576   -22468848.118 9 -17491849.79748  20653986.550    20653996.9534
 00  5 24  0 57 30.0000000  0  7 09 21 17 05 29 15 23
  21290022.903   -15321334.022 9 -11926103.18247  21290027.804    21290038.6814
  21418828.235   -19141008.600 9 -14891178.94647  21418832.813    21418844.4514
  23017913.951    -9735062.532 8  -7548658.60245  23017918.870    23017934.5104
  23828237.792    -3652832.339 8  -2644525.02745  23828243.533    23828259.3844
  21402700.040   -17446035.284 9 -13584494.07347  21402702.928    21402712.9594
  22194810.753   -11564799.814 8  -8996686.74346  22194815.485    22194826.8344
  20655329.598   -22461773.984 9 -17486337.49348  20655332.780    20655343.1734
 00  5 24  0 58  0.0000000  0  7 09 21 17 05 29 15 23
  21301147.620   -15262873.558 9 -11880549.56347  21301152.499    21301163.0944
  21406068.814   -19208073.555 9 -14943437.27947  21406070.779    21406081.6864
  23039871.730    -9619661.922 8  -7458736.20245  23039879.221    23039894.8924
  23813987.101    -3727742.532 8  -2702896.51545  23813989.186    23814004.7664
  21394201.121   -17490696.521 9 -13619294.99547  21394204.456    21394214.3804
  22182202.081   -11631068.577 8  -9048324.72946  22182205.359    22182216.6524
  20656740.766   -22454360.751 9 -17480560.96848  20656743.371    20656753.9814
 00  5 24  0 58 30.0000000  0  7 09 21 17 05 29 15 23
  21312372.920   -15203900.409 9 -11834596.45547  21312374.540    21312385.6524
  21393341.891   -19274939.749 9 -14995540.73347  21393346.466    21393357.8954
  23061871.283    -9504057.428 7  -7368654.96345  23061877.524    23061893.9474
  23799763.501    -3802459.525 7  -2761117.45045  23799770.959    23799786.4064
  21385746.201   -17535129.671 9 -13653918.17447  21385748.368    21385759.2104
  22169689.220   -11696830.090 8  -9099567.45246  22169691.733    22169702.8714
  20658216.223   -22446607.591 9 -17474519.56948  20658218.596    20658229.3254
 00  5 24  0 59  0.0000000  0  7 09 21 17 05 29 15 23
  21323691.257   -15144416.931 9 -11788245.70047  21323694.001    21323705.2434
  21380657.021   -19341605.769 9 -15047488.19947  21380659.923    21380671.4424
  23083908.527    -9388252.240 8  -7278417.34345  23083915.466    23083930.5004
  23785588.193    -3876980.118 8  -2819185.36045  23785589.553    23785605.4704
  21377332.884   -17579334.861 9 -13688363.71947  21377336.625    21377347.3214
  22157271.823   -11762081.851 8  -9150412.94046  22157273.758    22157285.8324
  20659755.741   -22438513.319 9 -17468212.37248  20659758.938    20659769.6344
 00  5 24  0 59 30.0000000  0  7 09 21 17 05 29 15 23
  21335106.223   -15084425.271 9 -11741498.94947  21335109.829    21335121.6274
  21368008.640   -19408069.356 9 -15099277.94447  21368012.574    21368023.2564
  23105982.068    -9272249.336 8  -7188025.64645  23105989.580    23106005.3104
  23771439.037    -3951301.161 8  -2877097.76345  23771446.228    23771462.9514
  21368962.971   -17623312.376 9 -13722631.84447  21368967.089    21368978.8154
  22144949.357   -11826821.540 8  -9200859.42746  22144953.650    22144966.1754
  20661362.415   -22430076.856 9 -17461638.53348  20661364.391    20661375.0294
 00  5 24  1  0  0.0000000  0  7 09 21 17 05 29 15 23
  21346618.359   -15023927.860 9 -11694358.10147  21346621.798    21346633.5454
  21355401.332   -19474328.749 9 -15150908.56847  21355404.059    21355414.9274
  23128098.107    -9156051.940 8  -7097482.40445  23128101.668    23128117.0484
  23757344.634    -4025419.720 8  -2934852.38545  23757342.882    23757359.3204
  21360637.954   -17667062.398 9 -13756722.70647  21360641.901    21360653.5274
  22132732.224   -11891047.014 8  -9250905.19346  22132732.156    22132744.7294
  20663031.041   -22421297.166 9 -17454797.23948  20663034.904    20663045.8534
 00  5 24  1  0 30.0000000  0  7 09 21 17 05 29 15 23
  21358224.819   -14962927.245 9 -11646825.13247  21358230.081    21358241.6584
  21342830.910   -19540381.501 9 -15202378.18047  21342834.899    21342844.9164
  23150243.167    -9039663.072 8  -7006789.95745  23150249.407    23150265.4364
  23743268.988    -4099332.984 8  -2992447.05045  23743277.501    23743293.8284
  21352355.502   -17710585.119 9 -13790636.45347  21352359.758    21352371.6204
  22120604.106   -11954756.057 8  -9300548.56846  22120607.834    22120621.0194
  20664767.730   -22412173.168 9 -17447687.65548  20664771.017    20664781.9874
 00  5 24  1  1  0.0000000  0  7 09 21 17 05 29 15 23
  21369931.333   -14901425.773 9 -11598901.89447  21369933.516    21369944.4804
  21330303.624   -19606225.885 9 -15253685.44147  21330305.207    21330315.0034
  23172430.277    -8923085.774 8  -6915950.70045  23172433.799    23172449.3184
  23729249.730    -4173037.571 8  -3049879.11245  23729251.207    23729267.1064
  21344118.581   -17753880.688 9 -13824373.19547  21344121.032    21344132.1864
  22108580.449   -12017946.090 8  -9349787.52646  22108584.051    22108596.1064
  20666570.978   -22402703.953 9 -17440309.07448  20666573.294    20666583.9344
 00  5 24  1  1 30.0000000  0  7 09 21 17 05 29 15 23
  21381728.790   -14839425.881 9 -11550590.27147  21381732.025    21381743.0974
  21317811.105   -19671860.150 9 -15304828.97747  21317815.167    21317824.9854
  23194648.124    -8806323.001 8  -6824966.93846  23194652.734    23194669.1694
  23715266.663    -4246530.412 8  -3107146.15845  23715267.106    23715281.3314
  21335921.915   -17796949.720 9 -13857933.41447  21335925.717    21335936.2964
  22096655.327   -12080614.904 8  -9398620.32146  22096658.255    22096671.2384
  20668436.781   -22392888.595 9 -17432660.76648  20668441.034    20668451.7644
 00  5 24  1  2  0.0000000  0  7 09 21 17 05 29 15 23
  21393621.671   -14776929.872 9 -11501892.06047  21393624.684    21393635.3434
  21305362.135   -19737282.319 9 -15355807.25747  21305365.436    21305376.1944
  23216908.596    -8689377.970 8  -6733841.19546  23216907.427    23216923.7554
  23701322.109    -4319808.613 8  -3164245.96445  23701321.776    23701337.7504
  21327769.756   -17839791.979 9 -13891316.95447  21327772.646    21327783.5744
  22084827.260   -12142760.005 8  -9447045.03846  22084831.945    22084845.9144
  20670373.634   -22382725.999 9 -17424741.87748  20670375.241    20670385.7054
 00  5 24  1  2 30.0000000  0  7 09 21 17 05 29 15 23
  21405608.009   -14713940.170 9 -11452809.17147  21405611.062    21405621.5124
  21292952.639   -19802489.999 9 -15406618.39947  21292956.373    21292967.6284
  23239193.472    -8572253.645 8  -6642575.70246  23239195.798    23239211.3964
  23687410.371    -4392869.254 8  -3221176.22245  23687418.389    23687435.0964
  21319660.851   -17882407.917 9 -13924524.12747  21319662.870    21319674.2124
  22073101.465   -12204379.254 8  -9495059.99646  22073106.164    22073119.9034
  20672371.964   -22372215.282 9 -17416551.73148  20672375.206    20672385.6394
 00  5 24  1  3  0.0000000  0  7 09 21 17 05 29 15 23
  21417685.499   -14650459.499 9 -11403343.72547  21417691.275    21417702.2014
  21280584.420   -19867481.431 9 -15457261.05947  21280589.036    21280600.3564
  23261514.165    -8454952.910 8  -6551172.76446  23261518.319    23261533.3354
  23673557.732    -4465709.351 8  -3277934.60445  23673558.542    23673573.0834
  21311592.906   -17924797.705 9 -13957555.08647  21311596.723    21311607.6604
  22061481.482   -12265470.307 8  -9542663.36546  22061481.606    22061494.5854
  20674440.047   -22361355.312 9 -17408089.43848  20674441.922    20674452.4614
 00  5 24  1  3 30.0000000  0  7 09 21 17 05 29 15 23
  21429858.129   -14586490.096 9 -11353497.45347  21429864.027    21429875.1334
  21268261.559   -19932254.622 9 -15507733.64847  21268263.579    21268274.1574
  23283869.520    -8337478.798 8  -6459634.72446  23283872.819    23283887.7094
  23659733.050    -4538325.729 8  -3334518.71545  23659739.186    23659756.4074
  21303569.213   -17966961.626 9 -13990410.03847  21303573.032    21303584.4834
  22049954.452   -12326031.052 8  -9589853.50347  22049957.401    22049970.0774
  20676572.594   -22350145.210 9 -17399354.32348  20676575.058    20676585.8534
 00  5 24  1  4  0.0000000  0  7 09 21 17 05 29 15 23
  21442126.693   -14522034.394 9 -11303272.23347  21442129.679    21442140.8054
  21255977.821   -19996807.193 9 -15558034.33047  21255979.686    21255990.4564
  23306257.821    -8219834.481 8  -6367964.05846  23306260.445    23306274.8714
  23645968.211    -4610715.322 8  -3390926.09445  23645964.372    23645980.1264
  21295589.789   -18008899.716 9 -14023089.00747  21295592.780    21295603.6604
  22038530.187   -12386059.410 8  -9636628.79047  22038534.211    22038546.6754
  20678772.684   -22338584.082 9 -17390345.66648  20678775.307    20678785.8264
 00  5 24  1  4 30.0000000  0  7 09 21 17 05 29 15 23
  21454485.086   -14457094.906 9 -11252670.03747  21454486.925    21454498.3344
  21243734.520   -20061137.174 9 -15608161.55947  21243737.768    21243748.7464
  23328677.492    -8102023.055 8  -6276163.17246  23328678.335    23328694.7094
  23632231.581    -4682875.218 8  -3447154.45845  23632232.949    23632248.8234
  21287651.114   -18050612.359 9 -14055592.33047  21287655.378    21287665.4134
  22027210.244   -12445552.865 8  -9682987.28447  22027212.796    22027225.6244
  20681040.060   -22326670.970 9 -17381062.73848  20681042.281    20681052.6064
 00  5 24  1  5  0.0000000  0  7 09 21 17 05 29 15 23
  21466932.455   -14391674.300 9 -11201692.95447  21466936.221    21466947.6844
  21231535.874   -20125242.587 9 -15658113.79547  21231539.295    21231549.5414
  23351126.602    -7984047.586 8  -6184234.49146  23351129.037    23351144.5614
  23618542.720    -4754802.310 8  -3503201.44545  23618545.260    23618560.8594
  21279757.162   -18092099.760 9 -14087920.13647  21279760.144    21279770.1864
  22015992.890   -12504509.377 8  -9728927.37447  22015994.087    22016006.2854
  20683371.176   -22314405.064 9 -17371504.91348  20683376.244    20683386.8544
 00  5 24  1  5 30.0000000  0  7 09 21 17 05 29 15 23
  21479473.342   -14325774.977 9 -11150342.84247  21479476.427    21479487.6934
  21219380.431   -20189121.291 9 -15707889.39747  21219383.406    21219393.6944
  23373602.363    -7865911.339 8  -6092180.49745  23373610.208    23373624.7474
  23604899.206    -4826493.607 8  -3559064.66145  23604903.054    23604918.5854
  21271905.143   -18133362.217 9 -14120072.65947  21271908.341    21271918.6724
  22004871.906   -12562926.765 8  -9774447.38746  22004876.642    22004889.2714
  20685776.441   -22301785.344 9 -17361671.39148  20685777.791    20685788.2634
 00  5 24  1  6  0.0000000  0  7 09 21 17 05 29 15 23
  21492103.579   -14259399.334 9 -11098621.57347  21492106.897    21492118.9114
  21207267.970   -20252771.513 9 -15757486.95047  21207270.939    21207281.6164
  23396116.687    -7747617.029 8  -6000003.34945  23396120.129    23396136.1114
  23591297.908    -4897946.246 7  -3614741.88545  23591304.720    23591320.8874
  21264095.461   -18174399.817 9 -14152049.96847  21264099.079    21264109.5004
  21993858.244   -12620802.727 8  -9819545.49847  21993863.587    21993876.0584
  20688243.595   -22288810.900 9 -17351561.46048  20688246.591    20688257.2414
 00  5 24  1  6 30.0000000  0  7 09 21 17 05 29 15 23
  21504825.899   -14192550.027 9 -11046531.23547  21504828.524    21504839.4794
  21195199.729   -20316191.008 9 -15806904.73947  21195202.811    21195213.3244
  23418655.070    -7629167.791 8  -5907705.48645  23418661.152    23418676.3174
  23577750.425    -4969157.086 7  -3670230.70045  23577753.863    23577769.4344
  21256329.395   -18215212.904 9 -14183852.32847  21256332.286    21256342.6784
  21982950.301   -12678135.338 8  -9864220.21347  21982953.439    21982966.5114
  20690779.630   -22275480.802 9 -17341174.40448  20690783.346    20690794.1704
 00  5 24  1  7  0.0000000  0  7 09 21 17 05 29 15 23
  21517634.220   -14125229.681 9 -10994073.84947  21517638.560    21517650.4684
  21183175.425   -20379377.476 9 -15856140.91647  21183178.517    21183189.3054
  23441227.279    -7510566.551 8  -5815289.16245  23441230.483    23441246.3494
  23564249.365    -5040123.162 8  -3725528.80845  23564249.465    23564265.5844
  21248605.102   -18255801.640 9 -14215479.87947  21248608.332    21248618.5604
  21972143.272   -12734922.533 8  -9908469.94747  21972147.194    21972160.2314
  20693383.664   -22261794.036 9 -17330509.42248  20693387.823    20693398.5144
 00  5 24  1  7 30.0000000  0  7 09 21 17 05 29 15 23
  21530536.877   -14057440.785 9 -10941251.37647  21530538.866    21530549.6204
  21171195.909   -20442329.139 9 -15905194.14847  21171199.359    21171210.2544
  23463823.750    -7391816.321 8  -5722756.75545  23463827.573    23463844.1844
  23550789.914    -5110841.484 8  -3780633.85245  23550793.469    23550806.9374
  21240923.110   -18296166.088 9 -14246932.64847  21240926.936    21240937.7554
  21961444.440   -12791161.961 8  -9952292.87546  21961445.423    21961457.1134
  20696058.321   -22247749.642 9 -17319565.77448  20696060.410    20696071.3684
 00  5 24  1  8  0.0000000  0  7 09 21 17 05 29 15 23
  21543522.436   -13989185.850 9 -10888065.74747  21543527.339    21543538.4174
  21159262.809   -20505044.043 9 -15954062.88447  21159265.055    21159275.4784
  23486441.008    -7272920.317 8  -5630110.77445  23486452.575    23486468.9984
  23537380.952    -5181309.028 8  -3835543.49245  23537382.647    23537397.0324
  21233286.686   -18336306.729 9 -14278211.02747  21233289.195    21233299.3384
  21950844.434   -12846851.636 8  -9995687.42946  21950847.786    21950860.7904
  20698798.436   -22233346.731 9 -17308342.76348  20698801.312    20698812.4294
 00  5 24  1  8 30.0000000  0  7 09 21 17 05 29 15 23
  21556599.089   -13920467.403 9 -10834518.93547  21556604.128    21556614.9234
  21147373.364   -20567519.880 9 -16002745.34547  21147375.694    21147387.3854
  23509108.742    -7153881.518 8  -5537353.52245  23509105.544    23509122.3404
  23524017.264    -5251522.718 8  -3890255.33345  23524021.048    23524036.6244
  21225689.785   -18376223.808 9 -14309315.19647  21225692.706    21225703.4314
  21940354.372   -12901989.571 8 -10038652.03247  21940355.198    21940367.8404
  20701605.736   -22218584.313 9 -17296839.61148  20701610.372    20701621.6044
 00  5 24  1  9  0.0000000  0  7 09 21 17 05 29 15 23
  21569765.779   -13851287.871 9 -10780612.82647  21569768.397    21569780.0444
  21135528.267   -20629754.549 9 -16051239.87547  21135532.696    21135544.0844
  23531780.597    -7034702.896 8  -5444487.32145  23531784.938    23531801.1314
  23510702.986    -5321479.605 8  -3944767.04145  23510708.989    23510724.5894
  21218134.975   -18415917.552 9 -14340245.33147  21218139.528    21218150.1904
  21929964.363   -12956573.763 8 -10081185.18047  21929968.547    21929979.8744
  20704486.053   -22203461.631 9 -17285055.72748  20704488.491    20704499.2974
 00  5 24  1  9 30.0000000  0  7 09 21 17 05 29 15 23
  21583017.803   -13781650.058 9 -10726349.62047  21583020.685    21583031.2964
  21123734.779   -20691745.944 9 -16099544.85247  21123736.393    21123747.1394
  23554487.172    -6915387.738 8  -5351514.74345  23554489.963    23554506.2354
  23497445.823    -5391176.660 8  -3999076.28845  23497447.389    23497461.1204
  21210625.443   -18455387.941 9 -14371001.43447  21210628.362    21210638.9024
  21919684.201   -13010602.242 8 -10123285.29747  21919687.047    21919699.7374
  20707431.632   -22187977.913 9 -17272990.52348  20707434.854    20707445.7594
 00  5 24  1 10  0.0000000  0  7 09 21 17 05 29 15 23
  21596357.490   -13711556.687 9 -10671731.41947  21596358.290    21596369.6024
  21111982.230   -20753492.169 9 -16147658.79647  21111986.531    21111997.7604
  23577215.948    -6795939.052 8  -5258438.07345  23577220.468    23577236.4944
  23484230.053    -5460611.021 8  -4053180.86045  23484233.419    23484248.7584
  21203156.970   -18494635.408 9 -14401583.82147  21203159.519    21203170.5794
  21909508.450   -13064072.779 8 -10164950.64447  21909512.064    21909524.8254
  20710448.438   -22172132.224 9 -17260643.25548  20710450.404    20710461.0524
 00  5 24  1 10 30.0000000  0  7 09 21 17 05 29 15 23
  21609778.628   -13641010.341 9 -10616760.28647  21609782.678    21609793.7664
  21100280.821   -20814991.024 9 -16195579.97747  21100283.344    21100294.9904
  23599969.919    -6676359.712 8  -5165259.63745  23599975.545    23599992.2934
  23471065.302    -5529779.716 8  -4107078.37945  23471070.648    23471086.6254
  21195729.395   -18533660.340 9 -14431992.82447  21195733.123    21195744.2094
  21899439.709   -13116983.388 8 -10206179.70047  21899443.087    21899456.3744
  20713529.172   -22155923.713 9 -17248013.27448  20713534.382    20713545.3804
 00  5 24  1 11  0.0000000  0  7 09 21 17 05 29 15 23
  21623288.068   -13570013.454 9 -10561438.08947  21623293.631    21623303.8294
  21088624.197   -20876240.337 9 -16243306.71747  21088628.307    21088639.3094
  23622750.478    -6556652.893 8  -5071981.85745  23622754.628    23622772.3644
  23457957.851    -5598679.710 8  -4160766.55545  23457958.255    23457974.6844
  21188345.917   -18572462.907 9 -14462228.55647  21188349.386    21188359.8094
  21889477.605   -13169332.117 8 -10246970.94747  21889481.855    21889494.2834
  20716685.265   -22139351.476 9 -17235099.86947  20716688.130    20716698.9494
 00  5 24  1 11 30.0000000  0  7 09 21 17 05 29 15 23
  21636886.410   -13498568.620 9 -10505766.84247  21636889.198    21636899.7014
  21077017.202   -20937238.315 9 -16290837.61547  21077020.676    21077031.6954
  23645559.297    -6436821.585 7  -4978607.05345  23645557.964    23645575.2644
  23444893.637    -5667308.056 8  -4214243.05545  23444899.519    23444915.1034
  21181005.090   -18611043.152 9 -14492291.04647  21181007.988    21181018.1074
  21879627.184   -13221117.380 8 -10287323.11047  21879627.990    21879639.7214
  20719909.270   -22122414.685 9 -17221902.40047  20719911.203    20719921.5994
 00  5 24  1 12  0.0000000  0  7 09 21 17 05 29 15 23
  21650563.753   -13426678.736 8 -10449748.82647  21650569.004    21650580.2824
  21065457.671   -20997982.764 9 -16338170.96747  21065461.802    21065472.3784
  23668385.210    -6316868.783 8  -4885137.59045  23668385.258    23668402.1294
  23431889.286    -5735661.838 8  -4267505.60945  23431891.941    23431906.9964
  21173703.543   -18649401.325 9 -14522180.48547  21173708.534    21173719.0854
  21869878.342   -13272336.951 8 -10327234.49347  21869881.803    21869892.6274
  20723201.094   -22105112.398 9 -17208420.12647  20723203.523    20723214.5794
 00  5 24  1 12 30.0000000  0  7 09 21 17 05 29 15 23
  21664329.845   -13354346.111 9 -10393385.83647  21664334.013    21664344.5204
  21053950.063   -21058470.941 9 -16385304.62547  21053951.487    21053962.2464
  23691227.900    -6196797.446 8  -4791575.77045  23691233.552    23691250.2774
  23418928.837    -5803738.308 8  -4320552.12145  23418937.618    23418952.3984
  21166447.332   -18687537.745 9 -14551897.14047  21166451.515    21166461.9634
  21860240.229   -13322988.909 8 -10366703.57347  21860242.947    21860254.3974
  20726562.416   -22087443.870 9 -17194652.48347  20726565.709    20726576.7914
 00  5 24  1 13  0.0000000  0  7 09 21 17 05 29 15 23
  21678177.487   -13281573.672 8 -10336680.13247  21678181.682    21678192.8154
  21042484.342   -21118701.321 9 -16432237.38347  21042489.713    21042500.8214
  23714109.171    -6076610.571 7  -4697923.91945  23714103.689    23714121.1674
  23406036.874    -5871534.177 8  -4373380.00345  23406036.694    23406051.7804
  21159232.820   -18725452.684 9 -14581441.22147  21159236.441    21159246.7644
  21850708.783   -13373071.500 8 -10405728.98747  21850712.130    21850723.8864
  20729995.216   -22069408.313 9 -17180598.83447  20729997.910    20730008.7504
 00  5 24  1 13 30.0000000  0  7 09 21 17 05 29 15 23
  21692111.480   -13208363.856 8 -10279633.62647  21692113.035    21692124.5544
  21031075.106   -21178671.895 9 -16478967.71147  21031078.067    21031089.1644
  23737001.203    -5956311.317 8  -4604184.55745  23736996.576    23737013.4194
  23393178.600    -5939046.579 8  -4425986.99745  23393189.042    23393204.1424
  21152060.207   -18763146.488 9 -14610813.01047  21152063.633    21152073.8484
  21841286.203   -13422582.590 8 -10444309.08847  21841290.455    21841302.7784
  20733499.179   -22051004.926 9 -17166258.56347  20733500.114    20733510.9464
 00  5 24  1 14  0.0000000  0  7 09 21 17 05 29 15 23
  21706119.983   -13134719.391 8 -10222248.41647  21706126.952    21706138.4214
  21019712.118   -21238379.879 9 -16525493.42047  21019715.356    21019726.8904
  23759912.650    -5835902.565 7  -4510359.85745  23759911.150    23759927.2114
  23380387.368    -6006272.651 8  -4478370.88545  23380395.181    23380411.8784
  21144930.215   -18800619.238 9 -14640012.55347  21144932.990    21144942.8144
  21831976.081   -13471520.396 8 -10482442.48247  21831978.254    21831990.0524
  20737070.974   -22032232.755 9 -17151630.92847  20737072.515    20737083.0434
 00  5 24  1 14 30.0000000  0  7 09 21 17 05 29 15 23
  21720219.661   -13060642.977 8 -10164526.61347  21720223.554    21720234.8444
  21008399.506   -21297823.582 9 -16571813.20247  21008403.568    21008414.7974
  23782841.248    -5715387.328 7  -4416452.16645  23782843.762    23782860.6034
  23367659.429    -6073209.399 8  -4530529.29345  23367657.896    23367673.1564
  21137839.861   -18837871.208 9 -14669040.06447  21137844.069    21137854.0604
  21822771.592   -13519883.266 8 -10520127.86447  21822774.006    21822786.7974
  20740712.486   -22013091.111 9 -17136715.38747  20740715.004    20740725.6244
 00  5 24  1 15  0.0000000  0  7 09 21 17 05 29 15 23
  21734399.374   -12986137.175 8 -10106470.22547  21734401.367    21734412.7744
  20997139.510   -21357000.799 9 -16617925.33047  20997143.186    20997153.4564
  23805793.261    -5594768.712 7  -4322463.91345  23805796.389    23805812.4534
  23354979.668    -6139853.861 8  -4582459.97445  23354976.782    23354991.6254
  21130794.194   -18874902.600 9 -14697895.69647  21130797.107    21130807.3484
  21813678.047   -13567669.328 8 -10557363.78747  21813681.342    21813693.3614
  20744424.769   -21993579.201 9 -17121511.32847  20744427.727    20744439.0624
 00  5 24  1 15 30.0000000  0  7 09 21 17 05 29 15 23
  21748656.331   -12911204.705 8 -10048081.34047  21748660.522    21748672.6864
  20985930.434   -21415909.591 9 -16663828.29647  20985933.106    20985943.5614
  23828762.250    -5474049.697 7  -4228397.43245  23828769.731    23828784.7334
  23342349.427    -6206203.195 8  -4634160.65745  23342350.362    23342365.3434
  21123788.738   -18911713.698 9 -14726579.66647  21123792.549    21123802.1134
  21804694.516   -13614876.749 8 -10594148.81747  21804698.118    21804709.7784
  20748208.759   -21973696.213 9 -17106018.11947  20748211.643    20748222.3254
 00  5 24  1 16  0.0000000  0  7 09 21 17 05 29 15 23
  21762995.403   -12835848.208 8  -9989362.06247  21763000.056    21763012.6514
  20974772.466   -21474548.223 9 -16709520.75147  20974774.644    20974785.3244
  23851755.895    -5353233.388 7  -4134255.09945  23851760.665    23851777.4164
  23329781.458    -6272254.345 8  -4685628.96945  23329781.686    23329796.9664
  21116826.469   -18948304.742 9 -14755092.16547  21116829.571    21116839.2784
  21795821.857   -13661503.708 8 -10630481.54747  21795825.788    21795837.2134
  20752063.083   -21953441.536 9 -17090235.28247  20752065.491    20752076.4394
 00  5 24  1 16 30.0000000  0  7 09 21 17 05 29 15 23
  21777414.531   -12760070.439 8  -9930314.51547  21777420.395    21777432.3204
  20963663.908   -21532913.835 9 -16755000.46847  20963667.642    20963678.8114
  23874763.119    -5232322.643 7  -4040039.19445  23874768.919    23874787.4104
  23317263.299    -6338004.443 8  -4736862.70745  23317268.893    23317283.7814
  21109905.202   -18984675.813 9 -14783433.25147  21109908.393    21109918.2694
  21787059.899   -13707548.626 8 -10666360.71647  21787062.803    21787075.6214
  20755988.558   -21932814.370 9 -17074162.19847  20755990.684    20756001.7764
 00  5 24  1 17  0.0000000  0  7 09 21 17 05 29 15 23
  21791919.472   -12683874.185 8  -9870940.87647  21791920.742    21791932.5394
  20952611.169   -21591004.303 9 -16800265.78047  20952613.576    20952624.5354
  23897794.049    -5111320.465 7  -3945752.09045  23897796.011    23897813.4104
  23304811.028    -6403450.669 8  -4787859.66646  23304815.661    23304830.4774
  21103025.527   -19020827.240 9 -14811603.19147  21103028.774    21103039.0084
  21778409.045   -13753009.865 8 -10701785.08047  21778411.857    21778423.6514
  20759984.899   -21911813.853 9 -17057798.19747  20759987.369    20759998.0634
 00  5 24  1 17 30.0000000  0  7 09 21 17 05 29 15 23
  21806498.445   -12607262.036 8  -9811243.16447  21806498.905    21806511.5544
  20941609.331   -21648817.713 9 -16845315.22347  20941611.759    20941622.7304
  23920836.144    -4990229.979 7  -3851396.21545  23920838.587    23920855.7774
  23292416.529    -6468590.204 8  -4838617.63246  23292420.355    23292435.0494
  21096189.991   -19056759.381 9 -14839602.24547  21096191.086    21096201.3124
  21769869.692   -13797885.681 8 -10736753.27047  21769873.110    21769884.8084
  20764050.937   -21890439.332 9 -17041142.76247  20764054.746    20764065.6274
 00  5 24  1 18  0.0000000  0  7 09 21 17 05 29 15 23
  21821152.799   -12530236.727 8  -9751223.51547  21821157.122    21821168.6184
  20930659.017   -21706351.760 9 -16890146.96847  20930663.447    20930674.6454
  23943901.211    -4869054.208 7  -3756973.85745  23943897.661    23943916.3084
  23280073.586    -6533420.000 8  -4889134.27746  23280083.313    23280097.3524
  21089390.804   -19092472.576 9 -14867430.69047  21089394.871    21089405.4324
  21761443.606   -13842174.188 8 -10771263.81747  21761444.865    21761456.3364
  20768190.592   -21868689.929 9 -17024195.22447  20768193.428    20768204.7134
 00  5 24  1 18 30.0000000  0  7 09 21 17 05 29 15 23
  21835888.719   -12452801.070 8  -9690884.09447  21835892.104    21835904.3044
  20919766.861   -21763604.130 9 -16934759.22047  20919768.899    20919779.7404
  23966964.998    -4747796.009 7  -3662487.34245  23966973.385    23966990.3964
  23267808.067    -6597937.219 8  -4939407.35946  23267806.762    23267821.2334
  21082638.894   -19127966.475 9 -14895088.27247  21082640.623    21082650.9804
  21753122.854   -13885873.661 8 -10805315.36647  21753128.421    21753141.4324
  20772401.591   -21846564.995 9 -17006955.06647  20772403.876    20772414.8844
 00  5 24  1 19  0.0000000  0  7 09 21 17 05 29 15 23
  21850699.656   -12374957.648 8  -9630226.92747  21850705.500    21850717.4704
  20908926.035   -21820572.606 9 -16979150.25447  20908928.180    20908938.7914
  23990060.006    -4626458.421 7  -3567938.89045  23990064.690    23990079.8194
  23255585.159    -6662139.073 8  -4989434.68246  23255589.160    23255602.9044
  21075926.105   -19163241.901 9 -14922575.59847  21075928.425    21075938.2644
  21744924.446   -13928982.622 8 -10838906.78247  21744925.991    21744938.5314
  20776682.081   -21824064.030 9 -16989421.89847  20776685.806    20776696.6914
 00  5 24  1 19 30.0000000  0  7 09 21 17 05 29 15 23
  21865592.946   -12296709.183 8  -9569254.13647  21865595.624    21865607.4664
  20898139.110   -21877255.576 9 -17023318.82447  20898142.138    20898152.7774
  24013157.191    -4505044.458 7  -3473330.91145  24013167.176    24013183.9474
  23243427.532    -6726022.557 8  -5039213.96346  23243432.596    23243446.1954
  21069253.941   -19198298.777 9 -14949892.64447  21069257.303    21069267.1724
  21736830.118   -13971499.390 8 -10872036.72147  21736835.046    21736847.3994
  20781035.966   -21801186.109 9 -16971595.00147  20781039.135    20781050.2824
 00  5 24  1 20  0.0000000  0  7 09 21 17 05 29 15 23
  21880557.754   -12218058.509 8  -9507967.95347  21880562.623    21880575.1324
  20887406.230   -21933650.314 9 -17067262.78847  20887410.016    20887421.2674
  24036280.014    -4383557.003 7  -3378665.67145  24036284.739    24036303.8834
  23231331.475    -6789584.811 8  -5088742.92446  23231335.419    23231351.5294
  21062621.796   -19233137.514 9 -14977039.70147  21062627.344    21062637.4884
  21728856.076   -14013422.483 8 -10904704.03947  21728857.645    21728870.1794
  20785462.486   -21777930.468 9 -16953473.77747  20785464.616    20785476.0354
 00  5 24  1 20 30.0000000  0  7 09 21 17 05 29 15 23
  21895603.887   -12139008.430 8  -9446370.53147  21895605.503    21895616.8354
  20876730.453   -21989754.851 9 -17110980.62647  20876733.609    20876745.2114
  24059421.759    -4261998.986 7  -3283945.46445  24059417.524    24059436.9224
  23219293.533    -6852823.326 8  -5138019.61446  23219301.849    23219317.1584
  21056035.077   -19267758.449 9 -15004017.04547  21056038.961    21056049.4024
  21720991.097   -14054750.264 8 -10936907.47047  21720993.235    21721004.9124
  20789959.614   -21754296.514 9 -16935057.76247  20789962.334    20789973.2214
 00  5 24  1 21  0.0000000  0  7 09 21 17 05 29 15 23
  21910717.972   -12059561.386 8  -9384463.79547  21910723.683    21910735.9534
  20866110.022   -22045567.256 9 -17154470.82647  20866112.927    20866124.3874
  24082558.621    -4140373.285 7  -3189172.50445  24082562.045    24082580.8034
  23207331.033    -6915734.857 8  -5187041.53846  23207330.710    23207344.4704
  21049487.443   -19302161.534 9 -15030824.63447  21049491.532    21049502.8134
  21713239.072   -14095481.390 8 -10968645.98547  21713241.951    21713254.2734
  20794530.343   -21730283.686 9 -16916346.53247  20794531.792    20794542.4544
 00  5 24  1 21 30.0000000  0  7 09 21 17 05 29 15 23
  21925913.808   -11979720.239 8  -9322250.00047  21925916.861    21925929.3474
  20855545.174   -22101084.990 9 -17197731.39647  20855548.491    20855559.6544
  24105718.836    -4018682.876 7  -3094349.14844  24105716.282    24105737.9304
  23195418.172    -6978316.640 8  -5235806.52946  23195421.844    23195435.4004
  21042983.486   -19336347.164 9 -15057462.77347  21042986.243    21042997.2704
  21705600.939   -14135614.201 8 -10999918.26547  21705604.537    21705616.8594
  20799170.057   -21705891.258 9 -16897339.52147  20799173.340    20799184.3634
 00  5 24  1 22  0.0000000  0  7 09 21 17 05 29 15 23
  21941180.653   -11899487.866 8  -9259731.33347  21941184.603    21941196.7124
  20845036.995   -22156306.061 9 -17240760.79648  20845040.264    20845051.5314
  24128889.743    -3896930.996 7  -2999477.84244  24128887.784    24128906.5984
  23183575.915    -7040565.783 8  -5284312.29746  23183576.029    23183591.1704
  21036517.706   -19370315.329 9 -15083931.45947  21036522.410    21036533.3974
  21698078.823   -14175147.375 8 -11030723.30947  21698081.996    21698094.3254
  20803884.909   -21681118.582 9 -16878036.19947  20803887.573    20803898.2494
 00  5 24  1 22 30.0000000  0  7 09 21 17 05 29 15 23
  21956521.116   -11818866.996 8  -9196909.91247  21956526.239    21956538.3404
  20834585.175   -22211228.407 9 -17283557.43548  20834589.085    20834600.3334
  24152062.716    -3775120.343 7  -2904560.85344  24152067.251    24152086.8244
  23171797.414    -7102479.527 8  -5332556.69546  23171794.073    23171809.8144
  21030098.792   -19404066.648 9 -15110231.18447  21030100.391    21030111.1584
  21690669.296   -14214079.395 8 -11061059.95047  21690673.442    21690686.0524
  20808670.986   -21655964.960 9 -16858436.02847  20808674.469    20808684.8804
 00  5 24  1 23  0.0000000  0  7 09 21 17 05 29 15 23
  21971938.644   -11737860.160 8  -9133787.75847  21971941.433    21971953.1534
  20824192.698   -22265849.815 9 -17326119.57348  20824194.775    20824205.9034
  24175270.301    -3653254.162 7  -2809600.47744  24175257.512    24175277.2104
  23160072.754    -7164055.244 8  -5380537.68445  23160075.864    23160092.0094
  21023714.685   -19437601.134 9 -15136361.94747  21023719.048    21023729.0584
  21683376.883   -14252408.582 8 -11090926.81647  21683380.455    21683391.8374
  20813531.746   -21630429.795 9 -16838538.55147  20813533.590    20813544.3974
 00  5 24  1 23 30.0000000  0  7 09 21 17 05 29 15 23
  21987423.697   -11656470.348 8  -9070367.17847  21987429.269    21987441.5564
  20813855.223   -22320167.922 9 -17368445.35448  20813858.576    20813869.6554
  24198470.469    -3531335.324 7  -2714599.08644  24198458.308    24198477.7364
  23148421.252    -7225290.076 8  -5428253.06546  23148423.548    23148438.2324
  21017378.194   -19470919.151 9 -15162324.01647  21017379.537    21017388.6954
  21676197.919   -14290133.534 8 -11120322.83847  21676200.772    21676212.3464
  20818462.087   -21604512.360 9 -16818343.21547  20818465.265    20818476.4194
 00  5 24  1 24  0.0000000  0  7 09 21 17 05 29 15 23
  22002988.137   -11574700.154 8  -9006650.20847  22002990.402    22003001.0314
  20803577.830   -22374180.413 9 -17410532.99948  20803579.925    20803591.1474
  24221656.765    -3409366.441 7  -2619558.71344  24221668.966    24221687.8904
  23136830.700    -7286181.197 8  -5475700.61345  23136836.113    23136850.3084
  21011077.173   -19504020.788 9 -15188117.50147  21011080.573    21011089.4864
  21669132.618   -14327252.886 8 -11149246.99047  21669137.145    21669149.1114
  20823466.438   -21578212.049 9 -16797849.53447  20823470.142    20823481.6144
 00  5 24  1 24 30.0000000  0  7 09 21 17 05 29 15 23
  22018621.058   -11492552.507 8  -8942639.07747  22018622.368    22018633.6604
  20793358.073   -22427885.619 9 -17452381.20248  20793360.630    20793371.1094
  24244889.161    -3287350.602 7  -2524481.70044  24244885.350    24244907.1884
  23125312.278    -7346725.772 8  -5522878.13746  23125316.591    23125329.2944
  21004819.552   -19536906.407 9 -15213742.65147  21004822.151    21004831.9084
  21662185.317   -14363765.303 8 -11177698.22847  21662188.307    21662201.5124
  20828545.205   -21551528.387 9 -16777057.13847  20828547.804    20828559.2624
 00  5 24  1 25  0.0000000  0  7 09 21 17 05 29 15 23
  22034324.915   -11410030.178 8  -8878336.00447  22034325.895    22034336.6724
  20783196.057   -22481280.775 9 -17493987.80648  20783200.037    20783210.4894
  24268126.164    -3165290.862 7  -2429370.50844  24268116.152    24268134.8904
  23113853.879    -7406921.083 8  -5569783.52146  23113860.808    23113876.0264
  20998600.842   -19569576.003 9 -15239199.46947  20998605.117    20998614.9344
  21655351.988   -14399669.517 8 -11205675.53747  21655356.007    21655369.2334
  20833695.184   -21524460.725 9 -16755965.53047  20833698.787    20833710.3654
 00  5 24  1 25 30.0000000  0  7 09 21 05 29 15 23 30
  22050095.038   -11327135.940 8  -8813743.12547  22050099.969    22050111.4974
  20773094.763   -22534364.290 9 -17535351.56948  20773098.462    20773109.1714
  23102464.386    -7466764.325 8  -5616414.58146  23102472.958    23102487.8314
  20992423.763   -19602029.933 9 -15264488.23947  20992429.035    20992439.1994
  21648636.546   -14434964.257 8 -11233177.91247  21648639.626    21648652.6044
  20838920.929   -21497008.503 9 -16734574.26847  20838922.991    20838934.2874
  24309687.493      -72676.93617
 00  5 24  1 26  0.0000000  0  7 09 21 05 29 15 23 30
  22065933.684   -11243872.223 8  -8748862.35547  22065943.971    22065955.6474
  20763052.912   -22587133.698 9 -17576470.57448  20763056.576    20763067.3984
  23091150.259    -7526252.554 8  -5662769.00545  23091152.050    23091166.9004
  20986291.140   -19634268.460 9 -15289609.16747  20986294.886    20986304.5224
  21642037.623   -14469648.177 8 -11260204.33647  21642040.063    21642051.7214
  20844216.106   -21469171.183 9 -16712882.92647  20844220.022    20844231.3474
  24291757.923     -167006.186 7   -108471.40454                  24291776.6794
 00  5 24  1 26 30.0000000  0  7 09 21 05 29 15 23 30
  22081858.696   -11160242.015 8  -8683695.95747  22081858.495    22081870.7604
  20753071.683   -22639586.626 9 -17617342.98148  20753074.970    20753085.8944
  23079899.699    -7585383.011 8  -5708844.65745  23079899.052    23079915.1154
  20980197.977   -19666291.723 9 -15314562.36147  20980201.002    20980211.2164
  21635552.870   -14503720.058 9 -11286753.89347  21635557.249    21635567.8514
  20849588.022   -21440948.131 9 -16690891.00847  20849590.822    20849602.1194
  24273798.711     -261315.380 7   -181958.79344  24273812.753    24273832.1754
 00  5 24  1 27  0.0000000  0  7 09 21 05 29 15 23 30
  22097836.182   -11076248.280 8  -8618246.31047  22097841.993    22097853.7134
  20743150.114   -22691721.027 9 -17657967.19248  20743154.377    20743165.0484
  23068712.138    -7644153.113 8  -5754639.50245  23068715.703    23068731.2364
  20974145.462   -19698100.170 9 -15339348.18047  20974148.015    20974158.4774
  21629186.876   -14537178.606 9 -11312825.55147  21629190.568    21629200.9134
  20855030.462   -21412338.868 9 -16668598.13647  20855034.815    20855046.7614
  24255878.960     -355601.640 7   -255428.35044  24255867.907    24255891.3404
 00  5 24  1 27 30.0000000  0  7 09 21 05 29 15 23 30
  22113893.553   -10991893.578 8  -8552515.39647  22113894.348    22113906.3274
  20733290.584   -22743535.090 9 -17698341.79448  20733294.358    20733305.2474
  23057602.181    -7702560.111 8  -5800151.40045  23057601.691    23057617.7494
  20968130.660   -19729693.652 9 -15363966.48547  20968135.990    20968146.3214
  21622939.064   -14570022.553 8 -11338418.27747  21622939.997    21622951.7404
  20860549.733   -21383342.808 9 -16646003.86247  20860552.908    20860564.3004
  24237917.903     -449861.883 7   -328877.67244  24237937.812    24237948.5364
 00  5 24  1 28  0.0000000  0  7 09 21 05 29 15 23 30
  22130009.621   -10907180.685 8  -8486505.36947  22130014.596    22130026.3154
  20723494.737   -22795025.965 9 -17738464.56148  20723495.995    20723506.7054
  23046545.855    -7760601.463 8  -5845378.37646  23046557.369    23046571.3524
  20962160.401   -19761072.723 9 -15388417.72347  20962164.584    20962175.0184
  21616805.510   -14602250.821 8 -11363531.24647  21616806.135    21616819.3424
  20866141.922   -21353959.485 9 -16623107.82647  20866144.428    20866155.3054
  24219983.595     -544093.223 7   -402304.43644  24220006.048    24220018.3994
 00  5 24  1 28 30.0000000  0  7 09 21 05 29 15 23 25
  22146198.895   -10822112.400 8  -8420218.42747  22146202.643    22146214.3954
  20713755.216   -22846191.793 9 -17778334.03848  20713759.275    20713770.2714
  23035578.726    -7818274.354 8  -5890318.23146  23035582.654    23035597.2324
  20956230.225   -19792237.343 9 -15412701.84647  20956233.312    20956244.6784
  21610785.964   -14633862.068 8 -11388163.41947  21610791.032    21610803.9514
  20871806.907   -21324188.403 9 -16599909.64647  20871809.718    20871820.9934
  24729424.738    -1300690.59217  -1000516.62355  24729427.588    24729443.7254
 00  5 24  1 29  0.0000000  0  8 09 21 05 29 15 23 30 25
  22162455.245   -10736691.569 8  -8353656.77647  22162457.710    22162469.5734
  20704082.825   -22897030.525 9 -17817948.62248  20704085.207    20704095.8734
  23024674.073    -7875575.946 8  -5934968.75546  23024677.784    23024693.1574
  20950342.112   -19823187.914 9 -15436819.18847  20950344.361    20950355.0934
  21604890.478   -14664855.173 8 -11412313.91247  21604892.762    21604906.3494
  20877545.915   -21294028.968 9 -16576408.84847  20877548.977    20877560.3924
  24184145.360      -70541.58217
  24709633.118    -1404693.071 7  -1081557.37645  24709635.303    24709650.6794
 00  5 24  1 29 30.0000000  0  8 09 21 05 29 15 23 30 25
  22178776.011   -10650920.995 8  -8286822.59846  22178779.240    22178790.7694
  20694471.104   -22947539.810 9 -17857306.50148  20694473.683    20694484.5904
  23013837.013    -7932503.599 8  -5979327.90846  23013845.221    23013859.8914
  20944492.030   -19853924.466 9 -15460769.75747  20944494.807    20944506.1364
  21599111.417   -14695229.067 8 -11435981.93347  21599113.803    21599125.9424
  20883359.510   -21263480.754 9 -16552605.11347  20883362.176    20883373.5644
  24166244.511     -164667.766 7
  24689859.243    -1508597.790 7  -1162521.99245  24689863.840    24689879.8154
 00  5 24  1 30  0.0000000  0  8 09 21 05 29 15 23 30 25
  22195164.257   -10564803.466 8  -8219718.08047  22195167.133    22195178.8354
  20684923.199   -22997717.097 9 -17896405.67748  20684925.216    20684936.1854
  23003083.513    -7989054.683 8  -6023393.63346  23003083.599    23003098.2534
  20938684.288   -19884447.370 9 -15484553.84347  20938687.051    20938697.7314
  21593450.097   -14724982.640 9 -11459166.55347  21593452.307    21593464.2944
  20889246.933   -21232543.247 9 -16528498.03147  20889249.635    20889260.8564
  24148327.426     -258752.945 7   -181581.18354  24148336.491    24148359.9694
  24670115.365    -1612403.184 7  -1243409.22445  24670109.823    24670125.1794
 00  5 24  1 30 30.0000000  0  8 09 21 05 29 15 23 30 25
  22211619.872   -10478341.713 8  -8152345.32647  22211620.698    22211632.0044
  20675436.725   -23047560.613 9 -17935244.78648  20675439.970    20675451.3144
  22992393.648    -8045226.357 8  -6067163.73946  22992395.071    22992408.8774
  20932916.073   -19914756.806 9 -15508171.58547  20932919.592    20932929.8414
  21587905.466   -14754114.763 8 -11481866.91947  21587908.724    21587920.9524
  20895208.299   -21201216.010 9 -16504087.26447  20895211.105    20895222.2954
  24130432.921     -352794.113 7   -254859.75544  24130443.555    24130467.2564
  24650362.733    -1716107.326 7  -1324217.53645  24650375.264    24650392.8724
 00  5 24  1 31  0.0000000  0  7 09 21 05 29 15 23 25
  22228130.621   -10391538.448 8  -8084706.47547  22228138.519    22228150.4204
  20666016.918   -23097067.856 9 -17973821.85348  20666018.923    20666030.2854
  22981770.999    -8101016.199 8  -6110636.27646  22981777.936    22981792.7984
  20927189.706   -19944853.006 9 -15531623.17147  20927192.433    20927202.4884
  21582479.062   -14782624.645 8 -11504082.42347  21582481.962    21582496.1134
  20901244.251   -21169498.435 9 -16479372.33447  20901246.765    20901257.7184
  24630649.668    -1819708.400 7  -1404945.51345  24630657.977    24630677.1214
 00  5 24  1 31 30.0000000  0  7 09 21 05 29 15 23 25
  22244719.031   -10304396.456 8  -8016803.64947  22244721.179    22244732.6664
  20656659.091   -23146237.181 9 -18012135.59848  20656662.522    20656673.8244
  22971230.317    -8156421.703 8  -6153809.35446  22971234.536    22971249.3884
  20921501.858   -19974736.240 9 -15554908.79547  20921505.889    20921515.7554
  21577171.562   -14810511.131 8 -11525812.17647  21577176.002    21577189.3334
  20907353.310   -21137390.097 9 -16454352.90747  20907356.890    20907367.8524
  24610974.184    -1923204.738 7  -1485591.91145  24610965.408    24610982.1324
 00  5 24  1 32  0.0000000  0  7 09 21 05 29 15 23 25
  22261368.070   -10216918.638 8  -7948639.15647  22261367.676    22261379.5404
  20647366.219   -23195066.062 9 -18050184.04548  20647370.575    20647381.5204
  22960761.203    -8211440.085 8  -6196680.76346  22960765.445    22960779.5414
  20915857.782   -20004406.603 9 -15578028.55447  20915860.111    20915870.1354
  21571984.725   -14837773.162 8 -11547055.32647  21571988.327    21572000.2604
  20913538.670   -21104890.688 9 -16429028.75647  20913541.228    20913552.5634
  24591276.964    -2026594.565 7  -1566155.27345  24591290.629    24591306.1794
 00  5 24  1 32 30.0000000  0  7 09 21 05 29 15 23 25
  22278079.038   -10129107.748 8  -7880215.10747  22278078.076    22278088.9384
  20638140.665   -23243552.609 9 -18087965.75148  20638144.201    20638154.7394
  22950372.290    -8266068.712 8  -6239248.47446  22950370.074    22950383.7754
  20910249.893   -20033864.349 9 -15600982.63447  20910254.063    20910264.0124
  21566915.991   -14864409.760 9 -11567811.11747  21566919.744    21566931.6424
  20919797.566   -21071999.809 9 -16403399.55447  20919800.157    20919811.4684
  24571624.319    -2129875.830 7  -1646634.07745  24571637.196    24571652.8494
 00  5 24  1 33  0.0000000  0  7 09 21 05 29 15 23 25
  22294844.864   -10040966.644 8  -7811533.73147  22294850.711    22294862.6904
  20628979.598   -23291694.444 9 -18125478.85248  20628982.833    20628993.8954
  22940049.111    -8320305.010 8  -6281510.46846  22940048.460    22940063.2994
  20904685.611   -20063109.620 9 -15623771.15247  20904688.630    20904698.4294
  21561966.888   -14890420.085 9 -11588078.92747  21561970.471    21561982.1314
  20926128.886   -21038716.916 9 -16377464.88747  20926133.590    20926145.2434
  24552011.381    -2233047.146 7  -1727027.14445  24552005.718    24552019.3704
 00  5 24  1 33 30.0000000  0  7 09 21 05 29 15 23 25
  22311683.577    -9952498.114 8  -7742597.25346  22311684.977    22311696.8684
  20619884.202   -23339489.187 9 -18162721.50148  20619887.858    20619899.1354
  22929797.909    -8374146.321 8  -6323464.67746  22929802.942    22929816.7654
  20899162.331   -20092142.637 9 -15646394.28447  20899164.190    20899174.0404
  21557135.393   -14915803.352 9 -11607858.10347  21557140.270    21557152.0864
  20932540.326   -21005041.666 9 -16351224.48847  20932541.815    20932553.3194
  24532374.428    -2336106.573 7  -1807333.05045  24532392.765    24532407.6184
 00  5 24  1 34  0.0000000  0  7 09 21 05 29 15 23 25
  22328581.299    -9863704.886 8  -7673407.73646  22328582.573    22328593.7574
  20610855.688   -23386934.639 9 -18199691.96748  20610859.205    20610870.3764
  22919625.515    -8427590.113 8  -6365109.13846  22919632.887    22919647.1384
  20893677.779   -20120963.661 9 -15668852.22547  20893679.449    20893689.6634
  21552428.990   -14940558.566 9 -11627147.88747  21552430.060    21552441.8954
  20939022.332   -20970973.769 9 -16324678.12147  20939024.812    20939036.3704
  24512808.056    -2439052.333 7  -1887550.34645  24512802.577    24512818.1624
 00  5 24  1 34 30.0000000  0  7 09 21 05 29 15 23 25
  22345539.008    -9774589.647 8  -7603967.31646  22345539.525    22345551.8194
  20601894.331   -23434028.734 9 -18236388.64448  20601897.125    20601908.5984
  22909529.285    -8480633.892 8  -6406441.86546  22909538.861    22909552.2904
  20888231.034   -20149572.753 9 -15691145.02347  20888234.437    20888245.3944
  21547834.944   -14964684.741 9 -11645947.51947  21547838.351    21547850.8764
  20945578.475   -20936512.797 9 -16297825.46147  20945582.370    20945593.9364
  24493222.422    -2541882.678 7  -1967677.68745  24493234.170    24493250.1014
 00  5 24  1 35  0.0000000  0  7 09 21 05 29 15 23 25
  22362557.757    -9685155.073 8  -7534278.05446  22362557.928    22362570.6414
  20593000.488   -23480769.622 9 -18272810.10448  20593003.124    20593014.1214
  22899516.829    -8533274.980 8  -6447460.82846  22899521.363    22899536.8084
  20882829.864   -20177970.243 9 -15713272.94847  20882831.205    20882841.3714
  21543364.916   -14988181.110 9 -11664256.38947  21543367.738    21543379.3414
  20952212.460   -20901658.369 9 -16270666.21447  20952214.930    20952226.2374
  24473687.828    -2644595.908 7  -2047713.71545  24473689.609    24473704.4784
 00  5 24  1 35 30.0000000  0  8 09 21 05 29 15 23 30 25
  22379634.783    -9595404.219 8  -7464342.36146  22379637.759    22379650.3514
  20584173.821   -23527154.363 9 -18308954.04148  20584176.237    20584187.5304
  22889573.183    -8585511.001 8  -6488164.16746  22889581.458    22889596.2674
  20877464.257   -20206156.329 9 -15735236.13347  20877467.675    20877477.9504
  21539012.518   -15011047.000 8 -11682073.96247  21539015.797    21539028.0744
  20958920.915   -20866410.139 9 -16243200.09847  20958922.579    20958933.9264
  23952079.989      -30950.03217
  24454161.832    -2747190.376 7  -2127657.28945  24454165.941    24454181.2054
 00  5 24  1 36  0.0000000  0  8 09 21 05 29 15 23 30 25
  22396771.518    -9505339.910 8  -7394162.39946  22396776.096    22396787.9114
  20575416.277   -23573181.488 9 -18344819.31548  20575417.858    20575428.5804
  22879720.649    -8637339.268 8  -6528549.76646  22879718.658    22879733.8374
  20872140.355   -20234131.101 9 -15757034.66747  20872144.514    20872155.0104
  21534781.525   -15033281.371 8 -11699399.43047  21534784.517    21534796.4294
  20965703.903   -20830767.817 9 -16215426.90547  20965704.935    20965716.4004
  23934311.181     -124306.304 7    -78289.52454                  23934327.1344
  24434670.953    -2849664.106 7  -2207506.76645  24434665.681    24434681.9064
 00  5 24  1 36 30.0000000  0  8 09 21 05 29 15 23 30 25
  22413969.907    -9414964.635 8  -7323740.12046  22413974.333    22413986.6714
  20566724.412   -23618848.445 9 -18380403.94648  20566727.649    20566738.3414
  22869933.943    -8688757.186 8  -6568615.61846  22869933.658    22869948.8704
  20866857.808   -20261894.918 9 -15778668.81647  20866861.449    20866871.7464
  21530671.974   -15054883.572 9 -11716232.30647  21530673.866    21530685.9434
  20972557.341   -20794730.916 9 -16187346.25047  20972562.797    20972574.3834
  23916561.849     -217582.084 8   -150971.59544  23916562.331    23916578.7614
  24415194.476    -2952015.672 7  -2287261.03145  24415188.872    24415204.8914
 00  5 24  1 37  0.0000000  0  8 09 21 05 29 15 23 30 25
  22431230.770    -9324281.365 8  -7253077.86046  22431230.894    22431243.0524
  20558103.125   -23664153.244 9 -18415706.37748  20558106.096    20558116.8874
  22860227.760    -8739762.044 8  -6608359.61146  22860228.309    22860242.7364
  20861613.962   -20289447.661 9 -15800138.47947  20861618.250    20861628.3744
  21526680.128   -15075853.117 9 -11732572.21547  21526683.413    21526695.7804
  20979493.986   -20758299.126 9 -16158957.87547  20979495.616    20979507.1064
  23898816.354     -310774.174 7   -223588.53245  23898828.854    23898845.9364
  24395716.300    -3054242.924 7  -2366918.46445  24395733.284    24395750.1624
 00  5 24  1 37 30.0000000  0  8 09 21 05 29 15 23 30 25
  22448542.328    -9233292.688 8  -7182177.61546  22448545.538    22448556.8414
  20549551.772   -23709093.742 9 -18450724.94248  20549554.450    20549565.0584
  22850601.696    -8790351.605 8  -6647780.02046  22850601.817    22850615.7294
  20856410.631   -20316790.094 9 -15821444.28047  20856415.062    20856425.1514
  21522811.396   -15096189.148 9 -11748418.48047  21522814.394    21522825.9114
  20986500.309   -20721472.403 9 -16130261.75747  20986503.731    20986515.0474
  23881104.193     -403879.557 7   -296137.91045  23881110.383    23881125.8384
  24376309.014    -3156344.471 7  -2446477.95045  24376304.685    24376321.8504
 00  5 24  1 38  0.0000000  0  8 09 21 05 29 15 23 30 25
  22465912.235    -9142001.660 8  -7111041.74146  22465917.766    22465929.3584
  20541069.656   -23753667.728 9 -18485457.90748  20541072.177    20541083.2624
  22841051.872    -8840523.500 8  -6686874.94446  22841054.378    22841068.6014
  20851248.691   -20343921.718 9 -15842585.79147  20851251.838    20851262.2604
  21519063.518   -15115890.984 9 -11763770.55047  21519065.070    21519077.1154
  20993584.279   -20684250.309 9 -16101257.56347  20993586.671    20993598.1334
  23863412.731     -496895.314 7   -368617.45445  23863409.717    23863425.5194
  24356883.383    -3258318.561 7  -2525938.05045  24356898.340    24356916.7574
 00  5 24  1 38 30.0000000  0  8 09 21 05 29 15 23 30 25
  22483346.301    -9050411.035 8  -7039672.40946  22483346.697    22483358.1234
  20532657.693   -23797872.978 9 -18519903.54148  20532660.591    20532671.4064
  22831581.522    -8890275.094 8  -6725642.36346  22831587.011    22831601.1104
  20846126.323   -20370843.335 9 -15863563.68147  20846128.929    20846138.9904
  21515432.000   -15134957.891 9 -11778627.87847  21515436.409    21515448.7284
  21000740.576   -20646632.498 9 -16071945.01547  21000744.773    21000756.6884
  23845722.428     -589818.137 7   -441024.58545  23845727.262    23845743.7374
  24337518.130    -3360163.292 7  -2605297.33145  24337519.692    24337535.9174
 00  5 24  1 39  0.0000000  0  8 09 21 05 29 15 23 30 25
  22500823.058    -8958523.497 8  -6968071.73046  22500831.987    22500844.4674
  20524316.987   -23841707.466 9 -18554060.27448  20524319.047    20524329.6694
  22822193.170    -8939604.108 8  -6764080.48346  22822199.560    22822213.9184
  20841040.657   -20397554.589 9 -15884377.64047  20841045.805    20841055.9744
  21511927.435   -15153389.483 9 -11792990.14547  21511928.519    21511941.1944
  21007977.442   -20608618.676 9 -16042323.88647  21007978.676    21007990.5244
  23828061.351     -682644.770 8   -513356.74245  23828062.695    23828080.0864
  24318153.296    -3461877.087 7  -2684554.59845  24318163.996    24318179.6084
 00  5 24  1 39 30.0000000  0  8 09 21 05 29 15 23 30 25
  22518372.078    -8866341.623 8  -6896241.66446  22518373.892    22518385.4164
  20516045.235   -23885168.729 9 -18587926.17748  20516048.496    20516058.9074
  22812889.445    -8988508.186 8  -6802187.48446  22812893.296    22812908.0274
  20835998.657   -20424055.817 9 -15905027.93347  20836002.610    20836013.0084
  21508539.584   -15171185.143 9 -11806856.87247  21508542.236    21508555.4774
  21015283.550   -20570208.615 9 -16012393.99547  21015287.868    21015299.5124
  23810412.010     -775372.272 8   -585611.69545  23810415.927    23810433.4864
  24298835.815    -3563458.050 7  -2763708.41845  24298833.711    24298849.4894
 00  5 24  1 40  0.0000000  0  8 09 21 05 29 15 23 30 25
  22535967.001    -8773868.329 8  -6824184.51846  22535970.723    22535983.7574
  20507846.288   -23928254.824 9 -18621499.74548  20507849.545    20507859.9924
  22803663.732    -9036985.000 8  -6839961.59246  22803668.287    22803682.5014
  20830996.748   -20450347.217 9 -15925514.72947  20830999.765    20831010.3224
  21505274.700   -15188344.406 9 -11820227.71747  21505277.288    21505290.8854
  21022669.826   -20531402.137 9 -15982155.21647  21022673.071    21022684.2964
  23792782.134     -867997.695 8   -657787.11645  23792791.602    23792807.9024
  24279526.408    -3664904.476 7  -2842757.34845  24279528.761    24279545.2174
 00  5 24  1 40 30.0000000  0  8 09 21 05 29 15 23 30 25
  22553614.799    -8681106.479 8  -6751902.52646  22553622.143    22553635.0854
  20499719.427   -23970963.422 9 -18654779.16848  20499722.532    20499732.7174
  22794523.287    -9085031.935 8  -6877400.72846  22794526.267    22794540.4274
  20826033.823   -20476429.160 9 -15945838.32347  20826036.171    20826046.8774
  21502131.265   -15204866.482 9 -11833102.05747  21502133.154    21502145.7984
  21030128.301   -20492199.047 9 -15951607.38347  21030133.296    21030144.3264
  23775171.842     -960517.979 7   -729880.59445  23775183.435    23775201.1694
  24260246.278    -3766214.846 8  -2921700.31945  24260251.204    24260265.4704
 00  5 24  1 41  0.0000000  0  8 09 21 05 29 15 23 30 25
  22571322.727    -8588058.789 8  -6679397.78546  22571329.492    22571341.5314
  20491663.750   -24013292.661 9 -18687762.98148  20491667.355    20491678.0044
  22785462.874    -9132646.638 8  -6914503.04946  22785464.484    22785478.5584
  20821109.568   -20502301.638 9 -15965998.68147  20821113.089    20821123.4634
  21499107.226   -15220751.065 9 -11845479.66347  21499110.219    21499122.5674
  21037666.201   -20452599.095 9 -15920750.29947  21037668.885    21037679.8454
  23757605.119    -1052929.760 8   -801889.53545  23757598.946    23757614.7714
  24240999.513    -3867387.474 7  -3000535.97845  24240997.298    24241012.7144
 00  5 24  1 41 30.0000000  0  8 09 21 05 29 15 23 30 25
  22589085.934    -8494728.094 8  -6606672.48846  22589089.577    22589101.6924
  20483681.626   -24055240.297 9 -18720449.43648  20483684.720    20483695.7014
  22776486.897    -9179826.751 8  -6951266.73446  22776486.162    22776501.2544
  20816226.759   -20527964.692 9 -15985995.83647  20816229.693    20816239.7854
  21496203.824   -15235997.691 9 -11857360.14447  21496208.959    21496220.5424
  21045278.870   -20412601.932 9 -15889583.69947  21045280.070    21045291.2234
  23740032.697    -1145229.948 8   -873811.52245  23740034.989    23740050.8864
  24221763.973    -3968420.522 7  -3079262.88845  24221770.586    24221786.2684
 00  5 24  1 42  0.0000000  0  8 09 21 05 29 15 23 30 25
  22606902.558    -8401116.821 8  -6533728.57546  22606903.020    22606914.5264
  20475773.279   -24096804.378 9 -18752837.01348  20475775.650    20475786.2554
  22767588.774    -9226569.707 8  -6987689.77146  22767591.287    22767606.0934
  20811382.790   -20553418.777 9 -16005830.18647  20811386.159    20811395.9974
  21493425.631   -15250605.826 9 -11868743.10947  21493429.428    21493441.3264
  21052964.362   -20372207.569 9 -15858107.59847  21052966.617    21052978.0594
  23722487.750    -1237415.356 8   -945644.10045  23722492.238    23722508.4454
  24202575.724    -4069312.257 8  -3157879.69745  24202573.423    24202588.9824
 00  5 24  1 42 30.0000000  0  8 09 21 05 29 15 23 30 25
  22624765.619    -8307227.981 8  -6460568.37846  22624769.021    22624782.0454
  20467938.208   -24137982.674 9 -18784923.98648  20467939.641    20467950.3024
  22758777.068    -9272873.194 8  -7023770.35946  22758779.603    22758794.6794
  20806577.945   -20578663.951 9 -16025501.73547  20806581.565    20806591.9864
  21490768.873   -15264575.024 9 -11879628.20747  21490771.230    21490783.4634
  21060726.575   -20331415.931 9 -15826321.92647  21060728.786    21060740.6114
  23704969.843    -1329483.152 8  -1017384.99845  23704971.245    23704989.3344
  24183395.825    -4170061.209 8  -3236385.20345  24183401.250    24183415.3824
 00  5 24  1 43  0.0000000  0  8 09 21 05 29 15 23 30 25
  22642687.339    -8213064.336 8  -6387194.02646  22642688.563    22642699.5574
  20460173.810   -24178773.010 9 -18816708.64248  20460177.415    20460188.0934
  22750055.749    -9318734.863 8  -7059506.67946  22750052.904    22750067.5634
  20801813.847   -20603700.209 9 -16045010.48747  20801817.499    20801827.7374
  21488231.913   -15277905.008 9 -11890015.21647  21488234.187    21488246.8454
  21068563.442   -20290226.617 9 -15794226.38047  21068566.905    21068578.7004
  23687471.307    -1421429.934 8  -1089031.58745  23687474.838    23687491.0754
  24164258.066    -4270665.663 8  -3314778.17845  24164257.811    24164270.4884
 00  5 24  1 43 30.0000000  0  8 09 21 05 29 15 23 30 25
  22660660.063    -8118628.707 8  -6313607.72346  22660657.890    22660670.4584
  20452486.051   -24219173.242 9 -18848189.33048  20452489.686    20452500.4684
  22741408.201    -9364152.343 8  -7094896.86046  22741410.553    22741424.7534
  20797089.946   -20628527.911 9 -16064356.73547  20797092.819    20797103.2794
  21485816.767   -15290595.432 9 -11899903.85747  21485819.136    21485832.5454
  21076477.823   -20248639.367 9 -15761820.75347  21076481.004    21076492.6584
  23670005.824    -1513252.404 8  -1160581.36945  23670002.515    23670017.3284
  24145141.379    -4371124.003 8  -3393057.23245  24145140.415    24145153.3414
 00  5 24  1 44  0.0000000  0  8 09 21 05 29 15 23 30 25
  22678677.452    -8023923.868 8  -6239811.66346  22678679.523    22678691.6334
  20444874.069   -24259181.063 9 -18879364.22848  20444876.381    20444886.8394
  22732849.539    -9409123.555 8  -7129939.32446  22732852.293    22732867.1704
  20792404.930   -20653147.106 9 -16083540.50347  20792408.001    20792418.5884
  21483523.071   -15302645.899 9 -11909293.82547  21483526.581    21483539.0024
  21084469.808   -20206654.209 9 -15729105.06747  21084470.486    21084482.0764
  23652544.280    -1604948.009 8  -1232032.27045  23652551.064    23652567.9724
  24126045.399    -4471434.146 8  -3471220.86145  24126050.680    24126065.1894
 00  5 24  1 44 30.0000000  0  8 09 21 05 29 15 23 30 25
  22696746.432    -7928952.418 8  -6165807.84046  22696752.333    22696764.6424
  20437334.216   -24298794.859 9 -18910232.09848  20437337.877    20437348.5714
  22724379.975    -9453646.170 8  -7164632.24146  22724380.384    22724394.8284
  20787760.075   -20677557.817 9 -16102561.80748  20787762.977    20787773.4344
  21481352.731   -15314056.072 9 -11918184.85347  21481355.130    21481367.5894
  21092532.197   -20164270.997 9 -15696079.20947  21092535.450    21092547.3374
  23635119.505    -1696513.362 8  -1303381.65645  23635127.566    23635144.3194
  24106978.956    -4571595.043 7  -3549268.18545  24106989.504    24107005.0134
 00  5 24  1 45  0.0000000  0  8 09 21 05 29 15 23 30 25
  22714872.446    -7833717.180 8  -6091598.43546  22714875.229    22714887.6364
  20429873.353   -24338011.945 9 -18940790.83148  20429875.142    20429886.0554
  22715987.658    -9497717.943 8  -7198973.84846  22715994.265    22716007.8184
  20783155.823   -20701760.533 9 -16121421.02548  20783157.851    20783167.7784
  21479303.748   -15324825.836 9 -11926576.88447  21479305.837    21479317.0864
  21100673.910   -20121489.545 9 -15662743.03547  21100676.679    21100688.1294
  23617728.416    -1787945.366 8  -1374627.14445  23617728.967    23617744.9264
  24087953.397    -4671604.328 8  -3627197.36545  24087959.284    24087974.7924
 00  5 24  1 45 30.0000000  0  8 09 21 05 29 15 23 30 25
  22733045.279    -7738220.810 8  -6017185.55546  22733047.317    22733058.8004
  20422484.085   -24376830.194 9 -18971038.77948  20422488.483    20422499.5004
  22707688.824    -9541336.600 8  -7232962.35646  22707693.204    22707707.3614
  20778589.378   -20725755.100 9 -16140118.06648  20778591.929    20778601.5264
  21477375.189   -15334955.020 9 -11934469.73147  21477378.138    21477390.0944
  21108891.870   -20078309.760 9 -15629096.47447  21108893.645    21108905.0574
  23600347.893    -1879240.748 8  -1445766.18145  23600354.700    23600371.8014
  24068953.204    -4771460.603 7  -3705007.35145  24068956.751    24068971.6914
 00  5 24  1 46  0.0000000  0  8 09 21 05 29 15 23 30 25
  22751265.446    -7642466.019 8  -5942571.27546  22751268.588    22751281.0034
  20415175.325   -24415248.041 9 -19000974.73348  20415177.534    20415188.5444
  22699476.431    -9584499.870 8  -7266596.03946  22699479.520    22699493.7914
  20774062.530   -20749541.797 9 -16158653.13548  20774065.406    20774074.8114
  21475571.314   -15344443.434 9 -11941863.27947  21475572.680    21475583.8594
  21117183.718   -20034731.620 9 -15595139.50747  21117186.268    21117197.9314
  23583012.540    -1970396.502 8  -1516796.41445  23583009.259    23583025.4184
  24049975.634    -4871162.508 8  -3782697.04745  24049984.951    24049999.8174
 00  5 24  1 46 30.0000000  0  8 09 21 05 29 15 23 30 25
  22769538.483    -7546455.767 8  -5867757.97946  22769538.963    22769551.0894
  20407940.205   -24453263.109 9 -19030596.82648  20407943.623    20407954.5284
  22691345.879    -9627205.588 8  -7299873.17246  22691352.937    22691366.9254
  20769574.074   -20773120.813 9 -16177026.35148  20769578.042    20769588.4434
  21473883.353   -15353290.522 9 -11948757.08347  21473888.782    21473900.0914
  21125551.482   -19990755.212 9 -15560872.19447  21125554.554    21125566.4154
  23565690.652    -2061409.394 8  -1587715.31445  23565689.317    23565705.8234
  24031041.908    -4970708.109 8  -3860264.94245  24031042.440    24031056.8274
 00  5 24  1 47  0.0000000  0  8 09 21 05 29 15 23 30 25
  22787851.184    -7450192.694 8  -5792747.66646  22787857.129    22787869.7714
  20400783.807   -24490872.897 9 -19059903.12148  20400786.689    20400797.3004
  22683309.867    -9669451.440 8  -7332791.96846  22683314.134    22683327.2434
  20765126.818   -20796492.141 9 -16195237.73448  20765130.640    20765141.2594
  21472325.093   -15361496.380 9 -11955151.22647  21472327.425    21472339.5354
  21133995.505   -19946380.383 9 -15526294.43447  21133999.044    21134010.8514
  23548392.536    -2152276.157 8  -1658520.38045  23548398.152    23548414.2064
  24012124.056    -5070095.638 8  -3937709.63545  24012128.799    24012142.9204
 00  5 24  1 47 30.0000000  0  8 09 21 05 29 15 23 30 25
  22806224.074    -7353679.473 8  -5717542.44746  22806223.079    22806233.9004
  20393706.032   -24528075.772 9 -19088892.32648  20393707.286    20393717.8234
  22675359.888    -9711235.362 8  -7365350.81646  22675362.369    22675376.4504
  20760720.550   -20819656.188 9 -16213287.60448  20760722.468    20760733.0244
  21470882.610   -15369060.997 8 -11961045.69647  21470887.199    21470900.5574
  21142515.904   -19901606.984 9 -15491406.09147  21142518.909    21142531.0154
  23531129.543    -2242993.939 8  -1729209.32045  23531134.771    23531150.8544
  23993248.191    -5169323.611 8  -4015030.05545  23993246.303    23993259.7254
 00  5 24  1 48  0.0000000  0  8 09 21 05 29 15 23 30 25
  22824633.643    -7256918.759 8  -5642144.31146  22824635.759    22824646.9744
  20386700.807   -24564869.685 9 -19117562.87048  20386705.405    20386715.8214
  22667498.313    -9752554.976 8  -7397547.86246  22667499.704    22667512.7524
  20756350.579   -20842612.869 9 -16231175.89348  20756353.709    20756364.2654
  21469567.015   -15375984.330 9 -11966440.46347  21469570.316    21469583.1844
  21151111.960   -19856435.116 9 -15456207.26047  21151114.963    21151126.9014
  23513901.329    -2333559.490 8  -1799779.66445  23513900.835    23513916.9494
  23974385.296    -5268390.469 8  -4092224.90445  23974393.936    23974408.6814
 00  5 24  1 48 30.0000000  0  8 09 21 05 29 15 23 30 25
  22843092.978    -7159913.371 8  -5566555.57446  22843095.854    22843106.3324
  20379777.594   -24601252.126 9 -19145912.78548  20379781.880    20379792.7454
  22659717.074    -9793408.216 8  -7429381.47546  22659725.437    22659739.4014
  20752020.229   -20865362.091 9 -16248902.51848  20752024.643    20752035.2164
  21468371.659   -15382266.069 9 -11971335.29447  21468375.040    21468386.5144
  21159784.833   -19810864.658 9 -15420697.83947  21159786.834    21159798.1804
  23496695.545    -2423969.541 8  -1870228.82645  23496696.176    23496712.8894
  23955574.585    -5367294.133 8  -4169292.60145  23955574.689    23955587.8484
 00  5 24  1 49  0.0000000  0  8 09 21 05 29 15 23 30 25
  22861593.190    -7062666.173 8  -5490778.35346  22861600.874    22861611.9614
  20372934.603   -24637221.706 9 -19173940.97748  20372937.460    20372947.6954
  22652037.543    -9833792.939 8  -7460850.00346  22652040.725    22652054.3854
  20747731.692   -20887904.432 9 -16266467.93248  20747735.212    20747745.5104
  21467297.439   -15387906.156 8 -11975730.12147  21467301.384    21467313.5524
  21168529.259   -19764895.615 9 -15384877.83047  21168534.453    21168546.1024
  23479515.450    -2514221.124 8  -1940554.46846  23479521.585    23479537.9774
  23936778.768    -5466033.603 8  -4246232.36645  23936784.418    23936797.5314
 00  5 24  1 49 30.0000000  0  8 09 21 05 29 15 23 30 25
  22880146.199    -6965179.598 8  -5414814.64146  22880151.773    22880162.4054
  20366169.724   -24672776.295 9 -19201645.80948  20366171.382    20366181.7044
  22644441.886    -9873707.185 8  -7491951.92346  22644444.605    22644458.3544
  20743481.991   -20910239.814 9 -16283872.07048  20743484.712    20743495.1454
  21466346.002   -15392904.402 8 -11979624.81747  21466349.670    21466362.6184
  21177355.834   -19718527.849 9 -15348747.13047  21177357.932    21177369.7914
  23462379.562    -2604310.845 8  -2010753.98546  23462377.901    23462393.1284
  23918022.250    -5564607.114 8  -4323042.80545  23918026.070    23918040.9094
 00  5 24  1 50  0.0000000  0  8 09 21 05 29 15 23 30 25
  22898748.509    -6867456.429 8  -5338666.54046  22898748.066    22898758.1914
  20359480.706   -24707913.609 9 -19229025.49448  20359484.745    20359495.4544
  22636938.016    -9913148.968 8  -7522685.66846  22636939.115    22636952.6144
  20739271.643   -20932368.264 9 -16301114.96148  20739273.732    20739283.7554
  21465516.318   -15397261.330 8 -11983019.78447  21465520.246    21465532.5094
  21186252.901   -19671761.536 9 -15312305.86947  21186257.418    21186269.0254
  23445258.054    -2694235.842 8  -2080825.16746  23445265.342    23445281.8704
  23899294.377    -5663012.928 8  -4399722.53445  23899300.817    23899314.5224
 00  5 24  1 50 30.0000000  0  8 09 21 05 29 15 23 30 25
  22917388.569    -6769499.190 8  -5262336.01546  22917388.852    22917398.3484
  20352874.058   -24742631.302 9 -19256078.19948  20352878.368    20352888.6184
  22629516.934    -9952115.943 8  -7553049.42946  22629523.737    22629537.8054
  20735098.690   -20954290.112 9 -16318196.86648  20735102.529    20735112.5554
  21464811.587   -15400976.964 9 -11985915.04047  21464814.271    21464826.5754
  21195230.339   -19624596.724 9 -15275554.08347  21195232.485    21195243.9514
  23428190.216    -2783992.791 8  -2150765.41046  23428184.732    23428202.0174
  23880611.385    -5761249.376 8  -4476270.33145  23880606.003    23880620.1004
 00  5 24  1 51  0.0000000  0  8 09 21 05 29 15 23 30 25
  22936072.435    -6671310.701 8  -5185825.28046  22936073.355    22936082.4444
  20346349.001   -24776927.684 9 -19282802.60748  20346352.159    20346362.3914
  22622201.869    -9990606.235 8  -7583041.73446  22622199.340    22622213.1354
  20730966.966   -20976005.345 9 -16335117.77048  20730969.996    20730980.1484
  21464225.727   -15404051.330 8 -11988310.63347  21464228.708    21464241.2094
  21204280.721   -19577033.391 9 -15238491.75947  21204283.446    21204295.2154
  23411138.942    -2873578.572 8  -2220572.28246  23411137.909    23411153.1624
  23861937.419    -5859314.723 8  -4552684.82045  23861945.571    23861958.1304
 00  5 24  1 51 30.0000000  0  8 09 21 05 29 15 23 30 25
  22954799.521    -6572893.433 8  -5109136.27846  22954801.135    22954810.1844
  20339903.416   -24810800.666 9 -19309197.08848  20339906.247    20339916.4714
  22614962.337   -10028617.664 8  -7612660.89946  22614966.421    22614979.6544
  20726873.893   -20997513.922 9 -16351877.65748  20726876.882    20726887.1974
  21463763.944   -15406484.198 9 -11990206.33047  21463766.400    21463778.6734
  21213408.178   -19529071.685 9 -15201119.02147  21213410.253    21213422.3664
  23394122.063    -2962990.064 8  -2290243.37646  23394123.096    23394138.0864
  23843309.456    -5957207.475 8  -4628964.79445  23843316.768    23843329.0954
 00  5 24  1 52  0.0000000  0  8 09 21 05 29 15 23 30 25
  22973565.095    -6474250.298 8  -5032271.25246  22973571.856    22973582.2334
  20333537.976   -24844248.293 9 -19335260.12048  20333541.144    20333551.4794
  22607826.658   -10066148.225 8  -7641905.34446  22607824.134    22607838.1524
  20722818.742   -21018816.211 9 -16368476.78048  20722823.163    20722833.4584
  21463421.730   -15408276.007 9 -11991602.50647  21463424.955    21463437.7944
  21222609.407   -19480711.757 9 -15163435.97947  21222612.644    21222624.9444
  23377139.160    -3052223.844 8  -2359775.98746  23377141.407    23377158.1514
  23824716.138    -6054926.297 8  -4705109.23845  23824721.235    23824735.4214
 00  5 24  1 52 30.0000000  0  8 09 21 05 29 15 23 30 25
  22992380.659    -6375383.675 8  -4955232.10146  22992385.369    22992395.7024
  20327254.714   -24877268.343 9 -19360989.97648  20327257.670    20327268.0824
  22600771.928   -10103195.941 8  -7670773.54146  22600773.482    22600788.4784
  20718806.328   -21039912.284 9 -16384915.22748  20718808.348    20718818.9554
  21463202.234   -15409427.029 9 -11992499.37847  21463205.970    21463218.7124
  21231891.718   -19431953.593 9 -15125442.62947  21231891.564    21231903.3464
  23360188.401    -3141276.965 8  -2429167.79346  23360195.582    23360211.2764
  23806148.396    -6152469.109 8  -4781116.53645  23806159.360    23806173.0554
 00  5 24  1 53  0.0000000  0  8 09 21 05 29 15 23 30 25
  23011239.282    -6276296.626 8  -4878021.11746  23011241.407    23011250.8584
  20321052.539   -24909859.028 9 -19386385.26348  20321055.888    20321066.4724
  22593815.311   -10139758.820 8  -7699263.92446  22593815.917    22593830.0754
  20714830.918   -21060802.136 9 -16401192.97048  20714833.244    20714843.9374
  21463107.133   -15409937.413 9 -11992897.06447  21463108.802    21463121.3014
  21241240.757   -19382797.396 9 -15087139.11747  21241245.872    21241257.5144
  23343282.773    -3230146.133 8  -2498416.23446  23343284.408    23343300.4794
  23787632.551    -6249834.952 8  -4856985.91545  23787630.308    23787644.8354
 00  5 24  1 53 30.0000000  0  8 09 21 05 29 15 23 30 25
  23030136.167    -6176991.718 8  -4800640.40846  23030136.974    23030146.6804
  20314932.920   -24942018.251 9 -19411444.35048  20314935.995    20314946.8124
  22586948.013   -10175834.918 8  -7727374.98846  22586951.084    22586964.5464
  20710893.331   -21081485.872 9 -16417310.10748  20710897.093    20710908.0924
  21463127.937   -15409807.239 8 -11992795.60047  21463133.201    21463146.3204
  21250670.718   -19333243.249 9 -15048525.50747  21250675.412    21250687.0864
  23326408.189    -3318828.439 8  -2567519.04446  23326407.877    23326424.0144
  23769122.908    -6347021.713 8  -4932715.74445  23769136.631    23769150.2024
 00  5 24  1 54  0.0000000  0  8 09 21 05 29 15 23 30 25
  23049076.358    -6077471.796 8  -4723092.12246  23049075.782    23049084.8454
  20308895.793   -24973743.883 9 -19436165.57448  20308898.542    20308909.6524
  22580175.389   -10211422.232 8  -7755105.18146  22580178.684    22580192.2034
  20706996.463   -21101963.560 9 -16433266.69748  20707000.583    20707010.9924
  21463276.420   -15409036.794 8 -11992195.21947  21463279.456    21463292.4304
  21260179.204   -19283291.234 9 -15009601.86347  21260181.032    21260192.4174
  23309568.824    -3407320.521 8  -2636473.66346  23309568.562    23309583.9944
  23750677.160    -6444027.759 8  -5008304.77745  23750676.099    23750690.7914
 00  5 24  1 54 30.0000000  0  8 09 21 05 29 15 23 30 25
  23068055.319    -5977739.216 8  -4645378.11846  23068054.562    23068063.1804
  20302940.814   -25005034.150 9 -19460547.55248  20302944.184    20302955.1294
  22573497.570   -10246518.668 8  -7782452.88446  22573500.099    22573513.7264
  20703139.945   -21122235.429 9 -16449062.89148  20703143.080    20703153.0104
  21463546.346   -15407626.419 8 -11991096.20547  21463548.292    21463560.9504
  21269758.979   -19232941.497 9 -14970368.31547  21269762.270    21269773.8314
  23292764.975    -3495619.302 8  -2705277.64246  23292765.785    23292781.2894
  23732243.666    -6540851.698 8  -5083751.89345  23732252.754    23732265.6914
 00  5 24  1 55  0.0000000  0  8 09 21 05 29 15 23 30 25
  23087062.629    -5877796.590 8  -4567500.45746  23087071.688    23087081.9224
  20297071.643   -25035887.272 9 -19484588.89648  20297073.132    20297083.6364
  22566909.161   -10281122.445 8  -7809416.67246  22566914.717    22566928.5144
  20699322.236   -21142301.436 9 -16464698.67548  20699324.575    20699334.4664
  21463932.902   -15405576.397 8 -11989498.76047  21463937.922    21463951.6104
  21279415.773   -19182194.122 9 -14930824.91447  21279418.790    21279430.7024
  23275989.676    -3583721.556 8  -2773928.49646  23275999.477    23276015.6764
  23713855.969    -6637492.276 8  -5159056.12345  23713862.538    23713874.5564
 00  5 24  1 55 30.0000000  0  8 09 21 05 29 15 23 30 25
  23106131.804    -5777646.772 8  -4489461.32946  23106128.437    23106139.2464
  20291283.385   -25066300.655 9 -19508287.58448  20291285.652    20291296.2474
  22560419.751   -10315231.632 8  -7835995.06646  22560424.036    22560438.1204
  20695540.878   -21162161.859 9 -16480174.25748  20695544.768    20695555.2444
  21464444.558   -15402887.074 8 -11987403.15547  21464449.946    21464463.1224
  21289151.191   -19131049.354 9 -14890971.85847  21289151.367    21289162.9584
  23259271.174    -3671624.264 8  -2842423.81746  23259272.640    23259287.9994
  23695507.569    -6733947.528 8  -5234215.97645  23695506.519    23695519.1154
 00  5 24  1 56  0.0000000  0  8 09 21 05 29 15 23 30 25
  23125218.802    -5677292.439 8  -4411262.82046  23125225.323    23125235.7634
  20285578.627   -25096272.721 9 -19531642.38548  20285581.910    20285592.7694
  22554025.032   -10348844.192 8  -7862186.45446  22554027.954    22554041.6224
  20691801.490   -21181816.451 9 -16495489.44748  20691804.737    20691815.0574
  21465081.158   -15399558.960 8 -11984809.79747  21465083.650    21465095.9084
  21298958.406   -19079507.437 9 -14850809.33747  21298960.097    21298971.0474
  23242576.332    -3759324.035 8  -2910761.05146  23242584.153    23242598.8954
  23677173.031    -6830216.146 8  -5309230.41045  23677186.882    23677201.0734
 00  5 24  1 56 30.0000000  0  8 09 21 05 29 15 23 30 25
  23144357.175    -5576735.936 8  -4332906.77546  23144360.251    23144370.3584
  20279960.331   -25125801.524 9 -19554651.78148  20279962.936    20279973.3044
  22547724.742   -10381958.542 8  -7887989.61246  22547726.338    22547739.9074
  20688100.991   -21201265.516 9 -16510644.49048  20688104.169    20688113.7044
  21465835.035   -15395592.346 8 -11981718.91147  21465837.813    21465851.2814
  21308840.079   -19027568.442 9 -14810337.40147  21308843.054    21308855.0124
  23225934.305    -3846817.794 8  -2978937.73246  23225934.738    23225948.8044
  23658910.494    -6926296.397 8  -5384098.01845  23658903.528    23658918.7904
 00  5 24  1 57  0.0000000  0  8 09 21 05 29 15 23 30 25
  23163533.807    -5475979.987 8  -4254395.30846  23163532.868    23163543.1164
  20274425.080   -25154885.056 9 -19577314.22648  20274428.185    20274439.0374
  22541517.344   -10414572.877 8  -7913403.16246  22541519.997    22541532.8964
  20684437.750   -21220509.104 9 -16525639.42048  20684441.766    20684451.6124
  21466711.362   -15390987.628 8 -11978130.78947  21466714.240    21466726.9604
  21318800.702   -18975232.714 9 -14769556.30747  21318802.509    21318814.0654
  23209321.193    -3934102.539 8  -3046951.54146  23209322.802    23209338.9484
  23640642.951    -7022186.799 8  -5458817.66345  23640656.875    23640671.3904
 00  5 24  1 57 30.0000000  0  8 09 21 05 29 15 23 30 25
  23182736.164    -5375027.275 8  -4175730.49646  23182742.782    23182753.7374
  20268975.434   -25183521.762 9 -19599628.49048  20268978.948    20268989.5164
  22535408.520   -10446685.355 8  -7938425.65146  22535408.938    22535422.0544
  20680815.612   -21239547.124 9 -16540474.16148  20680819.266    20680828.8774
  21467708.559   -15385745.318 8 -11974045.85247  21467711.561    21467724.4254
  21328837.697   -18922500.328 9 -14728466.14647  21328837.405    21328848.1994
  23192746.692    -4021175.076 8  -3114799.97946  23192753.916    23192769.2664
  23622443.894    -7117885.760 8  -5533388.21745  23622446.472    23622459.6674
 00  5 24  1 58  0.0000000  0  8 09 21 05 29 15 23 30 25
  23201983.430    -5273880.361 8  -4096914.40846  23201990.107    23202001.8624
  20263611.765   -25211709.153 9 -19621592.64248  20263615.168    20263625.4544
  22529387.721   -10478294.041 8  -7963055.57246  22529393.203    22529406.5504
  20677230.831   -21258379.889 9 -16555148.95048  20677235.335    20677244.8614
  21468826.594   -15379865.933 8 -11969464.48847  21468830.863    21468843.0314
  21338942.792   -18869371.398 9 -14687066.99047  21338947.079    21338958.9974
  23176227.639    -4108032.110 8  -3182480.49646  23176226.633    23176240.5994
  23604277.365    -7213392.021 8  -5607808.55046  23604271.560    23604285.1994
 00  5 24  1 58 30.0000000  0  8 09 21 05 29 15 23 30 25
  23221271.531    -5172541.925 8  -4017949.02846  23221275.335    23221285.0594
  20258334.147   -25239445.763 9 -19643205.54148  20258337.107    20258347.5234
  22523472.525   -10509397.191 8  -7987291.57846  22523474.916    22523487.5024
  20673687.392   -21277007.274 9 -16569663.71348  20673690.625    20673700.1134
  21470069.121   -15373349.872 8 -11964387.00047  21470071.169    21470083.5944
  21349130.159   -18815846.449 9 -14645359.23847  21349132.663    21349144.4864
  23159732.336    -4194670.583 8  -3249990.70646  23159739.018    23159754.0414
  23586121.506    -7308703.712 8  -5682077.27546  23586134.528    23586149.1124
 00  5 24  1 59  0.0000000  0  8 09 21 05 29 15 23 30 25
  23240589.501    -5071014.398 8  -3938836.29546  23240593.465    23240604.6994
  20253143.238   -25266729.310 9 -19664465.39448  20253145.347    20253155.5394
  22517650.563   -10539993.044 8  -8011132.28846  22517652.123    22517665.1994
  20670181.705   -21295429.591 9 -16584018.68048  20670184.633    20670194.7164
  21471428.117   -15366197.737 8 -11958813.88047  21471431.985    21471444.2644
  21359390.659   -18761925.707 9 -14603343.08247  21359393.764    21359405.3084
  23143293.271    -4281087.326 8  -3317328.10646  23143293.184    23143309.3334
  23568038.687    -7403819.384 8  -5756193.27946  23568035.480    23568048.1684
 00  5 24  1 59 30.0000000  0  8 09 21 05 29 15 23 30 25
  23259939.319    -4969300.487 8  -3859578.34146  23259949.417    23259960.6244
  20248037.725   -25293558.217 9 -19685370.97748  20248039.994    20248050.3434
  22511924.709   -10570079.927 8  -8034576.38446  22511926.792    22511939.7084
  20666715.098   -21313646.481 9 -16598213.56248  20666718.072    20666728.3454
  21472910.860   -15358410.238 9 -11952745.67947  21472913.919    21472926.4714
  21369728.637   -18707609.530 9 -14561018.78447  21369729.674    21369740.9454
  23126889.695    -4367278.705 8  -3384489.90546  23126893.412    23126906.6464
  23549963.536    -7498737.729 8  -5830155.51246  23549972.611    23549986.0694
 00  5 24  2  0  0.0000000  0  8 09 21 05 29 15 23 30 25
  23279340.511    -4867402.974 8  -3780177.28346  23279339.395    23279349.9894
  20243018.128   -25319930.380 9 -19705920.65948  20243021.396    20243031.9134
  22506294.121   -10599656.044 8  -8057622.47446  22506298.070    22506310.8054
  20663286.704   -21331658.501 9 -16612248.79448  20663290.628    20663300.3554
  21474514.213   -15349987.935 9 -11946182.81447  21474517.205    21474529.2174
  21380138.413   -18652898.155 9 -14518386.55347  21380140.719    21380152.4474
  23110531.428    -4453242.128 8  -3451474.08346  23110533.767    23110548.1884
  23531939.330    -7593457.173 8  -5903962.75246  23531947.482    23531960.8294
 00  5 24  2  0 30.0000000  0  8 09 21 05 29 15 23 30 25
  23298753.033    -4765324.198 8  -3700635.01646  23298764.428    23298774.6414
  20238087.035   -25345843.894 9 -19726112.95148  20238090.205    20238100.5044
  22500765.497   -10628719.897 8  -8080269.39546  22500767.131    22500780.8564
  20659898.264   -21349465.202 9 -16626124.03948  20659901.737    20659911.7974
  21476235.129   -15340931.260 8 -11939125.64147  21476239.313    21476252.2744
  21390622.178   -18597791.810 9 -14475446.54147  21390627.204    21390638.7744
  23094214.598    -4538974.162 8  -3518277.89946  23094218.819    23094233.8934
  23513962.550    -7687976.110 8  -5977613.73245  23513961.457    23513973.1734
 00  5 24  2  1  0.0000000  0  8 09 21 05 29 15 23 30 25
  23318217.053    -4663066.738 8  -3620953.49646  23318223.753    23318233.9034
  20233244.362   -25371297.306 9 -19745946.72348  20233246.501    20233256.9934
  22495335.658   -10657269.736 8  -8102515.77646  22495334.530    22495347.0894
  20656549.968   -21367066.950 9 -16639839.58448  20656552.297    20656561.9904
  21478079.854   -15331240.893 8 -11931574.67847  21478083.828    21478096.9734
  21401186.552   -18542290.819 9 -14432199.02247  21401188.882    21401200.0434
  23077947.430    -4624471.824 8  -3584899.09546  23077949.978    23077963.5524
  23496014.513    -7782293.219 8  -6051107.48245  23496012.574    23496025.4694
 00  5 24  2  1 30.0000000  0  8 09 21 05 29 15 23 30 25
  23337715.336    -4560633.134 8  -3541134.70846  23337715.928    23337726.0224
  20228487.563   -25396288.165 9 -19765420.05348  20228490.676    20228501.0904
  22489998.637   -10685303.707 8  -8124360.18346  22489999.550    22490012.2604
  20653239.543   -21384463.791 9 -16653395.45548  20653241.721    20653251.6344
  21480047.422   -15320917.682 9 -11923530.59047  21480048.667    21480060.7404
  21411822.599   -18486395.597 9 -14388644.30347  21411825.359    21411836.5374
  23061718.807    -4709732.009 8  -3651335.25746  23061724.749    23061739.4734
  23478104.441    -7876407.126 8  -6124442.87245  23478103.016    23478115.8854
 00  5 24  2  2  0.0000000  0  8 09 21 05 29 15 23 30 25
  23357243.741    -4458025.941 8  -3461180.67646  23357241.232    23357250.9634
  20223821.426   -25420814.608 9 -19784531.50548  20223823.459    20223833.6764
  22484755.604   -10712820.282 8  -8145801.42346  22484762.712    22484775.5044
  20649966.835   -21401655.585 9 -16666791.53148  20649970.206    20649979.9804
  21482129.947   -15309962.493 8 -11914994.04747  21482133.109    21482144.3874
  21422533.177   -18430106.437 9 -14344782.61847  21422536.607    21422548.0114
  23045541.727    -4794751.236 8  -3717583.63846  23045545.051    23045560.0494
  23460228.932    -7970315.844 8  -6197618.40245  23460232.714    23460246.2704
 00  5 24  2  2 30.0000000  0  8 09 21 05 29 15 23 30 25
  23376791.870    -4355247.837 8  -3381093.49346  23376799.297    23376808.8214
  20219242.479   -25444875.072 9 -19803279.85248  20219244.725    20219255.4144
  22479623.648   -10739817.784 8  -8166838.17746  22479626.101    22479637.8254
  20646734.323   -21418642.577 9 -16680028.01248  20646737.453    20646747.1954
  21484334.808   -15298375.853 9 -11905965.46647  21484338.466    21484349.7824
  21433321.807   -18373423.689 9 -14300614.23847  21433323.056    21433334.4524
  23029416.523    -4879526.472 8  -3783641.92546  23029413.864    23029427.6744
  23442397.129    -8064018.492 8  -6270633.32346  23442402.054    23442416.2754
 00  5 24  2  3  0.0000000  0  8 09 21 05 29 15 23 30 25
  23396386.256    -4252301.374 8  -3300875.11446  23396388.204    23396398.0104
  20214752.600   -25468468.015 9 -19821663.89248  20214755.311    20214765.5774
  22474590.925   -10766294.742 8  -8187469.31646  22474587.621    22474599.3314
  20643540.194   -21435424.641 9 -16693104.81348  20643543.848    20643553.3334
  21486660.057   -15286158.594 9 -11896445.49247  21486662.945    21486674.8424
  21444182.904   -18316347.760 9 -14256139.48747  21444184.330    21444195.5444
  23013326.060    -4964054.669 8  -3849507.72246  23013328.263    23013342.0814
  23424608.086    -8157513.528 8  -6343486.43346  23424610.414    23424624.2154
 00  5 24  2  3 30.0000000  0  8 09 21 05 29 15 23 30 25
  23416006.965    -4149188.981 8  -3220527.41746  23416010.490    23416019.4164
  20210352.466   -25491591.593 9 -19839682.19248  20210354.917    20210365.3084
  22469644.589   -10792249.626 8  -8207693.62846  22469647.688    22469660.7074
  20640384.778   -21452001.776 9 -16706021.92648  20640389.088    20640398.7154
  21489106.623   -15273311.515 9 -11886434.75147  21489107.993    21489118.4604
  21455113.798   -18258879.034 8 -14211358.65347  21455120.141    21455132.1984
  22997282.198    -5048333.020 8  -3915178.80846  22997288.262    22997304.7074
  23406856.338    -8250799.245 8  -6416176.49346  23406858.088    23406871.7684
 00  5 24  2  4  0.0000000  0  8 09 21 05 29 15 23 30 25
  23435661.645    -4045913.209 8  -3140052.38546  23435662.758    23435671.8724
  20206041.663   -25514243.705 9 -19857333.10948  20206044.522    20206054.5934
  22464802.863   -10817680.951 8  -8227509.97446  22464807.798    22464820.5274
  20637269.974   -21468373.997 9 -16718779.35348  20637273.976    20637283.0984
  21491669.120   -15259835.527 9 -11875933.95347  21491672.025    21491683.1364
  21466129.726   -18201017.889 9 -14166272.04847  21466131.000    21466142.5984
  22981291.488    -5132357.893 8  -3980652.36846  22981298.137    22981313.5104
  23389145.331    -8343874.067 8  -6488702.17946  23389147.371    23389160.6444
 00  5 24  2  4 30.0000000  0  8 09 21 05 29 15 23 30 25
  23455342.598    -3942476.771 8  -3059452.21246  23455345.484    23455354.5144
  20201819.255   -25536422.659 9 -19874615.32848  20201823.760    20201833.9104
  22460065.986   -10842587.103 8  -8246917.08146  22460068.681    22460080.7404
  20634194.861   -21484541.370 9 -16731377.15348  20634197.094    20634206.5984
  21494351.280   -15245731.520 8 -11864943.78747  21494355.334    21494366.6144
  21477211.788   -18142764.756 8 -14120879.99447  21477215.842    21477227.5764
  22965358.622    -5216126.436 8  -4045926.26646  22965359.316    22965372.7464
  23371470.468    -8436736.640 8  -6561062.51546  23371476.320    23371488.8724
 00  5 24  2  5  0.0000000  0  8 09 21 05 29 15 23 30 25
  23475050.057    -3838881.970 8  -2978728.62946  23475059.086    23475067.9744
  20197690.893   -25558126.427 9 -19891527.27348  20197693.859    20197703.7264
  22455424.877   -10866966.515 8  -8265913.74046  22455428.983    22455441.2324
  20631156.300   -21500503.990 9 -16743815.40748  20631159.496    20631168.6854
  21497156.946   -15231000.426 9 -11853464.99747  21497158.770    21497171.3774
  21488372.664   -18084120.041 8 -14075182.80047  21488375.549    21488387.5284
  22949456.130    -5299635.329 8  -4110997.78646  22949467.630    22949481.2784
  23353844.899    -8529385.720 8  -6633256.46145  23353844.924    23353858.6924
 00  5 24  2  5 30.0000000  0  8 09 21 05 29 15 23 30 25
  23494794.893    -3735131.088 8  -2897883.38646  23494801.406    23494810.5084
  20193651.806   -25579353.587 9 -19908067.82848  20193654.127    20193664.3194
  22450888.876   -10890817.725 8  -8284498.77846  22450889.681    22450902.5194
  20628157.607   -21516261.798 9 -16756094.05848  20628160.882    20628170.1924
  21500079.059   -15215643.163 8 -11841498.27147  21500081.718    21500093.5654
  21499610.394   -18025084.347 9 -14029180.94347  21499609.815    21499621.4164
  22933627.549    -5382881.446 8  -4175864.50846  22933626.420    22933640.2274
  23336250.679    -8621820.037 8  -6705283.07846  23336254.944    23336268.4854
 00  5 24  2  6  0.0000000  0  8 09 21 05 29 15 23 30 25
  23514562.157    -3631227.011 8  -2816918.78046  23514573.443    23514582.3104
  20189701.242   -25600102.288 9 -19924235.55448  20189705.699    20189715.7824
  22446450.227   -10914139.269 8  -8302671.09446  22446451.518    22446464.4244
  20625199.273   -21531814.903 9 -16768213.18548  20625200.700    20625210.2584
  21503119.795   -15199660.468 8 -11829044.18247  21503122.962    21503134.8324
  21510915.910   -17965658.027 8 -13982874.70547  21510918.219    21510930.1454
  22917830.055    -5465861.766 8  -4240524.15546  22917835.736    22917848.2624
  23318706.818    -8714037.518 8  -6777140.69046  23318706.783    23318719.9014
 00  5 24  2  6 30.0000000  0  8 09 21 05 29 15 23 30 25
  23534372.952    -3527172.129 8  -2735836.68046  23534374.253    23534383.4214
  20185847.354   -25620370.953 9 -19940029.22348  20185848.643    20185858.8174
  22442113.180   -10936929.729 8  -8320429.59646  22442114.950    22442126.5074
  20622276.499   -21547163.187 9 -16780172.70748  20622279.827    20622289.4284
  21506280.031   -15183053.286 8 -11816103.49447  21506282.733    21506294.7054
  21522299.061   -17905841.668 8 -13936264.53347  21522300.611    21522312.4874
  22902096.702    -5548573.021 8  -4304974.12346  22902096.318    22902109.3864
  23301196.006    -8806037.009 8  -6848828.45146  23301199.919    23301212.5994
 00  5 24  2  7  0.0000000  0  8 09 21 05 29 15 23 30 25
  23554199.276    -3422968.767 8  -2654638.88346  23554202.934    23554211.3964
  20182079.889   -25640157.797 9 -19955447.44348  20182083.118    20182093.5364
  22437875.006   -10959187.557 8  -8337773.03446  22437879.006    22437891.0164
  20619393.759   -21562306.760 9 -16791972.70348  20619397.835    20619407.6154
  21509557.882   -15165822.948 8 -11802677.23047  21509561.451    21509573.7124
  21533753.906   -17845635.571 8 -13889350.67947  21533757.010    21533769.7884
  22886404.307    -5631012.235 8  -4369212.09446  22886407.468    22886421.1454
  23283734.505    -8897817.216 8  -6920345.37746  23283734.797    23283747.1684
 00  5 24  2  7 30.0000000  0  8 09 21 05 29 15 23 30 25
  23574052.121    -3318619.612 8  -2573327.52746  23574059.345    23574068.3634
  20178407.933   -25659461.047 9 -19970488.83948  20178410.120    20178419.9634
  22433739.134   -10980911.477 8  -8354700.44246  22433744.211    22433756.8634
  20616550.038   -21577245.499 9 -16803613.08448  20616554.540    20616564.5474
  21512957.327   -15147970.409 8 -11788766.14747  21512959.303    21512971.1374
  21545283.289   -17785040.330 8 -13842133.58947  21545288.249    21545299.7094
  22870766.674    -5713176.004 8  -4433235.45946  22870771.300    22870785.4204
  23266303.954    -8989376.502 8  -6991690.11746  23266311.725    23266325.0494
 00  5 24  2  8  0.0000000  0  8 09 21 05 29 15 23 30 25
  23593940.870    -3214127.138 8  -2491904.49046  23593943.380    23593952.1224
  20174826.509   -25678279.166 9 -19985152.20248  20174828.887    20174838.7954
  22429709.255   -11002100.170 8  -8371210.79646  22429712.113    22429724.8614
  20613747.446   -21591979.347 9 -16815093.80648  20613750.240    20613760.1824
  21516471.875   -15129496.520 8 -11774370.87647  21516474.564    21516486.8744
  21556889.527   -17724056.422 8 -13794613.64147  21556893.225    21556905.2444
  22855188.394    -5795061.361 8  -4497041.88046  22855189.834    22855203.2494
  23248925.610    -9080713.749 8  -7062861.83846  23248930.406    23248943.8664
 00  5 24  2  8 30.0000000  0  9 09 11 21 05 29 15 23 30 25
  23613847.780    -3109493.581 8  -2410371.49246  23613854.499    23613863.1644
  24575553.110    -1241601.89317   -955691.46655  24575555.245    24575563.0374
  20171337.268   -25696610.409 9 -19999436.17148  20171340.540    20171350.3844
  22425775.064   -11022752.365 8  -8387303.08446  22425781.786    22425794.2844
  20610982.829   -21606508.408 9 -16826414.95748  20610985.886    20610995.7284
  21520103.322   -15110402.548 8 -11759492.43147  21520107.553    21520120.5064
  21568569.481   -17662684.399 8 -13746791.27647  21568572.029    21568583.5524
  22839662.028    -5876665.204 8  -4560628.93546  22839661.076    22839674.2514
  23231584.362    -9171827.580 8  -7133859.46946  23231591.421    23231605.3854
 00  5 24  2  9  0.0000000  0  9 09 11 21 05 29 15 23 30 25
  23633785.716    -3004721.649 8  -2328730.72045  23633791.995    23633800.3874
  24563686.553    -1303935.009 7  -1004262.76545  24563692.968    24563702.7764
  20167942.467   -25714453.341 9 -20013339.63548  20167944.946    20167954.9584
  22421952.623   -11042866.529 8  -8402976.12546  22421953.996    22421965.9524
  20608256.817   -21620832.510 9 -16837576.38748  20608260.521    20608269.7874
  21523857.512   -15090689.749 9 -11744131.78047  21523859.917    21523871.7844
  21580321.105   -17600924.846 8 -13698666.93547  21580324.761    21580336.3264
  22824180.614    -5957984.419 8  -4623994.17446  22824185.896    22824199.5664
  23214293.675    -9262716.511 8  -7204681.86146  23214295.046    23214310.4604
 00  5 24  2  9 30.0000000  0  9 09 11 21 05 29 15 23 30 25
  23653756.137    -2899813.655 8  -2246983.96445  23653754.422    23653763.4834
  24551909.686    -1365839.282 7  -1052499.90445  24551914.560    24551920.1474
  20164639.548   -25731805.606 9 -20026860.75548  20164642.679    20164652.8444
  22418224.018   -11062441.563 8  -8418229.04446  22418228.744    22418240.7594
  20605569.305   -21634951.734 9 -16848578.15148  20605573.287    20605582.6374
  21527726.803   -15070359.042 8 -11728289.63247  21527728.022    21527740.4094
  21592147.096   -17538778.454 9 -13650241.16347  21592150.632    21592162.3254
  22808763.361    -6039015.876 8  -4687135.19646  22808765.911    22808778.4984
  23197041.477    -9353379.320 8  -7275328.04446  23197043.484    23197056.3714
 00  5 24  2 10  0.0000000  0  9 09 11 21 05 29 15 23 30 25
  23673750.013    -2794771.911 8  -2165132.93946  23673744.150    23673751.8594
  24540207.919    -1427312.992 7  -1100401.54545  24540215.339    24540224.0584
  20161430.200   -25748666.067 9 -20039998.65948  20161434.316    20161443.9954
  22414606.352   -11081475.920 8  -8433060.66746  22414607.267    22414618.6484
  20602920.227   -21648866.102 9 -16859420.27148  20602925.013    20602934.1804
  21531710.643   -15049411.635 8 -11711966.93647  21531714.067    21531726.8004
  21604048.476   -17476245.608 8 -13601514.25047  21604050.355    21604061.7734
  22793399.325    -6119756.751 8  -4750049.81546  22793401.446    22793414.6134
  23179833.320    -9443814.372 8  -7345796.79346  23179833.376    23179847.0804
 00  5 24  2 10 30.0000000  0  9 09 11 21 05 29 15 23 30 25
  23693754.310    -2689598.987 8  -2083179.73445  23693757.730    23693765.4694
  24528596.149    -1488354.285 7  -1147966.22445  24528598.500    24528607.5404
  20158316.426   -25765033.000 9 -20052751.99248  20158319.613    20158329.5624
  22411088.441   -11099968.323 8  -8447470.00246  22411087.841    22411099.1694
  20600311.503   -21662575.521 9 -16870102.69448  20600315.922    20600325.2654
  21535815.138   -15027848.669 8 -11695164.58047  21535817.550    21535829.7574
  21616019.203   -17413326.948 8 -13552486.71547  21616023.350    21616035.2594
  22778088.019    -6200203.794 8  -4812735.52046  22778092.819    22778105.6904
  23162669.234    -9534020.103 8  -7416086.79846  23162668.618    23162681.6384
 00  5 24  2 11  0.0000000  0  9 09 11 21 05 29 15 23 30 25
  23713790.720    -2584297.231 8  -2001126.11245  23713795.534    23713802.9324
  24517068.760    -1548961.367 7  -1195192.59045  24517067.707    24517073.5774
  20155296.939   -25780904.565 9 -20065119.31548  20155299.215    20155309.3814
  22407666.292   -11117917.672 8  -8461456.16846  22407671.167    22407683.1454
  20597743.566   -21676080.148 9 -16880625.54048  20597746.318    20597755.4314
  21540035.372   -15005671.416 8 -11677883.55247  21540037.698    21540049.3314
  21628066.178   -17350023.010 8 -13503158.96547  21628069.427    21628080.9714
  22762838.281    -6280353.839 8  -4875189.78646  22762840.333    22762852.7154
  23145542.720    -9623995.622 8  -7486197.44546  23145546.520    23145559.8854
 00  5 24  2 11 30.0000000  0  9 09 11 21 05 29 15 23 30 25
  23733854.834    -2478869.191 8  -1918974.14645  23733858.128    23733865.1854
  24505613.382    -1609132.419 7  -1242079.25345  24505618.158    24505623.6104
  20152369.913   -25796279.442 9 -20077099.60948  20152373.395    20152383.2434
  22404355.039   -11135322.765 8  -8475018.23546  22404358.662    22404370.2884
  20595212.009   -21689379.911 9 -16890988.74748  20595215.495    20595224.1784
  21544372.065   -14982881.286 8 -11660124.94047  21544374.219    21544386.1114
  21640184.880   -17286334.540 8 -13453531.57547  21640188.694    21640200.7404
  22747640.161    -6360203.778 8  -4937410.20146  22747644.489    22747658.2414
  23128466.245    -9713739.702 8  -7556127.72046  23128468.634    23128482.2394
 00  5 24  2 12  0.0000000  0  9 09 11 21 05 29 15 23 30 25
  23753942.116    -2373317.341 8  -1836725.71046  23753943.768    23753951.0764
  24494241.372    -1668865.662 7  -1288624.59245  24494249.458    24494256.3224
  20149538.989   -25811156.047 9 -20088691.63248  20149542.297    20149552.3084
  22401149.209   -11152182.280 8  -8488155.17246  22401150.574    22401161.5394
  20592718.710   -21702474.495 9 -16901192.07848  20592723.387    20592732.0354
  21548824.376   -14959479.509 8 -11641889.73547  21548827.271    21548838.8404
  21652380.083   -17222262.173 8 -13403605.05147  21652381.641    21652393.0244
  22732506.829    -6439750.638 8  -4999394.48246  22732507.244    22732520.4834
  23111432.352    -9803250.687 8  -7625876.36146  23111435.666    23111448.9504
 00  5 24  2 12 30.0000000  0  9 09 11 21 05 29 15 23 30 25
  23774049.757    -2267643.920 8  -1754382.56445  23774052.534    23774060.1884
  24482965.205    -1728159.583 7  -1334827.65045  24482967.483    24482974.1164
  20146804.627   -25825532.359 9 -20099893.82648  20146806.554    20146816.5094
  22398045.532   -11168495.205 8  -8500866.19646  22398045.626    22398057.5624
  20590266.871   -21715364.119 9 -16911235.70148  20590270.868    20590278.6174
  21553394.022   -14935467.362 8 -11623178.91447  21553397.078    21553409.0944
  21664647.768   -17157806.532 8 -13353379.85947  21664647.325    21664658.6424
  22717426.144    -6518991.115 8  -5061140.04746  22717428.562    22717441.3224
  23094441.577    -9892527.121 8  -7695442.23946  23094446.064    23094459.6544
 00  5 24  2 13  0.0000000  0  9 09 11 21 05 29 15 23 30 25
  23794185.356    -2161851.191 8  -1671946.47545  23794184.278    23794190.8814
  24471761.657    -1787012.630 7  -1380687.22444  24471765.812    24471773.9404
  20144164.052   -25839407.565 9 -20110705.54848  20144166.385    20144175.8704
  22395044.470   -11184260.621 8  -8513150.59546  22395045.869    22395057.7464
  20587853.172   -21728048.689 9 -16921119.54848  20587856.799    20587864.7034
  21558078.420   -14910846.160 8 -11603993.49447  21558081.893    21558094.2804
  21676983.950   -17092968.087 8 -13302856.39047  21676985.351    21676996.5784
  22702405.075    -6597922.396 8  -5122644.65046  22702407.256    22702420.8454
  23077491.681    -9981567.727 8  -7764824.33146  23077502.108    23077516.1414
 00  5 24  2 13 30.0000000  0  9 09 11 21 05 29 15 23 30 25
  23814337.693    -2055941.452 8  -1589419.21245  23814338.425    23814344.1354
  24460649.492    -1845422.539 7  -1426201.50045  24460651.768    24460661.0774
  20141618.701   -25852780.089 9 -20121125.56748  20141621.476    20141630.9044
  22392146.259   -11199477.209 8  -8525007.33946  22392150.266    22392161.1374
  20585477.659   -21740528.084 9 -16930843.52248  20585481.905    20585490.0074
  21562880.444   -14885617.439 8 -11584334.68647  21562882.614    21562895.2704
  21689392.294   -17027747.624 8 -13252035.24647  21689396.536    21689407.9324
  22687444.739    -6676541.099 8  -5183905.68846  22687447.000    22687459.4754
  23060600.837   -10070371.225 8  -7834021.65146  23060602.844    23060616.6304
 00  5 24  2 14  0.0000000  0  9 09 11 21 05 29 15 23 30 25
  23834504.405    -1949917.415 8  -1506802.93346  23834513.993    23834519.9554
  24449618.458    -1903387.998 7  -1471369.48245  24449621.754    24449628.5994
  20139168.320   -25865648.240 9 -20131152.56648  20139172.409    20139181.9544
  22389356.703   -11214143.959 8  -8536435.65646  22389359.192    22389369.3094
  20583142.890   -21752802.114 9 -16940407.46848  20583145.746    20583154.1504
  21567796.194   -14859782.459 8 -11564203.45247  21567798.427    21567810.9754
  21701877.209   -16962145.716 8 -13200916.87247  21701880.180    21701891.7304
  22672543.587    -6754844.085 8  -5244920.72946  22672546.815    22672558.5014
  23043746.888   -10158936.941 8  -7903033.69346  23043749.796    23043763.0784
 00  5 24  2 14 30.0000000  0  9 09 11 21 05 29 15 23 30 25
  23854704.829    -1843781.452 8  -1424099.48246  23854710.629    23854717.8604
  24438674.867    -1960906.802 7  -1516189.38745  24438676.252    24438684.5924
  20136817.338   -25878010.168 9 -20140785.11548  20136819.802    20136829.6604
  22386667.177   -11228259.646 8  -8547434.57146  22386672.940    22386683.5254
  20580845.446   -21764871.067 9 -16949811.60948  20580848.573    20580857.1854
  21572824.558   -14833342.552 8 -11543600.85347  21572829.267    21572842.8704
  21714434.642   -16896163.246 8 -13149501.95347  21714436.273    21714447.9444
  22657706.395    -6832828.472 8  -5305687.49646  22657706.430    22657718.5584
  23026937.946   -10247263.089 8  -7971859.06346  23026941.806    23026953.6994
 00  5 24  2 15  0.0000000  0  9 09 11 21 05 29 15 23 30 25
  23874921.608    -1737535.574 8  -1341310.35746  23874928.446    23874935.0274
  24427812.854    -2017977.647 7  -1560660.14245  24427815.779    24427823.0914
  20134560.681   -25889864.659 9 -20150022.25048  20134564.086    20134573.6494
  22384088.915   -11241823.383 8  -8558003.41146  22384090.752    22384102.1254
  20578587.123   -21776734.688 9 -16959055.76448  20578590.764    20578599.5964
  21577972.514   -14806298.897 8 -11522527.80247  21577975.622    21577988.4534
  21727062.220   -16829800.902 8 -13097791.03747  21727064.416    21727075.9874
  22642924.020    -6910491.464 8  -5366203.83846  22642926.511    22642939.9604
  23010172.821   -10335348.325 8  -8040496.70446  23010179.077    23010191.6424
 00  5 24  2 15 30.0000000  0  9 09 11 21 05 29 15 23 30 25
  23895163.816    -1631182.278 8  -1258437.52746  23895166.552    23895173.6374
  24417035.817    -2074598.765 7  -1604780.44045  24417041.119    24417048.8134
  20132403.183   -25901210.089 9 -20158862.72448  20132405.041    20132414.5844
  22381611.156   -11254834.118 8  -8568141.34846  22381614.676    22381625.8604
  20576368.564   -21788392.799 9 -16968139.79148  20576372.221    20576381.1884
  21583233.759   -14778653.231 8 -11500985.66247  21583236.859    21583249.5834
  21739759.987   -16763059.267 8 -13045784.55747  21739765.042    21739776.5744
  22628205.210    -6987829.720 8  -5426467.12846  22628210.307    22628222.2114
  22993461.899   -10423191.170 8  -8108945.45746  22993462.975    22993474.9944
 00  5 24  2 16  0.0000000  0  9 09 11 21 05 29 15 23 30 25
  23915417.230    -1524723.891 8  -1175482.81646  23915425.121    23915431.9484
  24406351.179    -2130768.824 7  -1648549.31045  24406353.087    24406360.4934
  20130340.459   -25912044.801 9 -20167305.23148  20130343.179    20130352.9694
  22379241.453   -11267290.758 8  -8577847.53946  22379244.879    22379255.2074
  20574191.155   -21799845.435 9 -16977063.70248  20574192.963    20574201.5164
  21588609.382   -14750407.077 8 -11478975.59747  21588612.014    21588623.7344
  21752535.927   -16695939.228 8 -12993483.22647  21752537.916    21752549.0814
  22613552.597    -7064840.299 8  -5486475.09346  22613555.391    22613567.4534
  22976791.957   -10510790.565 8  -8177204.50846  22976793.395    22976805.7584
 00  5 24  2 16 30.0000000  0  9 09 11 21 05 29 15 23 30 25
  23935704.561    -1418162.813 8  -1092448.08345  23935702.549    23935709.4164
  24395746.859    -2186485.874 7  -1691965.11345  24395749.065    24395757.5794
  20128375.021   -25922367.635 9 -20175348.88148  20128378.625    20128388.4304
  22376978.645   -11279192.282 8  -8587121.17046  22376979.360    22376990.2334
  20572047.064   -21811092.674 9 -16985827.57348  20572052.143    20572060.7504
  21594096.827   -14721561.946 8 -11456498.79647  21594100.093    21594112.2254
  21765381.087   -16628441.572 8 -12940887.64147  21765382.202    21765393.8624
  22598960.675    -7141520.189 8  -5546225.38246  22598963.209    22598975.4834
  22960165.116   -10598145.129 8  -8245272.80946  22960170.486    22960182.1084
 00  5 24  2 17  0.0000000  0  9 09 11 21 05 29 15 23 30 25
  23955998.556    -1311501.077 8  -1009334.97345  23955999.525    23956006.4254
  24385233.821    -2241748.436 7  -1735026.83845  24385235.552    24385239.5524
  20126508.266   -25932177.236 9 -20182992.61748  20126511.922    20126521.4174
  22374818.742   -11290537.846 8  -8595961.60546  22374819.891    22374830.6434
  20569948.161   -21822134.147 9 -16994431.11548  20569951.227    20569959.4644
  21599700.128   -14692119.675 8 -11433556.69847  21599703.434    21599714.7614
  21778295.278   -16560567.084 8 -12887998.42447  21778298.080    21778309.3884
  22584431.739    -7217866.282 8  -5605715.58246  22584435.098    22584446.4984
  22943592.109   -10685253.487 8  -8313149.22746  22943593.343    22943606.3264
 00  5 24  2 17 30.0000000  0  9 09 11 21 05 29 15 23 30 25
  23976312.344    -1204740.963 8   -926145.24246  23976315.063    23976323.0724
  24374806.520    -2296554.939 7  -1777733.19145  24374806.810    24374813.1674
  20124739.860   -25941472.354 9 -20190235.45248  20124743.196    20124752.5104
  22372763.959   -11301326.453 8  -8604368.07046  22372766.840    22372776.9934
  20567884.791   -21832969.940 9 -17002874.39148  20567888.538    20567897.4614
  21605416.704   -14662081.759 8 -11410150.45747  21605420.024    21605431.5534
  21791283.236   -16492316.499 8 -12834816.13947  21791285.095    21791297.2994
  22569969.278    -7293875.572 8  -5664943.35546  22569971.430    22569982.7134
  22927059.422   -10772114.503 8  -8380832.90446  22927064.608    22927077.1184
 00  5 24  2 18  0.0000000  0  9 09 11 21 05 29 15 23 30 25
  23996644.926    -1097884.955 8   -842880.76946  23996648.937    23996656.2804
  24364457.015    -2350903.776 7  -1820082.87945  24364461.869    24364469.5094
  20123069.992   -25950251.427 9 -20197076.17548  20123072.187    20123081.8124
  22370817.834   -11311557.367 8  -8612339.95546  22370819.861    22370830.2594
  20565862.383   -21843599.905 9 -17011157.28548  20565865.812    20565874.0294
  21611245.857   -14631449.436 8 -11386281.04847  21611248.922    21611261.1354
  21804344.889   -16423690.615 8 -12781341.42447  21804344.721    21804356.2494
  22555568.718    -7369544.894 8  -5723906.22946  22555571.691    22555583.0464
  22910582.224   -10858727.187 8  -8448323.08846  22910581.716    22910594.1934
 00  5 24  2 18 30.0000000  0  9 09 11 21 05 29 15 23 30 25
  24016992.964     -990935.513 8   -759543.50345  24017000.220    24017008.3414
  24354195.701    -2404793.348 7  -1862074.72845  24354206.663    24354216.3044
  20121495.989   -25958513.138 9 -20203513.77348  20121499.956    20121509.6594
  22368971.958   -11321229.551 8  -8619876.48646  22368978.431    22368989.4934
  20563878.915   -21854024.082 9 -17019279.84548  20563882.080    20563890.2774
  21617186.796   -14600224.536 8 -11361949.91147  21617190.389    21617202.8654
  21817472.422   -16354690.145 8 -12727574.82047  21817475.209    21817486.8344
  22541236.083    -7444871.549 8  -5782602.08146  22541236.824    22541248.0344
  22894141.075   -10945090.049 8  -8515618.60046  22894148.008    22894159.7614
 00  5 24  2 19  0.0000000  0  9 09 11 21 05 29 15 23 30 25
  24037367.808     -883894.738 8   -676135.09345  24037369.662    24037376.9874
  24344035.149    -2458222.126 7  -1903707.47245  24344039.994    24344047.9344
  20120023.883   -25966255.659 9 -20209546.80248  20120026.699    20120036.0844
  22367244.129   -11330342.186 8  -8626977.02046  22367244.813    22367255.1304
  20561933.652   -21864242.277 9 -17027241.88548  20561937.722    20561945.4324
  21623243.628   -14568408.841 8 -11337158.38847  21623245.368    21623256.9144
  21830673.744   -16285315.966 8 -12673517.01147  21830676.701    21830687.7634
  22526961.993    -7519852.451 8  -5841028.52846  22526968.305    22526979.4994
  22877755.114   -11031202.117 8  -8582718.69246  22877761.766    22877772.9124
 00  5 24  2 19 30.0000000  0  9 09 11 21 05 29 15 23 30 25
  24057750.846     -776765.059 8   -592657.39045  24057755.259    24057763.0254
  24333943.501    -2511188.658 7  -1944980.02544  24333957.763    24333967.2074
  20118649.982   -25973478.036 9 -20215174.52748  20118652.130    20118661.4624
  22365617.339   -11338894.470 8  -8633640.92946  22365617.919    22365627.5054
  20560029.588   -21874254.413 9 -17035043.37648  20560032.247    20560040.2544
  21629407.330   -14536004.050 8 -11311907.83747  21629411.543    21629423.5234
  21843947.813   -16215568.862 8 -12619168.61647  21843948.880    21843960.5064
  22512763.390    -7594484.527 8  -5899183.17346  22512766.158    22512777.3184
  22861420.871   -11117061.681 8  -8649622.05046  22861423.276    22861433.7984
 00  5 24  2 20  0.0000000  0  9 09 11 21 05 29 15 23 30 25
  24078162.212     -669548.432 8   -509111.93245  24078157.677    24078166.1854
  24323961.612    -2563691.464 7  -1985891.40345  24323971.314    24323978.2834
  20117373.616   -25980179.145 9 -20220396.08048  20117377.225    20117386.3354
  22364091.301   -11346885.625 8  -8639867.58546  22364096.607    22364106.0384
  20558163.084   -21884060.134 9 -17042684.01748  20558166.043    20558173.9724
  21635687.020   -14503011.686 8 -11286199.44547  21635689.215    21635701.9814
  21857289.101   -16145449.619 8 -12564530.25247  21857292.306    21857303.4834
  22498629.806    -7668764.966 8  -5957063.80946  22498630.833    22498642.2434
  22845131.182   -11202667.706 8  -8716327.83246  22845132.922    22845144.3214
 00  5 24  2 20 30.0000000  0  9 09 11 21 05 29 15 23 30 25
  24098574.275     -562247.243 8   -425500.61745  24098576.184    24098584.7904
  24314059.619    -2615728.630 7  -2026439.69744  24314065.699    24314074.2574
  20116199.237   -25986357.188 9 -20225210.04048  20116201.316    20116210.5924
  22362676.233   -11354314.677 8  -8645656.26546  22362682.892    22362693.0364
  20556336.314   -21893659.717 9 -17050164.03248  20556339.222    20556347.1494
  21642073.633   -14469433.394 8 -11260034.49947  21642078.819    21642091.9274
  21870702.739   -16074959.328 8 -12509602.75647  21870706.215    21870717.6494
  22484559.757    -7742690.668 8  -6014668.03846  22484562.604    22484574.1404
  22828887.718   -11288019.239 8  -8782835.31846  22828890.320    22828902.1884
 00  5 24  2 21  0.0000000  0  9 09 11 21 05 29 15 23 30 25
  24119008.552     -454863.726 8   -341825.18945  24119010.861    24119018.0554
  24304260.725    -2667298.997 7  -2066624.33645  24304256.201    24304261.8694
  20115122.527   -25992010.931 9 -20229615.46248  20115125.518    20115134.5614
  22361375.432   -11361181.056 8  -8651006.49446  22361376.324    22361386.5554
  20554548.015   -21903052.760 9 -17057483.10848  20554551.531    20554559.6074
  21648577.263   -14435270.986 8 -11233414.39347  21648579.904    21648592.3774
  21884186.124   -16004098.804 8 -12454386.76347  21884190.176    21884202.1704
  22470562.569    -7816258.537 8  -6071993.43146  22470563.079    22470574.2514
  22812698.981   -11373114.985 8  -8849143.47746  22812697.541    22812708.7324
 00  5 24  2 21 30.0000000  0  9 09 11 21 05 29 15 23 30 25
  24139450.061     -347400.112 8   -258087.32845  24139460.484    24139467.9944
  24294525.632    -2718401.223 7  -2106444.12644  24294528.922    24294536.5904
  20114145.396   -25997139.470 9 -20233611.63148  20114149.410    20114158.6504
  22360172.983   -11367483.807 8  -8655917.53946  22360176.893    22360186.6104
  20552800.044   -21912239.343 9 -17064641.31148  20552802.982    20552811.4134
  21655189.297   -14400526.106 8 -11206340.40847  21655191.979    21655203.1864
  21897745.194   -15932869.025 8 -12398883.06547  21897745.019    21897756.8964
  22456632.471    -7889465.663 8  -6129037.74146  22456632.346    22456643.9084
  22796547.227   -11457953.748 8  -8915251.40346  22796553.003    22796563.5334
 00  5 24  2 22  0.0000000  0  9 09 11 21 05 29 15 23 30 25
  24159926.667     -239858.614 8   -174288.74845  24159923.872    24159932.4414
  24284893.119    -2769033.641 7  -2145897.81945  24284896.038    24284901.3264
  20113270.244   -26001741.102 9 -20237197.22748  20113273.707    20113282.9454
  22359078.670   -11373222.359 8  -8660388.94846  22359084.039    22359094.1104
  20551090.044   -21921219.354 9 -17071638.55148  20551094.202    20551102.3864
  21661911.196   -14365200.785 8 -11178814.13247  21661914.279    21661925.6784
  21911363.610   -15861270.835 8 -12343092.29247  21911369.153    21911381.4524
  22442767.714    -7962309.210 8  -6185798.76246  22442770.472    22442781.8924
  22780452.805   -11542534.265 8  -8981158.09546  22780457.416    22780468.5124
 00  5 24  2 22 30.0000000  0  9 09 11 21 05 29 15 23 30 25
  24180397.904     -132241.351 7    -90431.13045  24180403.156    24180410.6064
  24275356.267    -2819194.958 7  -2184984.51644  24275349.486    24275355.8234
  20112493.388   -26005814.874 9 -20240371.50848  20112497.853    20112507.5994
  22358097.158   -11378396.085 8  -8664420.23746  22358099.088    22358109.5684
  20549420.521   -21929992.385 9 -17078474.50048  20549424.423    20549432.7334
  21668745.362   -14329296.921 8 -11150837.05247  21668746.920    21668757.9634
  21925061.017   -15789305.087 8 -12287015.11347  21925064.098    21925076.1424
  22428973.967    -8034786.114 8  -6242274.10546  22428978.211    22428989.6814
  22764406.044   -11626855.298 8  -9046862.62746  22764410.869    22764422.7874
 00  5 24  2 23  0.0000000  0  9 09 11 21 05 29 15 23 30 25
  24200893.800      -24550.711 7     -6516.36945  24200895.462    24200903.7204
  24265893.385    -2868883.681 7  -2223702.87145  24265895.579    24265901.6314
  20111819.859   -26009359.397 9 -20243133.39648  20111823.598    20111833.1624
  22357222.059   -11383004.224 8  -8668010.80446  22357222.363    22357232.1004
  20547790.354   -21938558.601 9 -17085149.29248  20547794.314    20547802.3874
  21675685.162   -14292816.233 8 -11122410.50347  21675688.291    21675700.3214
  21938826.019   -15716972.712 8 -12230652.25647  21938828.638    21938840.8234
  22415253.768    -8106893.304 8  -6298461.32146  22415256.264    22415268.2024
  22748413.697   -11710915.626 8  -9112364.00646  22748414.209    22748427.1584
 00  5 24  2 23 30.0000000  0  9 09 11 21 05 29 15 23 30 25
  24221392.716       83211.169 7     77453.88245  24221402.353    24221411.3314
  24256520.397    -2918098.371 7  -2262051.94545  24256529.221    24256536.1964
  20111247.830   -26012373.660 9 -20245482.09848  20111250.332    20111259.5574
  22356449.930   -11387046.245 8  -8671160.24946  22356453.474    22356462.4324
  20546200.868   -21946917.599 9 -17091662.61748  20546203.714    20546211.6854
  21682736.251   -14255760.561 8 -11093535.92047  21682739.521    21682751.1534
  21952659.838   -15644274.636 8 -12174004.45446  21952662.838    21952673.9974
  22401600.584    -8178628.176 8  -6354358.43346  22401605.900    22401617.0424
  22732462.941   -11794714.564 8  -9177661.71146  22732468.094    22732480.6974
 00  5 24  2 24  0.0000000  0  9 09 11 21 05 29 15 23 30 25
  24241922.082      191042.196 8    161478.02645  24241921.908    24241929.9024
  24247248.793    -2966837.994 7  -2300030.80945  24247255.295    24247261.1384
  20110774.771   -26014856.676 9 -20247416.83448  20110777.533    20110786.8284
  22355789.536   -11390521.553 8  -8673868.10946  22355791.936    22355801.3994
  20544649.534   -21955069.440 9 -17098014.52148  20544652.215    20544660.2764
  21689896.537   -14218131.664 8 -11064214.67247  21689899.920    21689911.5154
  21966565.379   -15571211.848 8 -12117072.44047  21966566.148    21966578.0734
  22388025.047    -8249987.462 8  -6409962.87546  22388026.170    22388037.4094
  22716566.268   -11878250.634 8  -9242754.59646  22716571.991    22716583.9144
 00  5 24  2 24 30.0000000  0  9 09 11 21 05 29 15 23 30 25
  24262455.774      298940.325 8    245554.48745  24262454.866    24262461.8074
  24238069.134    -3015100.880 7  -2337638.21945  24238069.923    24238076.3774
  20110404.390   -26016807.017 9 -20248936.51048  20110406.261    20110415.4774
  22355231.068   -11393429.503 8  -8676133.85046  22355238.325    22355248.4284
  20543137.422   -21963013.956 9 -17104204.87648  20543140.607    20543148.2134
  21697166.548   -14179931.826 8 -11034448.54847  21697169.666    21697181.2684
  21980540.153   -15497785.186 8 -12059856.88947  21980538.833    21980550.0964
  22374514.024    -8320968.515 8  -6465272.59246  22374518.933    22374529.8594
  22700723.429   -11961522.524 8  -9307641.64346  22700726.491    22700737.3874
 00  5 24  2 25  0.0000000  0  9 09 11 21 05 29 15 23 30 25
  24283003.057      406903.447 8    329681.56745  24282999.648    24283006.9004
  24228971.553    -3062885.550 7  -2374872.97145  24228977.120    24228982.6494
  20110133.167   -26018223.684 9 -20250040.33448  20110136.609    20110145.8674
  22354792.613   -11395769.559 8  -8677957.08046  22354793.110    22354802.6714
  20541665.515   -21970750.994 9 -17110233.56548  20541668.272    20541676.0194
  21704542.744   -14141162.995 8 -11004239.04747  21704546.691    21704558.0184
  21994577.712   -15423995.588 8 -12002358.51246  21994580.490    21994592.1174
  22361079.965    -8391568.496 8  -6520285.35146  22361084.260    22361095.3704
  22684928.144   -12044529.327 8  -9372322.12946  22684930.138    22684941.8984
 00  5 24  2 25 30.0000000  0  9 09 11 21 05 29 15 23 30 25
  24303546.588      514929.062 8    413857.38145  24303555.965    24303563.7824
  24219971.334    -3110191.016 7  -2411734.42445  24219973.960    24219980.4384
  20109965.313   -26019105.185 9 -20250727.15748  20109968.940    20109978.1604
  22354454.931   -11397541.205 8  -8679337.38646  22354455.900    22354465.0044
  20540231.990   -21978280.201 9 -17116100.29548  20540235.037    20540243.1534
  21712029.988   -14101827.066 8 -10973587.66347  21712032.437    21712043.9744
  22008688.412   -15349844.238 8 -11944578.27646  22008691.008    22008702.6374
  22347722.111    -8461784.361 8  -6574998.79846  22347722.646    22347733.5914
  22669186.167   -12127269.797 8  -9436795.10046  22669185.790    22669196.0954
 00  5 24  2 26  0.0000000  0  9 09 11 21 05 29 15 23 30 25
  24324115.233      623015.132 8    498080.26545  24324124.355    24324131.2514
  24211060.361    -3157015.924 7  -2448221.33445  24211064.457    24211070.7334
  20109900.040   -26019450.385 9 -20250996.07348  20109903.412    20109912.5564
  22354222.621   -11398743.875 8  -8680274.32146  22354226.300    22354236.4314
  20538839.133   -21985601.694 9 -17121805.18548  20538841.776    20538849.6214
  21719624.273   -14061925.772 8 -10942495.73647  21719625.796    21719636.7034
  22022861.069   -15275332.058 8 -11886516.88146  22022870.267    22022882.3994
  22334431.225    -8531613.161 8  -6629410.62946  22334434.543    22334445.7074
  22653487.486   -12209743.058 8  -9501059.85046  22653490.681    22653502.6444
 00  5 24  2 26 30.0000000  0  9 09 11 21 05 29 15 23 30 25
  24344698.081      731159.476 8    582348.59845  24344703.957    24344710.7634
  24202248.099    -3203358.708 7  -2484332.50645  24202247.254    24202253.1364
  20109937.074   -26019258.448 9 -20250846.45148  20109939.697    20109948.7634
  22354100.229   -11399377.016 8  -8680767.47646  22354106.279    22354115.5324
  20537484.918   -21992715.365 9 -17127348.12648  20537487.618    20537495.6204
  21727321.622   -14021461.041 8 -10910964.77047  21727324.725    21727336.4014
  22037116.384   -15200460.261 8 -11828175.26346  22037117.764    22037129.5714
  22321217.598    -8601051.967 8  -6683518.56447  22321221.040    22321231.5874
  22637841.751   -12291947.919 8  -9565115.45646  22637847.372    22637859.3334
 00  5 24  2 27  0.0000000  0  9 09 11 21 05 29 15 23 30 25
  24365286.640      839360.086 8    666660.67645  24365293.716    24365300.9264
  24193516.588    -3249218.193 7  -2520067.12345  24193519.370    24193526.6404
  20110075.948   -26018528.112 9 -20250277.29748  20110078.447    20110087.7314
  22354086.678   -11399440.137 8  -8680816.46346  22354093.879    22354103.4704
  20536170.501   -21999620.771 9 -17132728.78048  20536173.611    20536181.0474
  21735129.072   -13980435.057 8 -10878996.45747  21735131.897    21735143.5484
  22051431.795   -15125229.732 8 -11769554.11046  22051433.504    22051445.4074
  22308078.302    -8670098.034 8  -6737320.46146  22308080.699    22308091.9994
  22622252.047   -12373883.348 8  -9628961.11746  22622255.212    22622267.4574
 00  5 24  2 27 30.0000000  0  9 09 11 21 05 29 15 23 30 25
  24385892.370      947614.570 8    751014.59345  24385894.905    24385901.3384
  24184880.039    -3294593.180 7  -2555424.29145  24184883.043    24184890.7974
  20110317.287   -26017258.231 9 -20249287.72448  20110320.265    20110329.1874
  22354188.405   -11398932.812 8  -8680420.93446  22354190.515    22354199.0424
  20534896.373   -22006317.975 9 -17137947.21048  20534899.091    20534906.2634
  21743041.747   -13938850.033 8 -10846592.54647  21743044.739    21743057.0314
  22065813.069   -15049641.535 8 -11710654.27746  22065817.711    22065829.8894
  22295012.479    -8738748.773 8  -6790814.31246  22295015.992    22295028.1194
  22606711.432   -12455547.899 8  -9692595.71646  22606715.415    22606726.6994
 00  5 24  2 28  0.0000000  0  9 09 11 21 05 29 15 23 30 25
  24406507.752     1055921.110 8    835409.17445  24406504.156    24406511.1464
  24176342.670    -3339482.649 7  -2590403.01645  24176341.451    24176349.0424
  20110661.442   -26015448.172 9 -20247877.22548  20110664.491    20110673.6374
  22354396.934   -11397854.770 8  -8679580.69646  22354394.769    22354404.4614
  20533660.799   -22012806.557 9 -17143003.09148  20533664.589    20533671.9264
  21751061.532   -13896707.941 8 -10813754.54847  21751064.756    21751076.5904
  22080266.047   -14973696.684 8 -11651476.52346  22080269.749    22080281.4744
  22282028.407    -8807001.204 8  -6843997.77246  22282028.669    22282039.8254
  22591225.854   -12536940.649 8  -9756018.55146  22591226.811    22591238.2194
 00  5 24  2 28 30.0000000  0  9 09 11 21 05 29 15 23 30 25
  24427117.928     1164277.620 8    919842.70645  24427124.290    24427131.1294
  24167889.488    -3383885.142 7  -2625002.38245  24167891.736    24167899.5564
  20111109.416   -26013096.640 9 -20246044.79948  20111111.925    20111121.3334
  22354704.695   -11396205.641 8  -8678295.45346  22354708.262    22354718.8064
  20532464.353   -22019086.470 9 -17147896.37848  20532469.292    20532476.8754
  21759185.142   -13854010.853 8 -10780484.08747  21759189.433    21759201.4094
  22094785.268   -14897396.311 8 -11592021.73546  22094789.443    22094800.9054
  22269119.352    -8874852.196 8  -6896868.45146  22269117.182    22269128.0294
  22575785.561   -12618060.191 8  -9819228.46846  22575790.398    22575801.4924
 00  5 24  2 29  0.0000000  0  9 09 11 21 05 29 15 23 30 25
  24447751.702     1272682.317 8   1004313.91445  24447752.526    24447760.0764
  24159525.170    -3427799.725 7  -2659221.54745  24159534.468    24159541.5644
  20111659.317   -26010202.684 9 -20243789.71448  20111662.512    20111672.0134
  22355127.051   -11393984.797 8  -8676564.73246  22355131.200    22355140.7144
  20531311.865   -22025157.725 9 -17152627.07448  20531313.624    20531321.4184
  21767414.306   -13810760.912 8 -10746782.85547  21767419.317    21767431.3804
  22109373.661   -14820741.447 8 -11532290.72346  22109376.395    22109387.7504
  22256278.641    -8942299.091 8  -6949424.25146  22256282.446    22256292.7714
  22560404.076   -12698906.268 8  -9882225.30446  22560406.603    22560418.1414
 00  5 24  2 29 30.0000000  0  9 09 11 21 05 29 15 23 30 25
  24468382.098     1381132.870 8   1088820.96445  24468390.135    24468396.7244
  24151269.102    -3471224.672 7  -2693059.17045  24151271.956    24151279.4354
  20112313.552   -26006765.495 9 -20241111.32848  20112316.462    20112325.7554
  22355659.335   -11391192.000 8  -8674388.32346  22355662.393    22355671.1914
  20530195.067   -22031019.786 9 -17157194.77748  20530198.035    20530205.5784
  21775752.764   -13766960.255 8 -10712652.47347  21775755.116    21775766.8814
  22124024.687   -14743733.055 8 -11472284.24746  22124030.039    22124041.5204
  22243523.648    -9009339.275 8  -7001663.13247  22243524.767    22243535.4924
  22545070.231   -12779477.374 8  -9945007.88946  22545074.132    22545084.7824
 00  5 24  2 30  0.0000000  0  9 09 11 21 05 29 15 23 30 25
  24489042.430     1489627.035 7   1173361.74645  24489035.475    24489042.0824
  24143097.111    -3514159.126 7  -2726514.54745  24143100.801    24143107.8844
  20113070.652   -26002784.106 9 -20238008.88548  20113074.243    20113083.3304
  22356299.689   -11387827.232 8  -8671766.21746  22356302.286    22356312.4864
  20529118.351   -22036672.674 9 -17161599.49848  20529122.220    20529129.6254
  21784191.451   -13722611.414 8 -10678094.95847  21784195.051    21784206.1184
  22138747.784   -14666372.396 8 -11412003.27146  22138752.007    22138763.0294
  22230844.224    -9075969.821 8  -7053582.81347  22230845.742    22230856.3164
  22529788.455   -12859772.274 8 -10007575.25546  22529794.097    22529804.9904
 00  5 24  2 30 30.0000000  0  9 09 11 21 05 29 15 23 30 25
  24509682.410     1598162.877 7   1257935.12645  24509690.771    24509697.6024
  24135014.808    -3556602.194 7  -2759587.10145  24135025.332    24135031.6564
  20113932.219   -25998257.317 9 -20234481.44448  20113935.632    20113944.7494
  22357049.736   -11383890.133 8  -8668698.14146  22357051.471    22357061.0314
  20528082.480   -22042116.287 9 -17165841.12248  20528086.374    20528093.3954
  21792734.211   -13677716.076 8 -10643111.59147  21792738.335    21792749.4374
  22153539.455   -14588660.739 8 -11351448.78646  22153540.409    22153551.0364
  22218239.377    -9142187.974 8  -7105181.16447  22218244.027    22218255.1134
  22514564.444   -12939790.044 8 -10069926.67246  22514566.873    22514577.7104
 00  5 24  2 31  0.0000000  0  9 09 11 21 05 29 15 23 30 25
  24530340.246     1706738.444 7   1342539.46445  24530350.013    24530358.8904
  24127037.348    -3598552.373 7  -2792275.50745  24127041.419    24127048.6694
  20114897.983   -25993184.212 9 -20230528.31248  20114901.148    20114910.0614
  22357908.320   -11379380.178 8  -8665183.66946  22357909.741    22357919.6394
  20527088.287   -22047350.334 9 -17169919.46848  20527090.471    20527097.2134
  21801383.444   -13632276.476 8 -10607704.12247  21801385.172    21801396.0324
  22168391.195   -14510599.145 8 -11290621.63446  22168395.191    22168406.6914
  22205719.956    -9207990.752 8  -7156455.85347  22205722.324    22205732.5844
  22499388.283   -13019530.071 8 -10132061.65846  22499391.918    22499403.8754
 00  5 24  2 31 30.0000000  0  9 09 11 21 05 29 15 23 30 25
  24551018.419     1815351.114 7   1427172.47945  24551019.332    24551027.3604
  24119153.918    -3640008.794 7  -2824579.24645  24119153.772    24119160.0344
  20115968.431   -25987564.258 9 -20226149.06548  20115970.841    20115979.4004
  22358874.179   -11374297.285 8  -8661222.77346  22358877.395    22358886.0104
  20526130.660   -22052374.412 9 -17173834.20848  20526134.396    20526141.0374
  21810130.069   -13586294.992 8 -10571874.41047  21810134.637    21810146.2434
  22183312.231   -14432188.792 8 -11229522.72546  22183315.535    22183327.4964
  22193275.002    -9273375.799 8  -7207405.03646  22193279.589    22193289.9074
  22484267.666   -13098990.916 8 -10193979.08346  22484270.766    22484282.9684
 00  5 24  2 32  0.0000000  0  9 09 11 21 05 29 15 23 30 25
  24571686.414     1923999.660 7   1511833.50845  24571694.025    24571701.9604
  24111355.128    -3680970.041 7  -2856497.04945  24111359.096    24111366.1174
  20117141.336   -25981396.694 9 -20221343.10248  20117144.377    20117153.0824
  22359952.948   -11368641.159 8  -8656815.18746  22359952.998    22359961.3864
  20525214.530   -22057188.672 9 -17177585.45448  20525217.983    20525225.0774
  21818984.865   -13539773.693 8 -10535624.06947  21818987.393    21818998.4364
  22198298.128   -14353430.905 8 -11168153.01246  22198302.503    22198314.3564
  22180913.086    -9338339.824 8  -7258026.15647  22180917.266    22180928.0614
  22469200.765   -13178171.404 8 -10255678.05846  22469203.254    22469215.8474
 00  5 24  2 32 30.0000000  0  9 09 11 21 05 29 15 23 30 25
  24592366.756     2032681.859 7   1596520.85845  24592375.759    24592384.5744
  24103653.960    -3721435.482 7  -2888028.56745  24103659.013    24103667.3264
  20118420.134   -25974680.016 9 -20216109.25648  20118422.180    20118431.1124
  22361130.846   -11362411.910 8  -8651960.99346  22361138.016    22361146.6444
  20524337.225   -22061792.565 9 -17181172.79148  20524341.721    20524348.9574
  21827939.034   -13492715.076 8 -10498955.02947  21827942.578    21827953.9574
  22213355.684   -14274326.468 8 -11106513.27346  22213355.573    22213367.3654
  22168631.928    -9402880.388 8  -7308317.28247  22168635.357    22168645.9884
  22454188.321   -13257070.855 8 -10317158.04946  22454190.235    22454201.7814
 00  5 24  2 33  0.0000000  0  9 09 11 21 05 29 15 23 30 25
  24613065.790     2141395.924 7   1681233.07545  24613063.684    24613071.3354
  24096051.617    -3761404.167 7  -2919173.04545  24096052.598    24096058.9704
  20119801.981   -25967413.626 9 -20210447.06148  20119804.635    20119813.6884
  22362427.269   -11355609.237 8  -8646659.95946  22362432.369    22362442.0594
  20523501.133   -22066186.047 9 -17184596.15748  20523505.265    20523512.9404
  21836995.206   -13445121.554 8 -10461869.18547  21836999.215    21837010.9644
  22228470.548   -14194876.696 8 -11044604.42646  22228475.053    22228486.6144
  22156429.279    -9466994.863 8  -7358276.39247  22156434.554    22156444.6734
  22439229.567   -13335688.347 8 -10378418.33146  22439229.841    22439240.6004
 00  5 24  2 33 30.0000000  0  9 09 11 21 05 29 15 23 30 25
  24633758.058     2250139.296 7   1765968.10645  24633757.172    24633764.2604
  24088531.689    -3800874.672 7  -2949929.25145  24088541.674    24088548.8284
  20121289.336   -25959596.690 9 -20204355.87448  20121292.289    20121301.1024
  22363833.083   -11348232.810 8  -8640911.84446  22363836.213    22363844.5794
  20522706.879   -22070368.763 9 -17187855.27548  20522709.479    20522716.4754
  21846157.672   -13396995.353 8 -10424368.27047  21846158.314    21846169.3864
  22243658.186   -14115082.829 8 -10982427.43646  22243658.888    22243671.3694
  22144313.533    -9530680.314 8  -7407901.17947  22144315.216    22144325.3464
  22424316.109   -13414022.795 8 -10439458.07046  22424322.491    22424333.3674
 00  5 24  2 34  0.0000000  0  9 09 11 21 05 29 15 23 30 25
  24654444.007     2358910.438 7   1850724.85745  24654455.020    24654463.6064
  24081124.208    -3839845.736 7  -2980296.25145  24081126.639    24081132.3464
  20122881.505   -25951228.710 9 -20197835.29948  20122884.672    20122893.2854
  22365345.744   -11340282.633 8  -8634716.64046  22365349.074    22365357.9694
  20521950.258   -22074340.774 9 -17190950.20348  20521953.336    20521960.2654
  21855413.072   -13348338.709 8 -10386454.02047  21855416.337    21855428.2524
  22258904.992   -14034946.138 8 -10919983.36246  22258908.714    22258921.2234
  22132274.194    -9593934.300 8  -7457189.75847  22132278.973    22132288.1914
  22409468.706   -13492072.875 8 -10500276.19746  22409470.056    22409480.7984
 00  5 24  2 34 30.0000000  0  9 09 11 21 05 29 15 23 30 25
  24675159.994     2467706.965 7   1935501.03845  24675158.764    24675166.7034
  24073801.851    -3878316.927 7  -3010273.74345  24073805.284    24073811.7244
  20124579.000   -25942308.876 9 -20190884.71748  20124582.005    20124590.5414
  22366968.343   -11331758.578 8  -8628074.25246  22366970.289    22366978.9164
  20521234.424   -22078101.530 9 -17193880.54648  20521237.838    20521244.2854
  21864771.182   -13299154.006 8 -10348128.29247  21864775.701    21864787.7524
  22274221.112   -13954467.767 8 -10857273.02446  22274223.678    22274235.2614
  22120319.964    -9656753.977 8  -7506139.89547  22120324.163    22120333.9714
  22394666.385   -13569837.932 8 -10560872.24646  22394672.025    22394682.3134
 00  5 24  2 35  0.0000000  0  8 11 21 05 29 15 23 30 25
  24066574.232    -3916287.219 8  -3039860.94245  24066580.372    24066586.6574
  20126382.861   -25932836.188 9 -20183503.33748  20126384.423    20126393.1604
  22368695.338   -11322660.684 8  -8620984.70546  22368700.443    22368710.3734
  20520558.624   -22081651.205 9 -17196646.38748  20520561.928    20520568.8884
  21874233.420   -13249443.678 8 -10309393.01247  21874235.213    21874247.2004
  22289598.629   -13873648.993 8 -10794297.44346  22289602.574    22289614.8014
  22108449.640    -9719136.464 8  -7554749.34647  22108453.158    22108462.6294
  22379923.978   -13647316.996 8 -10621245.44046  22379927.925    22379938.8784
 00  5 24  2 35 30.0000000  0  8 11 21 05 29 15 23 30 25
  24059449.337    -3953755.106 8  -3069056.57945  24059449.714    24059455.7204
  20128290.086   -25922809.709 9 -20175690.44248  20128292.585    20128301.1734
  22370539.557   -11312988.945 8  -8613448.02546  22370541.336    22370550.2114
  20519922.568   -22084989.034 9 -17199247.17448  20519927.219    20519933.7254
  21883790.951   -13199210.076 8 -10270249.96547  21883794.299    21883806.9954
  22305041.757   -13792490.964 8 -10731057.51446  22305046.269    22305058.8724
  22096660.905    -9781079.559 8  -7603016.41947  22096665.903    22096674.5164
  22365235.838   -13724508.811 8 -10681394.79046  22365239.120    22365249.4964
 00  5 24  2 36  0.0000000  0  8 11 21 05 29 15 23 30 25
  24052412.072    -3990720.349 7  -3097860.60145  24052415.351    24052422.0734
  20130301.790   -25912229.245 9 -20167445.86448  20130305.736    20130314.4364
  22372489.452   -11302743.180 8  -8605464.04946  22372491.823    22372499.9594
  20519329.705   -22088115.012 9 -17201682.85248  20519332.364    20519338.7864
  21893449.770   -13148455.662 8 -10230701.11247  21893452.613    21893465.3694
  22320548.101   -13710995.098 8 -10667554.33646  22320554.658    22320566.8464
  22084957.037    -9842580.312 8  -7650938.80347  22084962.265    22084971.3474
  22350603.004   -13801412.802 8 -10741319.86046  22350603.437    22350615.8774
 00  5 24  2 36 30.0000000  0  8 11 21 05 29 15 23 30 25
  24045472.973    -4027181.797 8  -3126272.11545  24045477.600    24045483.9204
  20132422.402   -25901093.985 9 -20158768.97948  20132424.445    20132433.4074
  22374546.669   -11291923.413 8  -8597032.78046  22374550.118    22374558.0804
  20518774.357   -22091029.203 9 -17203953.54848  20518777.703    20518784.3094
  21903204.799   -13097182.891 8 -10190748.34047  21903209.709    21903221.7504
  22336126.071   -13629162.540 8 -10603788.81246  22336126.384    22336139.4544
  22073338.136    -9903636.239 8  -7698514.55847  22073343.197    22073352.2984
  22336020.427   -13878028.164 8 -10801020.02447  22336024.428    22336037.6024
 00  5 24  2 37  0.0000000  0  8 11 21 05 29 15 23 30 25
  24038635.024    -4063138.444 7  -3154290.13845  24038633.337    24038641.1124
  20134647.353   -25889402.810 9 -20149658.91748  20134649.235    20134658.2064
  22376713.404   -11280529.727 8  -8588154.32246  22376717.644    22376727.1544
  20518259.245   -22093730.986 9 -17206058.72448  20518263.096    20518269.9514
  21913060.481   -13045394.000 8 -10150393.39547  21913064.160    21913076.9974
  22351761.215   -13546994.668 8 -10539761.99346  22351763.298    22351775.2054
  22061802.006    -9964244.624 8  -7745741.58047  22061808.995    22061819.2744
  22321495.672   -13954353.750 8 -10860494.36047  22321500.006    22321512.2254
 00  5 24  2 37 30.0000000  0  8 11 21 05 29 15 23 30 25
  24031884.957    -4098589.564 7  -3181914.28745  24031888.100    24031896.0734
  20136977.227   -25877155.453 9 -20140115.47048  20136979.532    20136988.6034
  22378988.368   -11268562.268 8  -8578828.73946  22378995.123    22379003.4094
  20517785.365   -22096220.127 9 -17207998.21248  20517789.623    20517796.1864
  21923016.346   -12993091.575 8 -10109638.30246  21923017.126    21923029.3934
  22367457.641   -13464492.830 8 -10475474.92946  22367462.651    22367475.2694
  22050357.292   -10024402.830 8  -7792617.79147  22050361.398    22050371.7444
  22307029.734   -14030388.655 8 -10919742.20747  22307031.174    22307042.6334
 00  5 24  2 38  0.0000000  0  8 11 21 05 29 15 23 30 25
  24025232.644    -4133534.362 7  -3209144.02445  24025237.915    24025246.3724
  20139412.816   -25864350.976 9 -20130137.90548  20139416.035    20139425.2754
  22381383.076   -11256021.012 8  -8569056.07346  22381381.634    22381389.9224
  20517353.064   -22098496.484 9 -17209771.86848  20517356.195    20517362.9724
  21933062.515   -12940278.264 8 -10068485.12046  21933067.428    21933079.2084
  22383220.863   -13381658.395 8 -10410928.71646  22383225.300    22383238.2264
  22038996.520   -10084108.413 8  -7839141.32647  22038999.801    22039009.2934
  22292614.750   -14106132.054 8 -10978762.89347  22292617.744    22292628.6534
 00  5 24  2 38 30.0000000  0  8 11 21 05 29 15 23 30 25
  24018681.638    -4167971.604 7  -3235978.04745  24018684.410    24018692.6734
  20141954.317   -25850989.479 9 -20119726.30148  20141958.811    20141967.8254
  22383880.311   -11242906.178 8  -8558836.43946  22383876.622    22383884.9094
  20516960.554   -22100559.854 9 -17211379.58948  20516963.311    20516970.1374
  21943206.985   -12886956.449 8 -10026935.69046  21943213.800    21943226.4924
  22399049.112   -13298492.448 8 -10346124.18046  22399051.489    22399063.8474
  22027721.972   -10143358.625 8  -7885310.01047  22027724.285    22027734.5264
  22278257.778   -14181583.192 8 -11037555.84447  22278259.814    22278270.4784
 00  5 24  2 39  0.0000000  0  8 11 21 05 29 15 23 30 25
  24012219.916    -4201901.042 7  -3262416.40845  24012227.177    24012234.3774
  20144605.551   -25837069.620 9 -20108879.60848  20144607.739    20144616.6594
  22386481.879   -11229217.902 8  -8548169.94346  22386481.813    22386490.3284
  20516608.272   -22102409.952 9 -17212821.09548  20516611.430    20516618.1964
  21953454.455   -12833128.761 8  -9984992.07246  21953456.740    21953469.7314
  22414939.862   -13214996.364 8 -10281062.38946  22414940.873    22414953.3604
  22016533.726   -10202150.720 8  -7931121.73747  22016536.518    22016546.1094
  22263953.349   -14256740.799 8 -11096120.03947  22263957.720    22263968.6684
 00  5 24  2 39 30.0000000  0  8 11 21 05 29 15 23 30 25
  24005862.084    -4235321.474 7  -3288458.18145  24005866.347    24005876.5484
  20147359.627   -25822591.331 9 -20097597.76748  20147362.556    20147371.9794
  22389191.774   -11214956.344 8  -8537056.76346  22389195.233    22389203.2894
  20516296.651   -22104046.216 9 -17214095.94548  20516299.847    20516306.4444
  21963795.109   -12778797.571 8  -9942656.12146  21963796.681    21963807.9614
  22430889.685   -13131171.414 8 -10215744.32646  22430892.354    22430904.5774
  22005433.611   -10260482.508 8  -7976574.77247  22005435.780    22005445.6494
  22249707.416   -14331604.401 8 -11154455.13947  22249711.329    22249722.3354
 00  5 24  2 40  0.0000000  0  8 11 21 05 29 15 23 30 25
  23999598.060    -4268232.410 7  -3314102.93045  23999605.350    23999613.4894
  20150220.535   -25807553.988 9 -20085880.30448  20150224.068    20150233.3784
  22392011.772   -11200121.910 8  -8525497.18746  22392017.395    22392026.1554
  20516024.286   -22105468.696 9 -17215204.22348  20516028.756    20516035.5384
  21974230.410   -12723965.523 8  -9899929.88646  21974231.404    21974241.9654
  22446902.010   -13047019.018 8 -10150171.13446  22446906.147    22446918.0664
  21994423.452   -10318351.501 8  -8021667.21547  21994423.683    21994432.7494
  22235518.546   -14406172.533 8 -11212560.00047  22235521.542    22235532.1124
 00  5 24  2 40 30.0000000  0  8 11 21 05 29 15 23 30 25
  23993429.833    -4300633.275 7  -3339350.35145  23993437.107    23993446.4704
  20153188.781   -25791956.615 9 -20073726.46448  20153192.542    20153201.1784
  22394948.977   -11184714.370 8  -8513491.02146  22394949.206    22394957.1314
  20515796.439   -22106677.089 9 -17216145.70848  20515799.281    20515805.7334
  21984759.244   -12668635.009 8  -9856815.23746  21984760.390    21984771.1564
  22462976.258   -12962540.651 8 -10084343.92346  22462981.855    22462993.7604
  21983498.726   -10375755.138 8  -8066397.04747  21983500.523    21983509.5534
  22221384.099   -14480444.630 8 -11270434.17247  22221387.330    22221399.0674
 00  5 24  2 41  0.0000000  0  8 11 21 05 29 15 23 30 25
  23987364.690    -4332523.198 7  -3364199.77445  23987370.739    23987377.9334
  20156264.333   -25775799.279 9 -20061136.26648  20156267.416    20156275.9294
  22397988.676   -11168734.061 8  -8501038.51646  22397990.891    22397998.1284
  20515606.973   -22107671.153 9 -17216920.16448  20515610.225    20515615.9874
  21995382.858   -12612808.610 8  -9813314.17746  21995383.393    21995394.2594
  22479114.890   -12877737.620 8 -10018263.72546  22479118.700    22479131.9144
  21972664.088   -10432691.138 8  -8110762.49647  21972665.654    21972674.3094
  22207306.665   -14554420.101 8 -11328077.22747  22207311.040    22207321.3194
 00  5 24  2 41 30.0000000  0  8 11 21 05 29 15 23 30 25
  23981396.316    -4363901.064 7  -3388650.02145  23981399.405    23981407.1104
  20159444.482   -25759081.091 9 -20048109.05648  20159448.122    20159457.3244
  22401136.623   -11152181.303 8  -8488140.01846  22401140.714    22401147.1224
  20515457.567   -22108450.306 9 -17217527.15948  20515461.258    20515467.4344
  22006099.721   -12556489.172 8  -9769428.93546  22006100.649    22006111.5664
  22495315.406   -12792611.441 8  -9951931.73646  22495318.012    22495330.4584
  21961915.942   -10489156.570 8  -8154761.27847  21961920.235    21961929.6254
  22193286.807   -14628097.943 8 -11385488.33047  22193290.005    22193300.6534
 00  5 24  2 42  0.0000000  0  8 11 21 05 29 15 23 30 25
  23975523.946    -4394766.469 7  -3412700.89945  23975526.370    23975532.3914
  20162733.781   -25741802.074 9 -20034644.83848  20162736.444    20162745.2364
  22404396.142   -11135056.393 8  -8474795.62846  22404398.649    22404406.4084
  20515350.226   -22109014.784 9 -17217966.91148  20515353.709    20515360.2254
  22016909.705   -12499679.361 8  -9725161.58046  22016911.001    22016922.7794
  22511576.470   -12707163.394 8  -9885348.95946  22511578.382    22511590.8424
  21951263.074   -10545149.324 8  -8198391.74747  21951265.014    21951274.0744
  22179324.625   -14701477.146 8 -11442666.72347  22179326.260    22179336.5174
 00  5 24  2 42 30.0000000  0  8 11 21 05 29 15 23 30 25
  23969747.078    -4425118.894 7  -3436352.07645  23969750.284    23969757.9324
  20166128.510   -25723961.709 9 -20020743.19448  20166131.366    20166139.8054
  22407762.596   -11117359.934 8  -8461005.94446  22407765.723    22407773.3844
  20515284.702   -22109363.755 9 -17218238.70748  20515287.479    20515293.5754
  22027812.576   -12442381.633 8  -9680514.02146  22027814.955    22027826.1334
  22527897.890   -12621394.988 8  -9818516.51146  22527899.869    22527912.2274
  21940695.959   -10600666.501 9  -8241651.63347  21940700.310    21940709.3644
  22165417.212   -14774557.351 8 -11499612.11447  22165419.672    22165430.1134
 00  5 24  2 43  0.0000000  0  8 11 21 05 29 15 23 30 25
  23964066.866    -4454957.738 8  -3459603.14245  23964073.947    23964080.6584
  20169630.801   -25705558.889 9 -20006403.27248  20169633.213    20169641.7104
  22411239.446   -11099092.037 8  -8446770.92046  22411241.659    22411250.0324
  20515258.939   -22109497.262 9 -17218342.61148  20515261.773    20515268.2264
  22038807.833   -12384598.782 8  -9635488.42046  22038810.702    22038821.9924
  22544284.713   -12535307.477 8  -9751435.42146  22544282.493    22544294.4394
  21930225.315   -10655705.862 9  -8284539.19547  21930226.913    21930235.1274
  22151566.104   -14847337.463 8 -11556323.64547  22151569.761    22151580.2614
 00  5 24  2 43 30.0000000  0  8 11 21 05 29 15 23 30 25
  23958492.309    -4484282.321 8  -3482453.47545  23958493.821    23958499.7564
  20173237.000   -25686594.005 9 -19991625.35948  20173241.877    20173250.7494
  22414823.437   -11080252.993 8  -8432090.85546  22414826.743    22414834.6994
  20515272.405   -22109414.903 9 -17218278.28648  20515276.942    20515283.6604
  22049895.510   -12326333.670 8  -9590087.01946  22049898.242    22049909.1984
  22560720.156   -12448902.225 8  -9684106.72146  22560723.768    22560737.2304
  21919841.324   -10710264.952 9  -8327052.51047  21919844.443    21919852.4924
  22137778.101   -14919816.521 8 -11612800.57447  22137777.488    22137787.8784
 00  5 24  2 44  0.0000000  0  8 11 21 05 29 15 23 30 25
  23953009.911    -4513092.105 7  -3504902.69445  23953009.920    23953017.1784
  20176954.895   -25667066.424 9 -19976408.96248  20176957.914    20176966.4094
  22418516.194   -11060843.066 8  -8416965.94046  22418520.147    22418527.6784
  20515329.951   -22109116.215 9 -17218045.35648  20515334.147    20515340.2504
  22061076.284   -12267588.580 8  -9544311.59246  22061077.676    22061088.3184
  22577221.475   -12362180.880 8  -9616531.70546  22577225.993    22577238.8284
  21909547.099   -10764341.533 9  -8369189.83247  21909553.676    21909561.8784
  22124036.549   -14991994.082 8 -11669042.57347  22124042.358    22124052.8534
 00  5 24  2 44 30.0000000  0  8 11 21 05 29 15 23 30 25
  23947619.306    -4541386.196 7  -3526950.06745  23947625.689    23947633.1024
  20180777.759   -25646975.650 9 -19960753.70148  20180781.166    20180789.3884
  22422318.019   -11040862.807 8  -8401396.57246  22422321.517    22422329.1164
  20515428.615   -22108601.131 9 -17217643.76648  20515432.074    20515438.2084
  22072343.070   -12208366.496 8  -9498164.47546  22072346.604    22072357.9404
  22593782.193   -12275144.759 8  -9548711.40146  22593788.834    22593801.4314
  21899352.671   -10817933.125 8  -8410949.24047  21899354.698    21899363.4414
  22110363.908   -15063869.434 8 -11725049.04547  22110364.345    22110374.6214
 00  5 24  2 45  0.0000000  0  8 11 21 05 29 15 23 30 25
  23942336.986    -4569164.332 7  -3548595.46545  23942339.958    23942348.5074
  20184709.089   -25626321.642 9 -19944659.56148  20184711.300    20184719.9724
  22426228.371   -11020312.648 8  -8385383.09446  22426231.930    22426239.3194
  20515568.008   -22107869.108 9 -17217073.14548  20515571.351    20515577.3994
  22083701.258   -12148669.947 8  -9451647.64846  22083705.725    22083718.1654
  22610405.028   -12187795.416 8  -9480647.00346  22610411.616    22610423.3404
  21889244.384   -10871037.358 8  -8452328.87547  21889248.794    21889258.0544
  22096739.006   -15135441.400 8 -11780819.11147  22096744.363    22096754.5244
 00  5 24  2 45 30.0000000  0  8 11 21 05 29 15 23 30 25
  23937147.213    -4596425.927 7  -3569838.33145  23937150.852    23937158.7644
  20188744.142   -25605103.793 9 -19928126.06148  20188748.782    20188757.5004
  22430249.140   -10999193.136 8  -8368926.03746  22430250.961    22430258.4104
  20515747.642   -22106920.240 9 -17216333.55448  20515751.443    20515757.3934
  22095153.799   -12088501.701 8  -9404763.26446  22095156.092    22095167.9604
  22627090.781   -12100134.308 8  -9412339.68146  22627093.054    22627104.8534
  21879234.428   -10923651.926 8  -8493326.94747  21879236.795    21879245.3344
  22083180.928   -15206708.902 8 -11836351.91247  22083182.210    22083192.9064
 00  5 24  2 46  0.0000000  0  8 11 21 05 29 15 23 30 25
  23932059.486    -4623170.259 7  -3590678.12645  23932063.202    23932068.5704
  20192890.254   -25583321.833 9 -19911152.98848  20192893.605    20192902.0884
  22434377.611   -10977504.856 8  -8352025.87446  22434378.439    22434385.4564
  20515968.913   -22105753.819 9 -17215424.44448  20515973.431    20515979.2044
  22106692.869   -12027864.618 8  -9357513.52746  22106694.779    22106706.0294
  22643834.491   -12012162.863 8  -9343790.54246  22643833.164    22643845.3164
  21869317.006   -10975774.517 8  -8533941.65547  21869318.023    21869326.7734
  22069671.793   -15277671.797 8 -11891647.36447  22069677.985    22069688.7274
 00  5 24  2 46 30.0000000  0  8 11 21 05 29 15 23 30 25
  23927067.302    -4649396.672 8  -3611114.36045  23927071.268    23927079.4414
  20197144.068   -25560975.887 9 -19893740.44448  20197145.904    20197154.4404
  22438608.964   -10955247.945 8  -8334682.66547  22438614.311    22438620.9594
  20516233.843   -22104369.795 9 -17214345.78248  20516236.872    20516242.3784
  22118319.192   -11966761.581 8  -9309900.72746  22118321.398    22118332.9824
  22660629.460   -11923882.612 8  -9275000.73646  22660632.060    22660643.8424
  21859490.816   -11027402.715 8  -8574171.11747  21859493.179    21859502.1144
  22056231.523   -15348328.948 8 -11946704.56447  22056231.996    22056242.6184
 00  5 24  2 47  0.0000000  0  8 11 21 05 29 15 23 30 25
  23922174.828    -4675105.027 7  -3631146.83645  23922181.148    23922186.6954
  20201502.888   -25538065.896 9 -19875888.39148  20201505.362    20201514.1594
  22442955.322   -10932423.212 8  -8316896.90546  22442956.299    22442962.8954
  20516537.933   -22102767.657 9 -17213097.14448  20516541.430    20516546.9324
  22130035.961   -11905195.481 8  -9261927.07846  22130037.642    22130048.0674
  22677489.325   -11835295.130 8  -9205971.53946  22677489.963    22677501.4254
  21849762.188   -11078534.124 8  -8614013.47747  21849763.148    21849771.2344
  22042840.850   -15418680.039 8 -12001523.28247  22042844.855    22042854.9884
 00  5 24  2 47 30.0000000  0  8 11 21 05 29 15 23 30 25
  23917383.770    -4700294.977 8  -3650775.30345  23917387.278    23917393.2404
  20205968.597   -25514591.543 9 -19857596.56948  20205972.016    20205980.9104
  22447399.292   -10909031.199 8  -8298669.16746  22447407.193    22447414.4954
  20516883.173   -22100947.186 9 -17211678.40048  20516887.397    20516893.3684
  22141838.121   -11843168.952 8  -9213594.67046  22141840.606    22141852.3774
  22694394.538   -11746401.963 8  -9136704.14546  22694404.871    22694417.4604
  21840122.555   -11129166.474 9  -8653466.96847  21840128.105    21840136.0634
  22029511.719   -15488724.501 8 -12056103.07347  22029515.263    22029525.5794
 00  5 24  2 48  0.0000000  0  8 11 21 05 29 15 23 30 25
  23912688.207    -4724966.188 8  -3669999.62245  23912691.860    23912699.3394
  20210542.305   -25490552.666 9 -19838864.86348  20210546.493    20210555.1804
  22451962.817   -10885072.272 8  -8279999.67146  22451966.584    22451973.3194
  20517274.486   -22098908.200 9 -17210089.40748  20517275.516    20517281.1754
  22153729.889   -11780685.011 8  -9164905.82446  22153730.330    22153743.1294
  22711375.156   -11657204.660 8  -9067199.78246  22711378.608    22711391.5964
  21830582.680   -11179297.640 9  -8692529.90147  21830587.941    21830596.0514
  22016242.099   -15558461.326 8 -12110443.14047  22016245.076    22016255.1164
 00  5 24  2 48 30.0000000  0  8 11 21 05 29 15 23 30 25
  23908093.651    -4749118.038 8  -3688819.22145  23908096.666    23908103.4674
  20215226.097   -25465948.482 9 -19819692.65248  20215228.575    20215236.9154
  22456631.531   -10860547.301 8  -8260889.10446  22456633.879    22456640.4844
  20517700.827   -22096650.063 9 -17208329.66448  20517704.966    20517710.8574
  22165704.903   -11717746.339 8  -9115862.64446  22165706.999    22165719.7244
  22728406.238   -11567704.770 8  -8997459.60946  22728410.289    22728422.5724
  21821141.446   -11228925.303 9  -8731200.52547  21821143.919    21821151.9904
  22003029.348   -15627889.813 8 -12164542.93047  22003032.810    22003042.7524
 00  5 24  2 49  0.0000000  0  8 11 21 05 29 15 23 30 25
  23903598.180    -4772750.103 8  -3707233.84545  23903598.807    23903606.2504
  20220014.503   -25440779.423 9 -19800080.28048  20220017.967    20220026.5094
  22461404.055   -10835456.846 8  -8241337.94746  22461407.319    22461414.4534
  20518172.997   -22094172.517 9 -17206398.94248  20518176.290    20518182.2644
  22177767.017   -11654355.807 8  -9066467.36246  22177770.652    22177782.1654
  22745499.141   -11477903.785 8  -8927484.77446  22745499.927    22745511.3764
  21811789.113   -11278047.465 9  -8769477.24747  21811796.143    21811803.9004
  21989873.274   -15697009.115 8 -12218401.78747  21989879.060    21989889.2474
 00  5 24  2 49 30.0000000  0  8 11 21 05 29 15 23 30 25
  23899197.654    -4795862.080 7  -3725243.17045  23899200.408    23899208.5644
  20224910.170   -25415045.400 9 -19780027.68748  20224914.980    20224923.4564
  22466287.245   -10809801.545 8  -8221346.66446  22466289.411    22466295.9924
  20518685.190   -22091475.554 9 -17204297.29148  20518689.206    20518695.4884
  22189915.791   -11590516.070 8  -9016722.03646  22189918.889    22189930.4644
  22762641.991   -11387803.108 8  -8857276.44146  22762644.991    22762657.2704
  21802540.063   -11326661.819 9  -8807358.27547  21802545.098    21802552.8494
  21976776.883   -15765818.793 8 -12272019.37947  21976784.950    21976794.6634
 00  5 24  2 50  0.0000000  0  8 11 21 05 29 15 23 30 25
  23894896.641    -4818453.641 8  -3742846.99045  23894900.853    23894909.1694
  20229915.101   -25388745.762 9 -19759534.37448  20229919.443    20229927.6164
  22471272.011   -10783582.113 8  -8200915.82946  22471279.076    22471285.6104
  20519241.724   -22088558.569 9 -17202024.21248  20519244.251    20519250.4984
  22202150.423   -11526230.066 8  -8966628.95646  22202152.585    22202163.1774
  22779847.752   -11297404.588 8  -8786836.01046  22779847.090    22779858.3364
  21793387.666   -11374766.034 9  -8844841.82147  21793390.826    21793398.4764
  21963747.873   -15834317.871 9 -12325394.96047  21963750.330    21963759.4184
 00  5 24  2 50 30.0000000  0  8 11 21 05 29 15 23 30 25
  23890699.559    -4840524.399 8  -3760044.95645  23890701.036    23890709.2264
  20235030.199   -25361881.201 9 -19738600.85848  20235031.570    20235039.8104
  22476374.078   -10756799.186 8  -8180045.86646  22476375.370    22476382.2824
  20519836.705   -22085421.078 9 -17199579.32348  20519841.138    20519847.3284
  22214465.684   -11461500.836 8  -8916190.50846  22214469.525    22214480.7814
  22797103.661   -11206709.775 8  -8716164.67746  22797106.155    22797117.6884
  21784332.366   -11422357.993 8  -8881926.20447  21784334.188    21784341.9334
  21950769.994   -15902505.711 9 -12378528.02547  21950774.442    21950784.1294
 00  5 24  2 51  0.0000000  0  8 11 21 05 29 15 23 30 25
  23886598.484    -4862074.125 8  -3776836.89545  23886600.470    23886607.4314
  20240247.995   -25334451.324 9 -19717226.83048  20240251.329    20240259.4174
  22481576.830   -10729453.456 8  -8158737.41446  22481579.465    22481585.1304
  20520476.668   -22082062.924 9 -17196962.44848  20520480.057    20520486.0344
  22226866.581   -11396331.294 8  -8865408.96946  22226870.853    22226883.4294
  22814415.986   -11115720.271 8  -8645263.72746  22814420.217    22814432.3344
  21775373.397   -11469435.677 8  -8918609.86947  21775375.666    21775383.2094
  21937850.794   -15970382.015 9 -12431418.33047  21937857.274    21937867.6934
 00  5 24  2 51 30.0000000  0  8 11 21 05 29 15 23 30 25
  23882593.574    -4883102.809 7  -3793222.84945  23882597.900    23882606.3534
  20245575.131   -25306456.087 9 -19695412.27748  20245578.538    20245586.6804
  22486883.277   -10701545.576 8  -8136990.90646  22486889.591    22486895.6264
  20521157.553   -22078483.602 9 -17194173.28348  20521161.329    20521167.0354
  22239352.262   -11330724.270 8  -8814286.50846  22239355.072    22239367.8054
  22831790.533   -11024437.590 8  -8574134.31546  22831790.677    22831802.8674
  21766510.453   -11515996.977 8  -8954891.14347  21766514.733    21766522.3424
  21924997.533   -16037945.959 9 -12484065.25447  21925000.668    21925009.9914
 00  5 24  2 52  0.0000000  0  8 11 21 05 29 15 23 30 25
  23878692.121    -4903610.037 8  -3809202.65245  23878696.623    23878704.3084
  20251011.494   -25277895.781 9 -19673157.40748  20251013.281    20251021.5854
  22492302.384   -10673076.425 8  -8114807.08846  22492307.299    22492313.4744
  20521881.620   -22074682.905 9 -17191211.62448  20521884.694    20521890.1664
  22251920.643   -11264682.517 8  -8762825.33046  22251922.401    22251934.2544
  22849208.925   -10932863.453 8  -8502777.80446  22849216.518    22849229.1924
  21757749.855   -11562039.489 8  -8990768.20347  21757753.054    21757760.8784
  21912200.114   -16105196.603 8 -12536468.03847  21912201.903    21912212.0514
 00  5 24  2 52 30.0000000  0  8 11 21 05 29 15 23 30 25
  23874892.890    -4923595.388 8  -3824775.67845  23874893.675    23874900.1034
  20256553.218   -25248769.805 9 -19650461.77348  20256555.727    20256563.8994
  22497831.668   -10644046.968 8  -8092186.75346  22497831.586    22497838.1104
  20522646.318   -22070660.455 9 -17188077.17148  20522650.010    20522655.4074
  22264565.884   -11198209.225 8  -8711027.87846  22264571.680    22264583.0184
  22866695.101   -10840999.299 8  -8431195.32646  22866697.777    22866709.7854
  21749085.882   -11607561.178 8  -9026239.43547  21749090.493    21749098.2344
  21899460.723   -16172133.680 9 -12588626.51147  21899464.970    21899474.2734
 00  5 24  2 53  0.0000000  0  8 11 21 05 29 15 23 30 25
  23871189.151    -4943058.781 8  -3839941.95845  23871190.528    23871196.6554
  20262201.518   -25219078.841 9 -19627325.88748  20262205.639    20262213.9554
  22503460.739   -10614457.866 8  -8069130.35346  22503462.773    22503468.5184
  20523454.420   -22066415.984 9 -17184769.71748  20523457.566    20523463.0084
  22277299.144   -11131307.206 8  -8658896.33946  22277302.358    22277312.7584
  22884233.044   -10748846.886 8  -8359388.21146  22884234.254    22884245.4824
  21740522.111   -11652560.295 8  -9061303.46847  21740527.057    21740535.0804
  21886782.365   -16238756.420 9 -12640540.04647  21886786.766    21886796.4084
 00  5 24  2 53 30.0000000  0  8 11 21 05 29 15 23 30 25
  23867580.922    -4962000.104 8  -3854701.53145  23867585.156    23867592.8904
  20267961.450   -25188823.177 9 -19603749.98448  20267963.176    20267971.4794
  22509199.901   -10584309.773 8  -8045638.30846  22509199.658    22509205.8024
  20524303.994   -22061948.968 9 -17181288.90348  20524307.414    20524313.1184
  22290108.391   -11063979.527 8  -8606433.12846  22290113.807    22290125.4654
  22901824.024   -10656407.837 8  -8287357.76846  22901824.352    22901836.8214
  21732060.159   -11697034.461 8  -9095958.47747  21732063.432    21732071.6554
  21874163.611   -16305064.618 8 -12692208.51047  21874168.518    21874178.0434
 00  5 24  2 54  0.0000000  0  8 11 21 05 29 15 23 30 25
  23864078.805    -4980419.332 8  -3869054.33645  23864081.051    23864087.7634
  20273826.256   -25158001.875 9 -19579733.31948  20273828.285    20273836.5004
  22515040.715   -10553603.639 8  -8021711.46846  22515042.092    22515049.3714
  20525195.794   -22057259.038 9 -17177634.41348  20525199.947    20525205.6374
  22303001.838   -10996229.156 8  -8553640.57546  22303006.548    22303018.8864
  22919465.669   -10563684.022 8  -8215105.46946  22919469.118    22919481.6844
  21723697.079   -11740981.684 9  -9130202.91047  21723701.087    21723708.8904
  21861607.721   -16371057.371 8 -12743631.18547  21861609.834    21861619.1114
 00  5 24  2 54 30.0000000  0  8 11 21 05 29 15 23 30 25
  23860670.202    -4998316.038 8  -3882999.90745  23860675.186    23860682.6314
  20279797.752   -25126615.930 9 -19555276.67548  20279800.576    20279808.9634
  22520985.716   -10522340.283 8  -7997350.38746  22520991.558    22520998.0784
  20526132.467   -22052345.828 9 -17173805.92748  20526134.750    20526140.3784
  22315974.177   -10928059.118 8  -8500520.99946  22315979.247    22315992.2624
  22937167.039   -10470676.899 8  -8142632.42146  22937168.105    22937180.3874
  21715434.295   -11784399.751 9  -9164035.00947  21715438.261    21715446.0594
  21849108.230   -16436733.933 8 -12794807.47047  21849112.191    21849121.1834
 00  5 24  2 55  0.0000000  0  8 11 21 05 29 15 23 30 25
  23857362.476    -5015690.494 8  -3896538.62345  23857368.278    23857376.2134
  20285875.731   -25094665.417 9 -19530380.12248  20285880.455    20285889.0424
  22527043.353   -10490520.889 8  -7972556.08246  22527046.332    22527053.5014
  20527108.260   -22047209.058 9 -17169803.28548  20527112.155    20527117.8724
  22329024.435   -10859472.386 8  -8447076.77646  22329031.101    22329043.3364
  22954916.659   -10377388.286 8  -8069940.03346  22954920.479    22954932.6554
  21707275.136   -11827286.971 9  -9197453.46747  21707277.278    21707285.0704
  21836671.139   -16502094.045 8 -12845737.21547  21836674.375    21836683.2374
 00  5 24  2 55 30.0000000  0  8 11 21 05 29 15 23 30 25
  23854159.800    -5032542.099 7  -3909669.95145  23854162.655    23854168.9234
  20292064.109   -25062150.176 9 -19505043.52548  20292068.254    20292076.3414
  22533204.642   -10458146.226 8  -7947329.17346  22533207.604    22533214.5144
  20528129.912   -22041848.144 9 -17165625.96248  20528132.656    20528138.4074
  22342154.208   -10790471.822 8  -8393310.05646  22342160.330    22342172.6904
  22972724.512   -10283819.783 8  -7997029.57146  22972725.421    22972737.9854
  21699212.912   -11869641.365 9  -9230456.73947  21699217.623    21699225.2534
  21824296.275   -16567137.428 9 -12896420.14247  21824297.231    21824305.3154
 00  5 24  2 56  0.0000000  0  8 11 21 05 29 15 23 30 25
  23851054.838    -5048871.010 8  -3922393.81145  23851055.883    23851061.9024
  20298358.764   -25029070.595 9 -19479267.18548  20298362.804    20298371.0534
  22539472.345   -10425217.124 8  -7921670.11846  22539473.476    22539480.0664
  20529192.749   -22036262.830 9 -17161273.76048  20529195.594    20529201.1234
  22355370.185   -10721060.686 8  -8339223.42646  22355369.048    22355381.1844
  22990578.518   -10189973.024 8  -7923902.26846  22990583.659    22990596.3864
  21691257.261   -11911460.831 9  -9263043.21647  21691259.420    21691266.9164
  21811975.545   -16631862.609 8 -12946855.14947  21811980.021    21811988.7664
 00  5 24  2 56 30.0000000  0  8 11 21 05 29 15 23 30 25
  23848047.049    -5064677.263 8  -3934710.49745  23848047.543    23848054.7424
  20304762.502   -24995426.585 9 -19453051.04348  20304765.216    20304773.4164
  22545840.948   -10391734.489 8  -7895579.63746  22545845.006    22545851.7074
  20530297.866   -22030452.764 9 -17156746.39248  20530301.348    20530306.6304
  22368651.846   -10651241.925 8  -8284819.16846  22368655.691    22368668.0754
  23008496.548   -10095849.514 8  -7850559.30446  23008495.476    23008507.9394
  21683400.967   -11952743.455 9  -9295211.35147  21683403.187    21683410.6944
  21799720.660   -16696269.285 9 -12997041.95447  21799723.650    21799732.1414
 00  5 24  2 57  0.0000000  0  8 11 21 05 29 15 23 30 25
  23845135.991    -5079960.829 8  -3946619.95545  23845139.288    23845145.7034
  20311273.866   -24961218.614 9 -19426395.46548  20311274.791    20311282.8464
  22552320.820   -10357699.701 8  -7869058.98546  22552321.621    22552327.8024
  20531445.681   -22024417.583 9 -17152043.62348  20531449.597    20531455.1114
  22382012.041   -10581018.602 8  -8230099.67646  22382018.075    22382031.0744
  23026453.568   -10001451.266 8  -7777002.24946  23026458.843    23026471.2864
  21675646.790   -11993487.596 9  -9326959.89447  21675650.363    21675657.1054
  21787526.232   -16760357.279 9 -13046980.43147  21787528.167    21787536.3474
 00  5 24  2 57 30.0000000  0  8 11 21 05 29 15 23 30 25
  23842327.778    -5094721.268 8  -3958121.68045  23842330.163    23842338.5944
  20317888.213   -24926447.049 9 -19399300.70948  20317891.309    20317899.6224
  22558898.443   -10323113.451 8  -7842108.61646  22558902.486    22558909.3114
  20532637.396   -22018156.775 9 -17147165.02748  20532640.887    20532646.5844
  22395457.604   -10510393.660 8  -8175067.28846  22395459.198    22395469.9384
  23044470.442    -9906779.939 8  -7703232.41446  23044474.122    23044487.2594
  21668000.189   -12033691.058 9  -9358287.10147  21667999.532    21668005.9844
  21775390.507   -16824125.789 9 -13096669.98447  21775392.976    21775401.6834
 00  5 24  2 58  0.0000000  0  8 11 21 05 29 15 23 30 25
  23839618.335    -5108959.147 8  -3969216.21745  23839620.665    23839628.6994
  20324612.387   -24891111.775 9 -19371766.70648  20324615.467    20324623.7294
  22565588.521   -10287976.971 8  -7814729.42346  22565588.855    22565595.4214
  20533872.013   -22011669.986 9 -17142110.30048  20533875.015    20533881.1074
  22408973.320   -10439370.300 8  -8119724.41946  22408974.125    22408985.2224
  23062531.292    -9811837.211 8  -7629251.12046  23062540.518    23062553.3534
  21660448.347   -12073352.127 9  -9389191.66447  21660451.436    21660459.1314
  21763317.976   -16887574.157 9 -13146110.07047  21763319.585    21763327.4684
 00  5 24  2 58 30.0000000  0  8 11 21 05 29 15 23 30 25
  23837010.645    -5122674.373 8  -3979903.52145  23837010.668    23837019.3394
  20331445.813   -24855213.472 9 -19343793.97648  20331447.131    20331454.8124
  22572374.392   -10252291.406 8  -7786922.45646  22572379.027    22572386.3474
  20535147.799   -22004956.793 9 -17136879.17348  20535152.354    20535158.2184
  22422559.984   -10367951.558 8  -8064073.46346  22422564.013    22422575.7804
  23080661.031    -9716624.816 8  -7555059.64546  23080659.686    23080671.6814
  21653005.500   -12112468.758 9  -9419671.98047  21653008.222    21653015.0584
  21751303.021   -16950702.283 9 -13195300.60447  21751305.992    21751314.4164
 00  5 24  2 59  0.0000000  0  8 11 21 05 29 15 23 30 25
  23834496.276    -5135866.987 8  -3990183.59345  23834500.211    23834509.9134
  20338381.302   -24818752.310 9 -19315382.64948  20338385.247    20338393.1584
  22579273.047   -10216057.281 8  -7758687.95946  22579274.790    22579281.9194
  20536469.737   -21998016.911 9 -17131471.44448  20536473.279    20536478.8414
  22436228.768   -10296140.614 8  -8008116.88946  22436230.389    22436241.5474
  23098824.274    -9621144.614 8  -7480659.50245  23098827.521    23098841.1084
  21645663.553   -12151039.316 9  -9449726.77547  21645668.489    21645675.3014
  21739353.865   -17013509.659 9 -13244241.22547  21739354.420    21739362.4204
 00  5 24  2 59 30.0000000  0  8 11 21 05 29 15 23 30 25
  23832087.611    -5148537.151 8  -4000056.59145  23832090.374    23832098.3664
  20345427.885   -24781728.806 9 -19286533.12048  20345430.417    20345438.5364
  22586272.618   -10179275.810 8  -7730026.90446  22586274.157    22586281.2464
  20537833.007   -21990849.749 9 -17125886.57648  20537837.055    20537842.5234
  22449964.263   -10223940.387 8  -7951856.97346  22449969.067    22449980.9944
  23117045.706    -9525398.367 8  -7406052.01045  23117048.182    23117061.2844
  21638430.670   -12189061.951 9  -9479354.60747  21638433.125    21638440.0454
  21727458.753   -17075995.355 9 -13292931.17747  21727463.563    21727471.5574
 00  5 24  3  0  0.0000000  0  8 11 21 05 29 15 23 30 25
  23829774.950    -5160684.777 8  -4009522.37445  23829778.596    23829786.0804
  20352578.889   -24744143.200 9 -19257245.58348  20352582.507    20352590.3884
  22593372.898   -10141948.391 8  -7700940.49946  22593377.507    22593384.0394
  20539241.310   -21983455.067 9 -17120124.40948  20539244.207    20539249.8064
  22463777.119   -10151354.133 8  -7895296.26246  22463781.370    22463792.6004
  23135318.070    -9429387.726 8  -7331238.49245  23135318.482    23135331.0174
  21631299.025   -12226534.713 9  -9508553.95447  21631302.264    21631308.9104
  21715632.080   -17138159.093 9 -13341370.25247  21715634.003    21715642.1034
 00  5 24  3  0 30.0000000  0  8 11 21 05 29 15 23 30 25
  23827561.315    -5172309.974 8  -4018580.79145  23827566.000    23827574.4934
  20359839.290   -24705996.192 9 -19227520.58048  20359841.718    20359849.3364
  22600579.326   -10104076.191 8  -7671429.62046  22600584.189    22600590.4634
  20540690.865   -21975832.589 9 -17114184.79348  20540694.617    20540700.3624
  22477662.135   -10078384.709 8  -7838437.01046  22477667.568    22477678.8944
  23153641.277    -9333114.389 8  -7256220.23645  23153639.368    23153651.3724
  21624274.781   -12263456.043 9  -9537323.60447  21624275.870    21624282.5514
  21703863.550   -17200000.570 9 -13389558.20847  21703865.756    21703873.8624
 00  5 24  3  1  0.0000000  0  8 11 21 05 29 15 23 30 25
  23825448.638    -5183413.389 8  -4027232.89145  23825453.392    23825461.2414
  20367204.790   -24667287.882 9 -19197358.17948  20367207.402    20367215.4904
  22607892.162   -10065660.524 8  -7641495.44646  22607894.527    22607901.7554
  20542184.958   -21967981.611 9 -17108067.10248  20542188.516    20542194.1964
  22491620.669   -10005035.395 8  -7781281.75146  22491624.167    22491636.9594
  23172002.203    -9236580.428 8  -7180998.93145  23172008.485    23172020.8544
  21617350.575   -12299824.141 9  -9565662.15047  21617354.792    21617361.8214
  21692154.202   -17261519.139 9 -13437494.56547  21692158.876    21692166.6004
 00  5 24  3  1 30.0000000  0  8 11 21 05 29 15 23 30 25
  23823437.415    -5193993.671 8  -4035477.00745  23823439.407    23823446.2854
  20374677.832   -24628018.762 9 -19166758.78347  20374680.285    20374688.1674
  22615303.515   -10026702.214 8  -7611138.34046  22615307.827    22615314.2234
  20543722.595   -21959901.916 9 -17101771.18348  20543725.838    20543731.6054
  22505647.258    -9931309.695 8  -7723833.17946  22505654.491    22505666.6354
  23190429.105    -9139787.570 8  -7105575.89445  23190426.085    23190440.0514
  21610537.640   -12335637.293 9  -9593568.26547  21610539.977    21610546.3034
  21680509.433   -17322714.190 9 -13485178.81947  21680513.868    21680521.9974
 00  5 24  3  2  0.0000000  0  8 11 21 05 29 15 23 30 25
  23821517.811    -5204052.477 8  -4043314.78345  23821526.401    23821534.4544
  20382256.539   -24588189.926 9 -19135723.24447  20382259.501    20382267.2174
  22622820.882    -9987202.423 8  -7580359.09346  22622824.505    22622830.9304
  20545303.722   -21951592.863 9 -17095296.47948  20545307.026    20545312.7544
  22519754.579    -9857210.434 8  -7666093.50246  22519756.210    22519766.8804
  23208893.904    -9042737.410 8  -7029952.36345  23208895.881    23208908.0554
  21603828.315   -12370893.718 9  -9621040.54747  21603830.359    21603837.3584
  21668927.188   -17383585.624 9 -13532610.89647  21668930.301    21668938.2594
 00  5 24  3  2 30.0000000  0  8 11 21 05 29 15 23 30 25
  23819710.002    -5213589.649 8  -4050746.12945  23819712.572    23819718.6274
  20389942.551   -24547801.058 9 -19104251.32447  20389945.130    20389952.9234
  22630441.912    -9947162.695 8  -7549159.31046  22630443.524    22630449.9104
  20546928.241   -21943054.120 9 -17088642.81048  20546931.671    20546937.4954
  22533925.850    -9782740.654 8  -7608065.09246  22533926.844    22533937.5944
  23227405.380    -8945431.833 8  -6954129.82845  23227411.303    23227424.3484
  21597224.502   -12405591.816 9  -9648077.76047  21597227.471    21597234.2464
  21657404.798   -17444132.992 9 -13579790.43447  21657407.920    21657416.0044
 00  5 24  3  3  0.0000000  0  8 11 21 05 29 15 23 30 25
  23817990.546    -5222605.553 8  -4057771.31845  23817994.360    23818002.0494
  20397735.065   -24506852.960 9 -19072343.64847  20397736.933    20397745.2084
  22638168.078    -9906583.968 8  -7517539.44646  22638165.733    22638170.9074
  20548596.634   -21934285.688 9 -17081810.21448  20548600.266    20548606.1344
  22548165.495    -9707903.716 8  -7549750.59446  22548167.736    22548179.0374
  23245982.189    -8847872.704 8  -6878109.68945  23245976.479    23245989.9634
  21590726.715   -12439730.081 9  -9674678.71647  21590730.843    21590738.0154
  21645945.566   -17504355.957 9 -13626717.18247  21645947.524    21645955.1754
 00  5 24  3  3 30.0000000  0  8 11 21 05 29 15 23 30 25
  23816374.326    -5231100.525 8  -4064390.51145  23816378.841    23816386.6744
  20405632.509   -24465346.133 9 -19040000.59847  20405635.092    20405643.6864
  22645986.014    -9865467.872 8  -7485500.89546  22645989.962    22645996.4404
  20550309.870   -21925286.558 9 -17074797.83248  20550312.943    20550318.3484
  22562479.403    -9632702.695 8  -7491152.41946  22562478.515    22562489.8594
  23264585.725    -8750061.838 8  -6801893.40845  23264589.038    23264601.2014
  21584338.170   -12473306.746 9  -9700842.04947  21584341.080    21584347.8574
  21634547.226   -17564253.860 9 -13673390.62547  21634549.721    21634557.3114
 00  5 24  3  4  0.0000000  0  8 11 21 05 29 15 23 30 25
  23814856.054    -5239074.816 8  -4070603.98245  23814861.119    23814868.2304
  20413636.718   -24423281.186 9 -19007222.64847  20413640.126    20413647.9684
  22653918.305    -9823815.389 8  -7453044.37746  22653915.832    22653922.2804
  20552067.069   -21916056.773 9 -17067605.72648  20552069.538    20552074.7144
  22576849.903    -9557140.633 8  -7432272.88546  22576856.292    22576868.0364
  23283251.324    -8652001.154 8  -6725482.42945  23283250.117    23283261.4624
  21578055.944   -12506320.156 9  -9726566.44847  21578058.354    21578065.2684
  21623210.254   -17623826.045 9 -13719810.27247  21623213.408    21623221.2924
 00  5 24  3  4 30.0000000  0  8 11 21 05 29 15 23 30 25
  23813438.544    -5246528.770 8  -4076412.14745  23813442.824    23813449.4024
  20421747.334   -24380658.594 9 -18974010.16447  20421750.806    20421758.7114
  22661940.485    -9781628.023 8  -7420171.07746  22661943.988    22661950.6884
  20553866.360   -21906595.365 9 -17060233.10948  20553869.477    20553875.1204
  22591305.417    -9481220.739 8  -7373114.54046  22591304.948    22591316.0714
  23301946.299    -8553692.255 7  -6648878.06145  23301956.665    23301969.4394
  21571881.403   -12538768.641 9  -9751850.64347  21571883.828    21571890.2894
  21611934.916   -17683072.277 9 -13765975.90547  21611938.520    21611946.8264
 00  5 24  3  5  0.0000000  0  8 11 21 05 29 15 23 30 25
  23812126.955    -5253462.731 8  -4081815.15345  23812123.713    23812129.2954
  20429963.763   -24337478.953 9 -18940363.61347  20429967.530    20429975.6804
  22670072.118    -9738907.229 8  -7386882.21446  22670073.012    22670079.5104
  20555711.364   -21896902.376 9 -17052680.07348  20555713.785    20555719.9384
  22605816.475    -9404946.167 8  -7313679.77246  22605818.744    22605829.4194
  23320699.497    -8455137.159 7  -6572081.85145  23320711.022    23320723.9874
  21565815.062   -12570650.877 9  -9776693.58347  21565816.557    21565822.8784
  21600722.759   -17741992.341 9 -13811887.38547  21600726.165    21600734.7684
 00  5 24  3  5 30.0000000  0  8 11 21 05 29 15 23 30 25
  23810895.250    -5259877.162 8  -4086813.29245  23810901.519    23810907.2584
  20438286.903   -24293742.836 9 -18906283.43747  20438290.132    20438298.1984
  22678298.430    -9695653.900 8  -7353178.27846  22678304.099    22678310.3144
  20557598.645   -21886977.249 9 -17044946.22348  20557602.250    20557608.3884
  22620400.845    -9328320.333 8  -7253971.31146  22620399.872    22620411.0924
  23339508.499    -8356337.832 7  -6495095.37645  23339513.552    23339526.2594
  21559852.847   -12601965.152 9  -9801093.96947  21559857.176    21559863.3704
  21589572.345   -17800585.845 9 -13857544.39347  21589576.432    21589584.4424
 00  5 24  3  6  0.0000000  0  8 11 21 05 29 15 23 30 25
  23809774.878    -5265772.450 8  -4091406.96145  23809779.657    23809786.2244
  20446714.473   -24249451.046 9 -18871770.26447  20446718.563    20446726.3044
  22686632.906    -9651869.652 8  -7319060.74746  22686635.343    22686642.2814
  20559531.246   -21876819.413 9 -17037030.89648  20559535.487    20559541.3214
  22635040.837    -9251346.483 8  -7193991.69046  22635046.975    22635057.6824
  23358350.160    -8257295.974 8  -6417919.92645  23358360.613    23358372.7744
  21554003.466   -12632709.939 9  -9825050.59047  21554006.822    21554013.0694
  21578485.482   -17858852.370 9 -13902946.60747  21578488.335    21578496.2384
 00  5 24  3  6 30.0000000  0  8 11 21 05 29 15 23 30 25
  23808755.382    -5271148.857 8  -4095596.43445  23808758.439    23808762.8644
  20455248.579   -24204604.414 9 -18836824.73947  20455252.282    20455260.3844
  22695062.960    -9607555.612 8  -7284530.12646  22695069.203    22695075.2334
  20561510.880   -21866428.707 9 -17028934.20248  20561512.972    20561518.6274
  22649758.323    -9174027.739 8  -7133743.29946  22649760.686    22649772.4334
  23377251.757    -8158013.433 7  -6340556.89845  23377254.970    23377264.3684
  21548263.421   -12662884.005 9  -9848562.53447  21548264.633    21548270.5534
  21567458.194   -17916791.637 9 -13948093.83547  21567462.870    21567470.0004
 00  5 24  3  7  0.0000000  0  8 11 21 05 29 15 23 30 25
  23807833.597    -5276006.856 8  -4099381.87945  23807833.073    23807838.8494
  20463887.928   -24159203.951 9 -18801447.66647  20463891.673    20463899.6194
  22703605.024    -9562713.545 8  -7249588.16546  22703601.394    22703608.0154
  20563529.450   -21855804.533 9 -17020655.58148  20563534.558    20563540.3284
  22664535.426    -9096367.539 8  -7073228.81046  22664539.726    22664550.8174
  23396191.346    -8058492.183 7  -6263007.88845  23396190.209    23396202.5414
  21542626.086   -12692485.991 9  -9871628.71947  21542631.332    21542637.6284
  21556495.558   -17974403.369 9 -13992985.84847  21556499.251    21556506.6754
 00  5 24  3  7 30.0000000  0  8 11 21 05 29 15 23 30 25
  23807001.448    -5280347.199 8  -4102764.05345  23807007.314    23807012.6254
  20472632.802   -24113250.192 9 -18765639.46447  20472636.607    20472644.2774
  22712232.403    -9517344.865 8  -7214235.87346  22712234.597    22712241.1684
  20565597.539   -21844946.352 9 -17012194.56048  20565600.801    20565606.2034
  22679378.205    -9018368.856 8  -7012450.61146  22679382.600    22679393.8474
  23415168.627    -7958734.051 7  -6185274.28245  23415176.514    23415185.6854
  21537101.879   -12721514.454 9  -9894248.02947  21537107.122    21537113.5674
  21545598.258   -18031686.879 9 -14037622.09947  21545598.795    21545606.2104
 00  5 24  3  8  0.0000000  0  8 11 21 05 29 15 23 30 25
  23806276.110    -5284169.639 8  -4105742.51445  23806279.112    23806284.9504
  20481482.909   -24066743.619 9 -18729400.52147  20481486.303    20481494.2154
  22720964.354    -9471451.241 8  -7178474.57146  22720968.166    22720974.9564
  20567709.822   -21833853.995 9 -17003551.12148  20567711.686    20567716.7954
  22694283.297    -8940034.820 8  -6951411.07246  22694287.141    22694299.6944
  23434203.517    -7858740.949 7  -6107357.61245  23434201.862    23434215.8314
  21531689.727   -12749967.586 9  -9916419.04747  21531692.676    21531698.6924
  21534757.654   -18088642.278 9 -14082002.67847  21534760.507    21534767.5594
 00  5 24  3  8 30.0000000  0  8 11 21 05 29 15 23 30 25
  23805649.014    -5287474.618 8  -4108317.68445  23805649.275    23805656.1714
  20490439.776   -24019684.889 9 -18692731.31347  20490441.180    20490448.6524
  22729797.419    -9425033.913 8  -7142305.29246  22729801.277    22729807.5974
  20569865.414   -21822526.911 9 -16994724.80648  20569866.952    20569872.0584
  22709257.242    -8861368.846 8  -6890112.91446  22709257.726    22709269.2284
  23453264.376    -7758514.974 7  -6029259.50845  23453274.201    23453287.6834
  21526384.917   -12777844.370 9  -9938140.99147  21526387.350    21526393.1524
  21523979.922   -18145268.731 9 -14126126.91447  21523984.191    21523991.7654
 00  5 24  3  9  0.0000000  0  8 11 21 05 29 15 23 30 25
  23805117.391    -5290263.395 8  -4110490.62145  23805120.248    23805126.0634
  20499498.994   -23972074.966 9 -18655632.58947  20499501.285    20499508.7184
  22738729.380    -9378093.976 8  -7105728.57546  22738733.141    22738739.5704
  20572064.747   -21810964.478 9 -16985715.08648  20572067.222    20572072.4434
  22724287.583    -8782374.079 8  -6828558.53746  22724290.298    22724301.2604
  23472387.611    -7658057.746 7  -5950981.19644  23472391.006    23472404.9514
  21521185.775   -12805143.059 9  -9959412.45347  21521191.919    21521197.9584
  21513267.284   -18201566.212 9 -14169994.81947  21513271.025    21513278.2434
 00  5 24  3  9 30.0000000  0  8 11 21 05 29 15 23 30 25
  23804681.637    -5292536.140 8  -4112261.42545  23804686.903    23804692.7384
  20508661.718   -23923914.927 9 -18618105.19047  20508665.840    20508673.2824
  22747765.203    -9330633.627 8  -7068746.46946  22747764.552    22747771.5624
  20574309.406   -21799166.523 9 -16976521.83748  20574312.172    20574317.5044
  22739384.641    -8703053.805 8  -6766750.49946  22739384.607    22739395.5764
  23491556.589    -7557371.486 7  -5872524.43645  23491552.893    23491562.9504
  21516103.523   -12831862.753 9  -9980232.77647  21516107.888    21516113.3954
  21502617.379   -18257534.652 9 -14213606.34347  21502620.478    21502627.2484
 00  5 24  3 10  0.0000000  0  8 11 21 05 29 15 23 30 25
  23804342.337    -5294293.141 8  -4113630.22045  23804351.101    23804359.0974
  20517931.886   -23875205.427 9 -18580149.64747  20517934.842    20517942.6904
  22756894.189    -9282653.979 8  -7031359.78546  22756895.213    22756901.9774
  20576598.698   -21787132.337 9 -16967144.47748  20576602.376    20576607.5104
  22754534.018    -8623411.316 8  -6704691.41946  22754539.790    22754551.8474
  23510748.095    -7456458.046 7  -5793890.61245  23510756.627    23510765.1264
  21511129.922   -12858001.854 9 -10000600.70847  21511133.484    21511138.9704
  21492028.654   -18313173.322 9 -14256960.89747  21492032.512    21492039.7624
 00  5 24  3 10 30.0000000  0  8 11 21 05 29 15 23 30 25
  23804118.021    -5295535.318 8  -4114597.90245  23804117.103    23804121.8804
  20527304.928   -23825947.602 9 -18541766.83047  20527308.397    20527316.0964
  22766118.950    -9234156.873 8  -6993569.98746  22766123.837    22766130.5114
  20578933.534   -21774861.629 9 -16957582.84848  20578937.291    20578942.4764
  22769753.173    -8543450.089 8  -6642383.96946  22769756.393    22769767.2384
  23530001.808    -7355319.078 7  -5715081.09444  23529998.879    23530012.5164
  21506267.276   -12883558.973 9 -10020515.15747  21506269.731    21506275.5794
  21481504.317   -18368482.139 9 -14300058.38547  21481506.953    21481514.2054
 00  5 24  3 11  0.0000000  0  8 11 21 05 29 15 23 30 25
  23803972.026    -5296263.194 8  -4115164.84345  23803976.711    23803984.5644
  20536783.204   -23776141.722 9 -18502956.97347  20536786.135    20536793.3914
  22775447.394    -9185143.488 8  -6955377.85446  22775450.718    22775457.0824
  20581311.879   -21762353.838 9 -16947836.50048  20581317.180    20581322.7264
  22785024.550    -8463173.238 8  -6579830.56146  22785031.717    22785043.1944
  23549275.804    -7253956.764 7  -5636097.53745  23549289.531    23549304.9484
  21501514.934   -12908533.132 9 -10039975.34647  21501517.444    21501523.0894
  21471042.326   -18423461.049 9 -14342898.78647  21471044.782    21471052.3254
 00  5 24  3 11 30.0000000  0  8 11 21 05 29 15 23 30 25
  23803933.731    -5296477.696 8  -4115331.83145  23803935.184    23803942.7054
  20546365.010   -23725789.071 9 -18463721.05747  20546367.459    20546375.3344
  22784871.088    -9135615.149 8  -6916784.31546  22784875.811    22784882.3664
  20583738.330   -21749608.508 9 -16937905.08348  20583742.835    20583748.1204
  22800364.942    -8382583.808 8  -6517033.62346  22800367.698    22800378.6144
  23568610.614    -7152372.975 7  -5556941.40444  23568620.147    23568631.1584
  21496871.426   -12932922.899 9 -10058980.22347  21496875.590    21496881.4614
  21460641.301   -18478109.628 9 -14385481.80447  21460645.379    21460652.5074
 00  5 24  3 12  0.0000000  0  8 11 21 05 29 15 23 30 25
  23803987.889    -5296179.253 8  -4115099.28845  23803993.616    23803999.8834
  20556048.137   -23674890.658 9 -18424059.87647  20556052.897    20556060.8664
  22794391.713    -9085573.840 8  -6877791.03746  22794398.737    22794404.3194
  20586209.444   -21736625.466 9 -16927788.42148  20586213.006    20586218.4354
  22815761.201    -8301685.264 8  -6453995.79646  22815762.933    22815773.6804
  23587994.370    -7050569.613 7  -5477614.17044  23587992.208    23588006.1334
  21492342.201   -12956727.075 9 -10077528.80247  21492345.787    21492351.3094
  21450303.994   -18532427.519 9 -14427807.13947  21450308.772    21450315.7514
 00  5 24  3 12 30.0000000  0  8 11 21 05 29 15 23 30 25
  23804144.444    -5295368.546 8  -4114467.48445  23804146.951    23804154.1494
  20565840.318   -23623446.959 9 -18383973.81047  20565842.240    20565850.0434
  22804012.069    -9035021.011 8  -6838399.15546  22804018.044    22804024.0974
  20588726.418   -21723403.843 9 -16917485.83648  20588729.073    20588734.2984
  22831214.348    -8220480.749 8  -6390719.56646  22831215.215    22831226.4424
  23607420.730    -6948548.719 7  -5398117.46344  23607405.879    23607418.2164
  21487925.201   -12979944.637 9 -10095620.28547  21487927.847    21487933.1174
  21440033.643   -18586414.576 9 -14469874.64747  21440035.107    21440041.7814
 00  5 24  3 13  0.0000000  0  8 11 21 05 29 15 23 30 25
  23804393.679    -5294046.331 8  -4113437.12545  23804399.031    23804405.5454
  20575734.432   -23571459.148 9 -18343463.75847  20575735.554    20575743.0474
  22813731.578    -8983958.714 8  -6798610.32446  22813735.507    22813741.7504
  20591286.261   -21709943.321 9 -16906997.05248  20591290.798    20591296.2124
  22846720.121    -8138973.698 8  -6327207.57346  22846724.988    22846736.1724
  23626862.428    -6846312.304 7  -5318452.86344  23626864.145    23626875.5624
  21483619.923   -13002574.128 9 -10113253.54647  21483621.382    21483626.7034
  21429820.862   -18640070.462 9 -14511684.10947  21429824.481    21429831.3784
 00  5 24  3 13 30.0000000  0  8 11 21 05 29 15 23 30 25
  23804743.096    -5292213.418 8  -4112008.86945  23804747.135    23804753.0054
  20585730.400   -23518928.817 9 -18302530.96947  20585731.783    20585738.7844
  22823544.820    -8932387.828 8  -6758425.15146  22823547.373    22823554.0354
  20593894.663   -21696243.500 9 -16896321.84348  20593897.659    20593903.2004
  22862289.274    -8057167.331 8  -6263462.37946  22862292.391    22862302.7144
  23646341.336    -6743862.278 7  -5238621.77644  23646357.349    23646372.2544
  21479424.944   -13024614.663 9 -10130427.88547  21479427.318    21479432.9144
  21419672.746   -18693395.131 9 -14553235.49147  21419676.511    21419683.4254
 00  5 24  3 14  0.0000000  0  8 11 21 05 29 15 23 30 25
  23805187.800    -5289870.288 8  -4110182.93945  23805192.988    23805198.6294
  20595826.994   -23465856.843 9 -18261176.11347  20595830.779    20595838.1344
  22833455.651    -8880310.781 8  -6717845.56046  22833459.132    22833463.9604
  20596546.108   -21682304.029 9 -16885459.91348  20596550.270    20596555.8064
  22877908.552    -7975065.180 8  -6199486.75446  22877914.181    22877926.5504
  23665877.650    -6641200.561 7  -5158625.73444  23665894.155    23665907.2134
  21475343.018   -13046064.887 9 -10147142.26147  21475345.485    21475350.6104
  21409587.466   -18746388.247 9 -14594528.47947  21409592.104    21409599.3044
 00  5 24  3 14 30.0000000  0  8 11 21 05 29 15 23 30 25
  23805733.643    -5287017.703 8  -4107959.98845  23805735.006    23805741.7734
  20606028.711   -23412243.886 9 -18219399.75247  20606032.846    20606040.0924
  22843462.309    -8827729.209 8  -6676872.97446  22843464.465    22843470.0224
  20599246.235   -21668124.185 9 -16874410.65948  20599248.540    20599254.0994
  22893589.096    -7892670.366 8  -6135283.07246  22893593.326    22893606.2734
  23685484.504    -6538329.281 7  -5078466.38944  23685470.696    23685483.2264
  21471371.675   -13066924.004 9 -10163396.00747  21471375.977    21471381.2134
  21399566.289   -18799049.723 9 -14635563.09947  21399570.935    21399577.7494
 00  5 24  3 15  0.0000000  0  8 11 21 05 29 15 23 30 25
  23806365.849    -5283656.384 8  -4105340.55345  23806373.801    23806380.1234
  20616332.352   -23358091.396 9 -18177202.97347  20616337.664    20616345.2464
  22853564.585    -8774644.402 8  -6635508.06046  22853565.838    22853572.2704
  20601990.234   -21653703.644 9 -16863173.85948  20601992.861    20601998.0544
  22909325.991    -7809986.179 8  -6070853.92246  22909328.908    22909341.5534
  23705073.444    -6435250.523 7  -4998145.44444  23705085.827    23705097.7584
  21467516.868   -13087190.911 9 -10179188.30947  21467519.071    21467524.5724
  21389611.352   -18851379.165 9 -14676338.92447  21389612.924    21389618.9414
 00  5 24  3 15 30.0000000  0  8 11 21 05 29 15 23 30 25
  23807107.674    -5279787.156 8  -4102325.37045  23807111.118    23807117.0934
  20626741.814   -23303399.964 9 -18134586.22747  20626745.346    20626752.2804
  22863763.469    -8721058.166 8  -6593752.50346  22863763.555    22863768.9294
  20604778.352   -21639041.988 9 -16851749.20548  20604782.784    20604787.8004
  22925115.611    -7727015.810 8  -6006201.74446  22925118.528    22925130.3314
  23724743.283    -6331966.055 7  -4917664.16544  23724740.674    23724750.6664
  21463772.578   -13106864.546 9 -10194518.29947  21463775.541    21463780.6784
  21379714.324   -18903376.179 9 -14716855.70447  21379717.746    21379724.0614
 00  5 24  3 16  0.0000000  0  8 11 21 05 29 15 23 30 25
  23807934.495    -5275411.268 8  -4098915.54445  23807943.734    23807949.3124
  20637253.206   -23248170.915 9 -18091550.55847  20637255.119    20637262.6534
  22874053.720    -8666972.694 8  -6551608.07046  22874055.326    22874061.4584
  20607614.919   -21624138.653 9 -16840136.24148  20607618.564    20607623.9934
  22940956.452    -7643762.755 8  -5941329.28746  22940961.189    22940972.5844
  23744432.286    -6228477.840 7  -4837024.11544  23744430.976    23744446.1024
  21460141.831   -13125943.409 9 -10209384.86847  21460144.706    21460150.0904
  21369883.895   -18955040.720 9 -14757113.40647  21369886.489    21369892.1264
 00  5 24  3 16 30.0000000  0  7 11 21 05 29 15 30 25
  23808865.416    -5270529.422 8  -4095111.50245  23808871.471    23808878.6394
  20647864.241   -23192405.578 9 -18048097.00147  20647866.867    20647874.0964
  22884438.053    -8612389.629 8  -6509075.96246  22884442.529    22884448.4164
  20610496.185   -21608993.280 9 -16828334.68048  20610500.805    20610506.1544
  22956850.774    -7560230.308 8  -5876239.08846  22956855.459    22956867.7264
  21456623.265   -13144427.211 9 -10223787.76847  21456627.088    21456632.2364
  21360116.096   -19006372.873 9 -14797112.04847  21360118.248    21360123.3954
 00  5 24  3 17  0.0000000  0  7 11 21 05 29 15 30 25
  23809897.128    -5265142.217 8  -4090913.58145  23809898.957    23809903.9724
  20658578.389   -23136104.795 9 -18004226.22347  20658580.331    20658587.8674
  22894922.902    -8557309.981 8  -6466156.62046  22894923.511    22894930.2094
  20613426.867   -21593605.276 9 -16816344.02648  20613428.959    20613434.3754
  22972799.637    -7476421.779 8  -5810933.74146  22972804.242    22972815.1694
  21453220.824   -13162314.531 9 -10237725.83947  21453223.363    21453228.8114
  21350408.598   -19057372.624 9 -14836851.76747  21350412.948    21350417.9054
 00  5 24  3 17 30.0000000  0  7 11 21 05 29 15 30 25
  23811014.266    -5259250.908 8  -4086322.85945  23811018.183    23811025.1054
  20669393.272   -23079270.280 9 -17959939.53647  20669395.452    20669402.8524
  22905498.475    -8501736.316 8  -6422852.46646  22905499.052    22905505.5794
  20616401.106   -21577974.145 9 -16804163.91748  20616403.792    20616409.0984
  22988800.016    -7392340.373 8  -5745415.80746  22988803.847    22988816.0884
  21449929.046   -13179604.630 9 -10251198.55147  21449933.426    21449938.4744
  21340767.981   -19108039.530 9 -14876332.11647  21340770.510    21340776.1974
 00  5 24  3 18  0.0000000  0  7 11 21 05 29 15 30 25
  23812232.898    -5252856.046 8  -4081339.71245  23812235.106    23812242.0194
  20680310.164   -23021902.622 9 -17915237.40847  20680311.980    20680319.6534
  22916164.279    -8445670.098 8  -6379164.49746  22916167.382    22916175.0134
  20619422.662   -21562099.635 9 -16791794.17448  20619424.411    20619429.9014
  23004848.553    -7307989.536 8  -5679687.90846  23004855.455    23004867.7734
  21446754.750   -13196296.546 9 -10264205.16447  21446756.771    21446761.7374
  21331188.604   -19158373.426 9 -14915553.00247  21331191.882    21331198.2074
 00  5 24  3 18 30.0000000  0  7 11 21 05 29 15 30 25
  23813549.200    -5245958.732 8  -4075965.13045  23813548.025    23813554.6914
  20691328.074   -22964003.330 9 -17870121.02147  20691329.915    20691337.4954
  22926924.347    -8389113.236 8  -6335094.21246  22926929.812    22926936.7744
  20622488.930   -21545980.960 9 -16779234.18148  20622491.774    20622497.0554
  23020953.904    -7223372.658 8  -5613752.69446  23020957.499    23020969.6614
  21443689.985   -13212389.189 9 -10276744.79547  21443694.039    21443699.5954
  21321674.065   -19208374.620 9 -14954514.65247  21321676.780    21321682.8964
 00  5 24  3 19  0.0000000  0  7 11 21 05 29 15 30 25
  23814954.192    -5238559.849 8  -4070199.63245  23814956.245    23814962.1254
  20702445.233   -22905573.736 9 -17824591.40947  20702448.711    20702456.2654
  22937785.171    -8332067.753 8  -6290643.30446  22937785.882    22937791.5864
  20625604.547   -21529617.999 9 -16766483.82248  20625605.801    20625610.6864
  23037107.655    -7138492.828 8  -5547612.58746  23037110.174    23037122.7934
  21440741.820   -13227882.161 9 -10288817.19447  21440746.357    21440751.1274
  21312221.157   -19258042.706 9 -14993216.74147  21312225.096    21312230.9654
 00  5 24  3 19 30.0000000  0  7 11 21 05 29 15 30 25
  23816456.274    -5230660.454 8  -4064044.11045  23816459.646    23816465.2084
  20713665.906   -22846614.559 9 -17778649.14847  20713668.071    20713675.6614
  22948733.862    -8274535.091 8  -6245812.70846  22948734.268    22948740.3604
  20628763.146   -21513009.911 9 -16753542.47048  20628766.102    20628771.1874
  23053307.367    -7053353.276 8  -5481270.11946  23053311.107    23053323.3994
  21437909.381   -13242774.529 9 -10300421.61147  21437912.470    21437917.2134
  21302832.182   -19307377.457 9 -15031659.07947  21302836.728    21302842.5444
 00  5 24  3 20  0.0000000  0  7 11 21 05 29 15 30 25
  23818058.191    -5222261.711 8  -4057499.54645  23818057.009    23818064.3314
  20724982.974   -22787127.236 9 -17732295.33447  20724988.356    20724996.0724
  22959770.293    -8216517.101 8  -6200603.93646  22959774.418    22959781.1324
  20631968.911   -21496156.426 9 -16740409.89648  20631973.186    20631978.3554
  23069557.078    -6967957.655 8  -5414728.08546  23069561.413    23069573.4514
  21435189.097   -13257065.306 9 -10311557.26347  21435192.935    21435197.4914
  21293505.394   -19356378.657 9 -15069841.48947  21293511.534    21293517.4034
 00  5 24  3 20 30.0000000  0  7 11 21 05 29 15 30 25
  23819747.996    -5213364.451 8  -4050566.55345  23819750.514    23819757.3544
  20736405.401   -22727114.076 9 -17685531.79347  20736408.408    20736415.6804
  22970903.253    -8158015.915 8  -6155018.62646  22970906.198    22970913.4974
  20635224.918   -21479057.214 9 -16727085.87748  20635227.187    20635232.2034
  23085856.694    -6882309.525 8  -5347989.31946  23085859.743    23085872.0374
  21432583.093   -13270753.698 9 -10322223.52647  21432588.186    21432592.6964
  21284246.606   -19405046.394 9 -15107764.01947  21284250.281    21284256.4094
 00  5 24  3 21  0.0000000  0  7 11 21 05 29 15 30 25
  23821534.386    -5203969.763 8  -4043246.04445  23821537.093    23821544.3334
  20747926.451   -22666575.670 9 -17638358.96947  20747928.583    20747935.7964
  22982133.527    -8099033.408 8  -6109058.34246  22982131.335    22982137.5894
  20638525.220   -21461711.423 9 -16713569.66848  20638527.603    20638533.0734
  23102206.048    -6796412.026 8  -5281056.20746  23102207.245    23102217.5504
  21430091.793   -13283838.970 9 -10332419.80747  21430097.113    21430102.7124
  21275049.874   -19453380.734 9 -15145426.83347  21275052.750    21275058.3414
 00  5 24  3 21 30.0000000  0  7 11 21 05 29 15 30 25
  23823414.979    -5194078.908 8  -4035538.88545  23823419.832    23823425.8704
  20759545.339   -22605513.522 9 -17590778.02847  20759547.856    20759554.9584
  22993442.255    -8039571.537 8  -6062724.45646  22993445.881    22993452.7654
  20641871.714   -21444118.874 9 -16699861.19348  20641875.206    20641881.0234
  23118597.607    -6710268.475 8  -5213931.40146  23118599.421    23118611.3104
  21427719.567   -13296320.567 9 -10342145.70747  21427722.367    21427727.5884
  21265914.267   -19501381.398 9 -15182829.65847  21265918.249    21265923.6184
 00  5 24  3 22  0.0000000  0  7 11 21 05 29 15 30 25
  23825385.781    -5183692.616 8  -4027445.77745  23825396.063    23825402.7634
  20771264.766   -22543928.594 9 -17542789.74547  20771267.128    20771274.1844
  23004849.275    -7979631.900 8  -6016018.11246  23004852.085    23004858.6934
  20645266.878   -21426278.910 9 -16685959.91948  20645270.317    20645275.8444
  23135029.556    -6623882.114 8  -5146617.45246  23135036.964    23135050.3404
  21425459.968   -13308197.537 9 -10351400.49047  21425462.598    21425467.7204
  21256845.188   -19549048.032 9 -15219972.26147  21256847.492    21256853.0214
 00  5 24  3 22 30.0000000  0  7 11 21 05 29 15 30 25
  23827464.708    -5172811.957 8  -4018967.41245  23827467.520    23827473.1454
  20783082.314   -22481822.622 9 -17494395.44947  20783085.786    20783092.5974
  23016344.581    -7919216.720 8  -5968941.20046  23016349.039    23016355.1094
  20648709.860   -21408191.166 9 -16671865.56548  20648712.425    20648717.7854
  23151522.129    -6537256.359 8  -5079116.93945  23151521.358    23151532.8294
  21423315.721   -13319469.250 9 -10360183.64847  21423317.306    21423322.5444
  21247837.564   -19596381.314 9 -15256855.17447  21247839.874    21247845.2854
 00  5 24  3 23  0.0000000  0  7 11 21 05 29 15 30 25
  23829632.059    -5161438.340 8  -4010104.81845  23829632.690    23829637.7304
  20794998.888   -22419197.185 9 -17445596.37847  20795002.510    20795010.0614
  23027934.749    -7858327.935 8  -5921495.31146  23027935.261    23027941.9884
  20652199.280   -21389855.027 9 -16657577.58148  20652201.970    20652206.6414
  23168051.176    -6450394.584 8  -5011432.52645  23168051.244    23168063.1654
  21421288.264   -13330135.116 9 -10368494.69047  21421287.905    21421293.0964
  21238893.689   -19643380.731 9 -15293477.93747  21238895.922    21238901.1324
 00  5 24  3 23 30.0000000  0  7 11 21 05 29 15 30 25
  23831886.032    -5149572.912 8  -4000859.15245  23831889.934    23831896.6754
  20807017.331   -22356053.290 9 -17396393.30447  20807018.505    20807025.8654
  23039611.214    -7796967.464 8  -5873681.98846  23039611.941    23039618.1974
  20655735.351   -21371270.216 9 -16643095.89748  20655738.254    20655743.6154
  23184623.461    -6363300.126 8  -4943566.79345  23184625.879    23184636.0754
  21419368.026   -13340194.563 9 -10376333.23047  21419373.741    21419378.9664
  21230011.674   -19690046.406 9 -15329840.68247  21230015.602    21230020.7764
 00  5 24  3 24  0.0000000  0  7 11 21 05 29 15 30 25
  23834236.760    -5137216.626 8  -3991230.86945  23834240.671    23834248.0564
  20819130.038   -22292392.818 9 -17346787.72547  20819133.149    20819140.2904
  23051371.487    -7735137.255 8  -5825502.54446  23051377.916    23051384.1154
  20659318.408   -21352436.315 9 -16628420.11348  20659322.129    20659327.6714
  23201239.527    -6275976.270 8  -4875522.28745  23201242.735    23201253.4774
  21417573.243   -13349647.052 9 -10383698.87047  21417575.080    21417579.7664
  21221196.294   -19736378.227 9 -15365943.35747  21221198.846    21221203.9724
 00  5 24  3 24 30.0000000  0  7 11 21 05 29 15 30 25
  23836683.127    -5124371.010 7  -3981221.35645  23836683.580    23836691.8504
  20831342.029   -22228216.742 9 -17296780.36947  20831344.964    20831352.5784
  23063233.032    -7672839.411 8  -5776958.70146  23063232.211    23063239.1494
  20662948.323   -21333352.523 9 -16613549.59048  20662953.651    20662958.9354
  23217896.316    -6188426.298 8  -4807301.63345  23217902.775    23217913.5024
  21415889.176   -13358491.803 9 -10390590.91347  21415891.619    21415896.4464
  21212441.681   -19782376.172 9 -15401785.86347  21212445.793    21212450.8474
 00  5 24  3 25  0.0000000  0  7 11 21 05 29 15 30 25
  23839224.466    -5111036.799 8  -3970831.08945  23839222.626    23839228.7904
  20843651.931   -22163526.674 9 -17246372.49047  20843655.037    20843662.7684
  23075170.610    -7610076.126 8  -5728052.22346  23075175.490    23075182.3454
  20666630.070   -21314018.484 9 -16598484.05048  20666632.875    20666637.8954
  23234607.024    -6100653.578 8  -4738907.40145  23234604.601    23234615.1694
  21414321.904   -13366728.521 9 -10397009.16347  21414324.276    21414329.6954
  21203752.551   -19828040.317 9 -15437368.26247  21203756.090    21203761.7544
 00  5 24  3 25 30.0000000  0  7 11 21 05 29 15 30 25
  23841850.713    -5097215.538 8  -3960061.21145  23841852.570    23841859.3574
  20856058.784   -22098324.275 9 -17195565.39347  20856062.668    20856069.8794
  23087204.505    -7546849.376 8  -5678784.63946  23087207.373    23087214.3214
  20670355.310   -21294433.972 9 -16583223.42048  20670359.692    20670364.7824
  23251347.402    -6012661.624 8  -4670342.37246  23251349.719    23251361.6454
  21412868.004   -13374356.443 9 -10402953.00847  21412872.579    21412878.1494
  21195125.638   -19873370.707 9 -15472690.62447  21195129.884    21195135.4254
 00  5 24  3 26  0.0000000  0  7 11 21 05 29 15 30 25
  23844575.875    -5082908.388 8  -3948912.75555  23844577.279    23844580.5204
  20868563.743   -22032611.539 9 -17144360.65647  20868567.336    20868575.1484
  23099319.656    -7483161.002 8  -5629157.38946  23099326.415    23099333.2144
  20674131.264   -21274598.186 9 -16567767.02148  20674134.471    20674139.3904
  23268134.170    -5924453.826 8  -4601609.10946  23268135.713    23268146.4184
  21411534.526   -13381375.323 9 -10408422.24247  21411536.678    21411542.6774
  21186563.965   -19918367.245 9 -15507752.87747  21186567.738    21186572.5484
 00  5 24  3 26 30.0000000  0  7 11 21 05 29 15 30 25
  23847385.979    -5068116.497 8  -3937386.56945  23847390.946    23847395.3044
  20881164.168   -21966389.503 9 -17092759.05347  20881169.161    20881176.2854
  23111532.303    -7419012.904 8  -5579171.86546  23111534.261    23111540.6064
  20677954.541   -21254510.870 9 -16552114.58048  20677956.816    20677961.8204
  23284955.742    -5836033.328 8  -4532710.18045  23284962.080    23284971.9144
  21410314.170   -13387784.508 9 -10413416.38847  21410317.657    21410322.5404
  21178065.032   -19963029.762 9 -15542554.81847  21178068.528    21178073.8404
 00  5 24  3 27  0.0000000  0  7 11 21 05 29 15 30 25
  23850296.579    -5052841.351 8  -3925483.86045  23850297.982    23850302.4204
  20893863.018   -21899659.782 9 -17040761.84647  20893867.035    20893874.7264
  23123827.857    -7354407.082 8  -5528829.63346  23123827.876    23123834.4894
  20681822.379   -21234171.389 9 -16536265.63048  20681827.121    20681832.3994
  23301825.291    -5747403.586 8  -4463648.14645  23301827.980    23301835.9234
  21409210.417   -13393583.538 9 -10417935.07847  21409213.746    21409219.2724
  21169630.217   -20007358.203 9 -15577096.47247  21169633.370    21169638.3204
 00  5 24  3 27 30.0000000  0  7 11 21 05 29 15 30 25
  23853292.076    -5037084.220 8  -3913205.58145  23853294.585    23853300.8194
  20906660.788   -21832423.815 9 -16988370.16647  20906661.832    20906669.2554
  23136205.874    -7289345.584 8  -5478132.14446  23136208.994    23136215.0864
  20685741.700   -21213579.100 9 -16520219.71648  20685745.770    20685751.0664
  23318728.735    -5658567.946 8  -4394425.68245  23318731.676    23318743.4474
  21408222.212   -13398772.228 9 -10421978.20347  21408226.343    21408231.8954
  21161256.954   -20051352.837 9 -15611378.00047  21161261.326    21161266.4414
 00  5 24  3 28  0.0000000  0  7 11 21 05 29 15 30 25
  23856383.521    -5020846.675 8  -3900552.94145  23856385.045    23856393.3834
  20919550.213   -21764683.519 9 -16935585.51647  20919552.501    20919560.1084
  23148672.359    -7223831.008 8  -5427081.65846  23148675.400    23148681.8394
  20689710.001   -21192734.194 9 -16503977.04448  20689712.599    20689717.9344
  23335669.809    -5569529.779 8  -4325045.43945  23335673.703    23335688.0044
  21407353.835   -13403350.095 9 -10425545.33647  21407355.154    21407360.7174
  21152951.427   -20095013.859 9 -15645399.61647  21152953.043    21152957.9274
 00  5 24  3 28 30.0000000  0  7 11 21 05 29 15 30 25
  23859563.552    -5004129.617 8  -3887526.61545  23859567.244    23859574.1294
  20932535.723   -21696440.420 9 -16882409.08547  20932538.705    20932545.9724
  23161225.288    -7157865.212 8  -5375679.60546  23161228.547    23161234.8494
  20693724.336   -21171635.315 9 -16487536.44248  20693727.556    20693732.5694
  23352650.282    -5480292.311 8  -4255509.91045  23352656.605    23352669.3944
  21406597.955   -13407316.907 9 -10428636.35647  21406600.321    21406605.5674
  21144704.324   -20138341.126 9 -15679161.17047  21144708.175    21144712.9704
 00  5 24  3 29  0.0000000  0  7 11 21 05 29 15 30 25
  23862833.188    -4986934.645 8  -3874127.83445  23862838.101    23862845.1044
  20945619.081   -21627695.703 9 -16828841.77147  20945620.679    20945627.7334
  23173865.567    -7091450.453 8  -5323927.75646  23173867.345    23173872.8944
  20697786.719   -21150282.566 9 -16470897.97148  20697790.635    20697795.8884
  23369673.364    -5390858.829 8  -4185821.66345  23369674.410    23369688.0144
  21405957.642   -13410672.207 9 -10431250.87547  21405962.037    21405967.3004
  21136522.954   -20181334.148 9 -15712662.25248  21136526.708    21136531.9234
 00  5 24  3 29 30.0000000  0  7 11 21 05 29 15 30 25
  23866195.751    -4969263.262 8  -3860357.88745  23866200.669    23866207.5394
  20958794.560   -21558451.975 9 -16774885.64147  20958797.474    20958804.2794
  23186589.446    -7024588.873 8  -5271827.85046  23186589.466    23186595.8524
  20701899.757   -21128675.080 9 -16454060.98348  20701902.503    20701907.6794
  23386731.694    -5301232.894 8  -4115983.47945  23386732.143    23386741.6584
  21405436.649   -13413415.667 9 -10433388.58647  21405439.603    21405445.3444
  21128405.778   -20223993.501 9 -15745903.35248  21128409.464    21128414.3774
 00  5 24  3 30  0.0000000  0  7 11 21 05 29 15 30 25
  23869652.752    -4951116.691 8  -3846217.66645  23869653.515    23869660.1164
  20972065.802   -21488710.536 9 -16720541.69147  20972068.524    20972075.9944
  23199388.623    -6957282.613 8  -5219381.50946  23199397.262    23199403.9004
  20706059.824   -21106812.509 9 -16437025.16148  20706063.097    20706068.2174
  23403816.303    -5211417.825 8  -4045997.89045  23403823.244    23403833.8854
  21405032.218   -13415546.923 9 -10435049.26847  21405034.146    21405039.4944
  21120350.535   -20266319.104 9 -15778884.36248  21120355.339    21120360.2264
 00  5 24  3 30 30.0000000  0  7 11 21 05 29 15 30 25
  23873193.108    -4932496.302 8  -3831708.21945  23873197.426    23873203.8964
  20985432.176   -21418473.093 9 -16665811.26747  20985434.857    20985441.6904
  23212287.865    -6889533.445 8  -5166589.94546  23212289.833    23212296.0974
  20710269.098   -21084694.567 9 -16419790.41948  20710272.120    20710277.2694
  23420952.798    -5121416.938 8  -3975867.52945  23420950.023    23420960.9204
  21404741.155   -13417065.909 9 -10436232.86547  21404744.964    21404750.5204
  21112361.851   -20308311.436 9 -15811605.66948  21112364.082    21112369.2934
 00  5 24  3 31  0.0000000  0  7 11 21 05 29 15 30 25
  23876829.247    -4913403.685 8  -3816830.75645  23876831.847    23876837.0694
  20998892.890   -21347741.492 9 -16610695.77747  20998894.140    20998901.4674
  23225263.760    -6821343.807 8  -5113455.17246  23225266.637    23225272.3804
  20714525.669   -21062320.709 9 -16402356.22948  20714528.918    20714534.6774
  23438108.847    -5031233.473 8  -3905594.89045  23438110.340    23438123.4664
  21404568.822   -13417972.408 9 -10436939.19347  21404572.686    21404577.6664
  21104434.320   -20349970.201 9 -15844067.01648  21104436.584    21104442.0344
 00  5 24  3 31 30.0000000  0  7 11 21 05 29 15 30 25
  23880553.097    -4893840.382 8  -3801586.55745  23880555.263    23880559.9164
  21012443.777   -21276517.200 9 -16555196.38547  21012447.402    21012454.6994
  23238326.585    -6752715.634 8  -5059978.75246  23238325.821    23238331.4754
  20718831.471   -21039690.317 9 -16384722.13448  20718835.831    20718841.1344
  23455304.126    -4940870.813 8  -3835182.70045  23455305.874    23455319.5144
  21404512.366   -13418266.019 9 -10437167.95547  21404516.513    21404521.6104
  21096569.993   -20391295.685 9 -15876268.69948  21096572.975    21096577.9954
 00  5 24  3 32  0.0000000  0  7 11 21 05 29 15 30 25
  23884363.162    -4873808.020 8  -3785976.86545  23884367.489    23884371.6914
  21026090.759   -21204801.544 9 -16499314.10647  21026094.352    21026101.7084
  23251465.215    -6683651.451 8  -5006162.51946  23251468.494    23251474.2464
  20723189.300   -21016802.918 9 -16366887.77948  20723191.269    20723196.4804
  23472529.443    -4850332.289 8  -3764633.41045  23472535.010    23472548.0424
  21404574.032   -13417946.976 9 -10436919.29647  21404577.376    21404583.0914
  21088769.872   -20432287.834 9 -15908210.66148  21088772.217    21088777.6234
 00  5 24  3 32 30.0000000  0  7 11 21 05 29 15 30 25
  23888264.666    -4853307.715 8  -3770002.53045  23888267.307    23888273.2864
  21039831.770   -21132597.124 9 -16443050.97347  21039834.993    21039841.7444
  23264691.252    -6614153.255 8  -4952008.05446  23264692.342    23264700.3474
  20727591.386   -20993658.133 9 -16348852.85948  20727595.444    20727600.6414
  23489802.487    -4759621.270 8  -3693949.72345  23489798.911    23489808.6794
  21404750.726   -13417014.769 9 -10436192.87847  21404755.076    21404760.1424
  21081032.555   -20472946.707 9 -15939892.89648  21081034.988    21081040.0734
 00  5 24  3 33  0.0000000  0  7 11 21 05 29 15 30 25
  23892254.298    -4832341.266 8  -3753665.03645  23892256.310    23892261.7894
  21053662.096   -21059905.501 9 -16386408.20147  21053667.713    21053674.7464
  23277997.345    -6544223.273 8  -4897517.15146  23278000.360    23278007.0174
  20732045.241   -20970255.431 9 -16330616.97848  20732048.919    20732053.7374
  23507084.452    -4668741.310 8  -3623134.39145  23507090.842    23507103.5344
  21405047.547   -13415469.444 9 -10434988.66447  21405048.738    21405053.8914
  21073357.596   -20513272.683 9 -15971315.73948  21073360.997    21073366.3934
 00  5 24  3 33 30.0000000  0  7 11 21 05 29 15 30 25
  23896327.737    -4810910.209 8  -3736965.48745  23896334.339    23896340.1164
  21067589.793   -20986728.609 9 -16329387.30647  21067592.730    21067599.8074
  23291383.603    -6473863.721 8  -4842691.49846  23291389.755    23291396.5754
  20736546.874   -20946594.534 9 -16312179.87948  20736551.111    20736556.4274
  23524411.499    -4577695.718 8  -3552190.00745  23524415.969    23524429.1094
  21405457.214   -13413310.893 9 -10433306.62847  21405459.649    21405464.9184
  21065747.074   -20553265.760 9 -16002479.17548  21065750.812    21065756.0394
 00  5 24  3 34  0.0000000  0  7 11 21 05 29 15 30 25
  23900501.082    -4789016.027 8  -3719904.98945  23900500.194    23900507.7594
  21081604.135   -20913067.754 8 -16271989.27247  21081609.536    21081616.8014
  23304853.931    -6403077.058 8  -4787533.03946  23304859.893    23304866.2484
  20741099.854   -20922674.600 9 -16293540.99148  20741103.163    20741108.2354
  23541768.804    -4486487.706 8  -3481119.08745  23541772.938    23541785.6134
  21405984.717   -13410539.024 9 -10431146.70847  21405987.058    21405992.6114
  21058200.890   -20592925.984 9 -16033383.26048  21058203.599    21058208.6584
 00  5 24  3 34 30.0000000  0  7 11 21 05 29 15 30 25
  23904750.926    -4766660.383 8  -3702484.97645  23904754.962    23904761.7144
  21095716.500   -20838925.286 9 -16214215.98047  21095718.758    21095725.9684
  23318408.246    -6331865.401 8  -4732043.37446  23318410.116    23318417.8244
  20745699.560   -20898495.409 9 -16274700.02048  20745704.008    20745709.3394
  23559152.728    -4395120.664 8  -3409924.21845  23559160.100    23559173.6704
  21406630.533   -13407153.798 9 -10428508.83147  21406631.202    21406636.3894
  21050716.466   -20632253.130 9 -16064027.77048  21050719.945    21050724.8724
 00  5 24  3 35  0.0000000  0  7 11 21 05 29 15 30 25
  23909098.814    -4743844.730 8  -3684706.53645  23909096.507    23909103.1284
  21109916.870   -20764303.080 9 -16156068.85747  21109918.920    21109926.5594
  23332037.494    -6260231.067 8  -4676224.38746  23332042.393    23332048.8424
  20750353.123   -20874056.506 9 -16255656.69548  20750354.988    20750360.1224
  23576571.753    -4303597.832 8  -3338607.97145  23576576.989    23576588.8754
  21407388.016   -13403155.355 9 -10425393.11147  21407391.498    21407397.3354
  21043295.962   -20671248.030 9 -16094413.41148  21043299.362    21043304.2454
 00  5 24  3 35 30.0000000  0  7 11 21 05 29 15 30 25
  23913524.500    -4720570.727 8  -3666570.94845  23913525.661    23913532.3344
  21124206.029   -20689203.113 9 -16097549.45647  21124210.281    21124217.3644
  23345751.936    -6188176.119 8  -4620077.66046  23345754.515    23345760.7844
  20755050.217   -20849357.219 9 -16236410.49548  20755054.633    20755059.7944
  23594015.128    -4211922.429 8  -3267172.84345  23594021.178    23594033.5844
  21408263.267   -13398543.766 9 -10421799.65147  21408269.051    21408274.9454
  21035937.582   -20709910.449 9 -16124539.94848  21035941.904    21035947.3444
 00  5 24  3 36  0.0000000  0  7 11 21 05 29 15 30 25
  23918042.782    -4696840.177 8  -3648079.61845  23918042.185    23918047.8534
  21138591.613   -20613626.817 9 -16038658.86147  21138592.034    21138599.3204
  23359544.451    -6115702.991 8  -4563605.12946  23359545.766    23359552.2674
  20759803.576   -20824397.108 9 -16216961.01148  20759804.840    20759809.4154
  23611496.915    -4120097.870 8  -3195621.46545  23611496.504    23611509.8684
  21409261.683   -13393318.918 9 -10417728.30947  21409263.975    21409269.5494
  21028645.111   -20748240.609 9 -16154407.54348  21028647.940    21028653.4054
 00  5 24  3 36 30.0000000  0  7 11 21 05 29 15 30 25
  23922643.552    -4672654.508 8  -3629233.60545  23922645.343    23922648.8274
  21153061.183   -20537576.328 9 -15979398.78247  21153063.933    21153070.9534
  23373410.141    -6042814.030 8  -4506808.62246  23373416.076    23373421.9104
  20764598.647   -20799175.874 9 -16197308.08048  20764603.949    20764609.1604
  23628989.743    -4028127.314 7  -3123956.35945  23628997.177    23629010.9004
  21410372.196   -13387480.966 9 -10413179.30447  21410374.814    21410380.1824
  21021414.109   -20786238.835 9 -16184016.51248  21021417.312    21021422.9274
 00  5 24  3 37  0.0000000  0  7 11 21 05 29 15 30 25
  23927335.247    -4648015.579 8  -3610034.42245  23927332.893    23927337.8094
  21167620.812   -20461053.742 9 -15919770.82247  21167625.422    21167633.0114
  23387359.957    -5969511.128 8  -4449689.48646  23387365.051    23387371.0864
  20769449.638   -20773692.935 9 -16177451.18748  20769453.015    20769458.4434
  23646524.830    -3936014.278 8  -3052180.23945  23646524.765    23646539.3334
  21411598.923   -13381029.871 9 -10408152.47647  21411602.335    21411607.2274
  21014246.840   -20823905.418 9 -16213367.05248  21014249.670    21014255.2274
 00  5 24  3 37 30.0000000  0  7 11 21 05 29 15 30 25
  23932106.165    -4622925.219 8  -3590483.46945  23932108.317    23932113.0444
  21182273.758   -20384061.271 9 -15859776.72547  21182276.938    21182283.9754
  23401394.640    -5895796.874 8  -4392249.81146  23401392.659    23401398.2104
  20774349.276   -20747947.920 9 -16157390.13648  20774352.333    20774357.6094
  23664081.756    -3843762.109 8  -2980295.65545  23664080.328    23664094.8264
  21412945.343   -13373965.766 9 -10402647.94647  21412946.784    21412951.6664
  21007141.143   -20861240.484 9 -16242459.30548  21007145.011    21007150.5324
 00  5 24  3 38  0.0000000  0  7 11 21 05 29 15 30 25
  23936966.333    -4597384.948 8  -3570582.01345  23936968.593    23936974.1104
  21197012.273   -20306600.403 9 -15799417.61747  21197017.032    21197024.7114
  23415495.259    -5821673.476 8  -4334491.28746  23415497.505    23415503.2124
  20779298.923   -20721940.332 9 -16137124.50048  20779301.300    20779306.8004
  23681656.063    -3751374.229 8  -2908305.32345  23681662.279    23681674.0194
  21414404.182   -13366289.052 9 -10396666.12747  21414407.484    21414412.8954
  21000099.305   -20898244.045 9 -16271293.21248  21000103.281    21000108.5684
 00  5 24  3 38 30.0000000  0  7 11 21 05 29 15 30 25
  23941912.993    -4571396.340 8  -3550331.16045  23941914.733    23941919.4784
  21211844.749   -20228672.938 8 -15738694.95147  21211845.981    21211853.8334
  23429681.530    -5747143.259 8  -4276415.79146  23429680.003    23429686.0434
  20784297.306   -20695669.589 9 -16116653.80748  20784300.586    20784305.9024
  23699263.247    -3658853.807 8  -2836211.71345  23699268.040    23699279.5104
  21415983.040   -13357999.735 9 -10390206.94347  21415984.916    21415989.8874
  20993122.146   -20934916.495 9 -16299869.13048  20993124.725    20993129.7134
 00  5 24  3 39  0.0000000  0  7 11 21 05 29 15 30 25
  23946942.660    -4544961.236 8  -3529732.30745  23946944.139    23946950.8444
  21226759.210   -20150281.815 8 -15677610.99547  21226763.393    21226770.9654
  23443938.164    -5672208.627 8  -4218025.17846  23443938.979    23443945.8064
  20789348.355   -20669135.466 9 -16095977.87448  20789349.945    20789355.1684
  23716897.669    -3566203.965 8  -2764017.28545  23716899.156    23716913.2354
  21417676.205   -13349097.724 9 -10383270.17447  21417678.912    21417683.9644
  20986205.246   -20971257.937 9 -16328187.14348  20986209.365    20986214.0874
 00  5 24  3 39 30.0000000  0  7 11 21 05 29 15 30 25
  23952057.430    -4518081.286 8  -3508786.83645  23952059.413    23952064.7164
  21241768.911   -20071428.809 8 -15616167.11847  21241768.962    21241776.4754
  23458279.083    -5596872.048 8  -4159321.40546  23458275.149    23458281.7874
  20794445.923   -20642337.133 9 -16075095.98748  20794448.987    20794454.4234
  23734548.934    -3473428.326 8  -2691724.76845  23734553.142    23734567.8524
  21419486.490   -13339583.804 9 -10375856.65247  21419489.063    21419494.5504
  20979351.626   -21007268.234 9 -16356247.09548  20979356.260    20979362.0684
 00  5 24  3 40  0.0000000  0  7 11 21 05 29 15 30 25
  23957257.631    -4490758.623 8  -3487496.40245  23957258.251    23957264.9314
  21256859.664   -19992114.938 8 -15554364.13747  21256861.832    21256869.5524
  23472688.468    -5521135.783 8  -4100306.23946  23472687.843    23472694.4264
  20799594.766   -20615274.538 9 -16054008.26948  20799599.364    20799604.6824
  23752232.976    -3380530.033 8  -2619336.73745  23752231.984    23752246.1124
  21421415.099   -13329458.317 9 -10367966.69247  21421415.967    21421420.7924
  20972563.199   -21042948.076 9 -16384049.55548  20972566.943    20972572.5054
 00  5 24  3 40 30.0000000  0  7 11 21 05 29 15 30 25
  23962542.084    -4462994.904 8  -3465862.31145  23962541.547    23962547.2514
  21272037.220   -19912342.942 8 -15492204.19547  21272042.047    21272049.6744
  23487163.548    -5445002.035 8  -4040981.23846  23487175.318    23487182.0294
  20804796.583   -20587946.889 9 -16032714.01048  20804799.600    20804804.9944
  23769929.402    -3287512.567 8  -2546855.85645  23769932.738    23769945.7644
  21423455.758   -13318720.974 9 -10359599.87447  21423459.142    21423463.9834
  20965836.193   -21078297.633 9 -16411594.62448  20965840.098    20965845.6264
 00  5 24  3 41  0.0000000  0  7 11 21 05 29 15 30 25
  23967900.572    -4434791.838 8  -3443885.82145  23967908.023    23967913.2794
  21287305.524   -19832115.008 8 -15429688.95247  21287308.790    21287316.2964
  23501735.435    -5368473.298 8  -3981348.45846  23501738.400    23501744.7124
  20810047.181   -20560353.817 9 -16011212.88048  20810050.096    20810055.2404
  23787654.017    -3194379.005 8  -2474284.46945  23787656.821    23787668.2804
  21425617.171   -13307372.467 9 -10350756.85447  21425619.130    21425624.2184
  20959173.617   -21113317.268 9 -16438882.57048  20959175.905    20959181.5634
 00  5 24  3 41 30.0000000  0  7 11 21 05 29 15 30 25
  23973360.476    -4406151.402 8  -3421568.47145  23973357.661    23973364.4594
  21302660.281   -19751433.216 9 -15366820.07947  21302662.495    21302669.6154
  23516370.403    -5291552.031 8  -3921409.84046  23516376.297    23516383.0124
  20815348.362   -20532494.902 9 -15989504.58547  20815351.710    20815356.6214
  23805399.982    -3101132.659 8  -2401625.20045  23805400.471    23805412.5224
  21427891.436   -13295413.232 9 -10341437.97047  21427894.655    21427899.7004
  20952570.954   -21148007.157 9 -16465913.59448  20952574.706    20952580.2894
 00  5 24  3 42  0.0000000  0  7 11 21 05 29 15 30 25
  23978886.629    -4377075.410 8  -3398911.71145  23978890.784    23978897.5664
  21318098.519   -19670299.560 9 -15303599.08447  21318101.625    21318108.6364
  23531086.562    -5214240.556 8  -3861167.15446  23531088.230    23531094.2844
  20820701.320   -20504369.766 9 -15967588.89847  20820703.789    20820708.7844
  23823158.532    -3007776.672 7  -2328880.50145  23823165.076    23823178.5474
  21430284.710   -13282843.793 9 -10331643.72147  21430286.635    21430291.5854
  20946033.463   -21182367.293 9 -16492687.72648  20946036.236    20946041.5134
 00  5 24  3 42 30.0000000  0  7 11 21 05 29 15 30 25
  23984506.650    -4347565.827 8  -3375917.12645  23984506.075    23984511.5344
  21333624.265   -19588716.241 9 -15240027.70647  21333626.216    21333633.4174
  23545872.997    -5136541.180 8  -3800622.20346  23545873.886    23545880.0864
  20826103.081   -20475977.953 9 -15945465.42447  20826106.194    20826111.6674
  23840951.976    -2914314.536 7  -2256053.14445  23840949.699    23840964.1764
  21432789.537   -13269664.102 9 -10321373.94347  21432794.518    21432799.5714
  20939558.086   -21216398.144 9 -16519205.23748  20939560.626    20939565.4134
 00  5 24  3 43  0.0000000  0  7 11 21 05 29 15 30 25
  23990204.529    -4317624.467 8  -3352586.16545  23990203.082    23990209.7654
  21349231.273   -19506685.557 8 -15176107.72747  21349236.244    21349243.3414
  23560730.001    -5058456.266 8  -3739776.84846  23560732.085    23560738.9644
  20831556.288   -20447318.927 9 -15923133.70547  20831559.749    20831565.4184
  23858746.687    -2820749.649 7  -2183145.68945  23858754.239    23858769.8304
  21435413.849   -13255874.772 9 -10310629.09147  21435418.485    21435424.0224
  20933143.530   -21250100.069 9 -16545466.44748  20933147.397    20933152.0594
